[[[{"header":{"parameterUnit":"kt","parameterCategory":2,"dx":1,"dy":1,"la1":29.285339999999998,"la2":30.599998999999997,"lo1":-89.70041500000002,"lo2":-87.6738589999976,"nx":112,"ny":82,"refTime":"2022-10-02T00:00:00:Z","depth":0,"parameterNumber":1,"parameterNumberName":"U-component_of_WINDS"},"data":[7.3076,7.4907,0.0,6.253,6.1268,0.0,4.6991,0.0,0.0,0.0,0.0,0.0,0.0,0.0,0.0,0.0,0.0,0.0,0.0,0.0,0.0,0.0,0.0,0.0,0.0,0.0,0.0,0.0,0.0,0.0,0.0,0.0,10.5483,10.7536,10.8517,10.9292,10.9816,11.0708,11.1755,11.2802,11.4746,11.598,11.6578,11.7663,11.8186,11.8186,11.8186,11.8186,11.8186,11.8186,11.7812,11.7102,11.5457,11.3849,11.2279,11.1194,11.0409,10.9736,10.8615,10.8278,10.8278,10.8278,10.8278,10.8278,10.8278,10.8278,10.839,10.8988,10.8727,10.8268,10.8394,10.7206,10.5784,10.5197,10.4198,10.3425,10.3425,10.3425,10.3425,10.3425,10.3425,10.3425,10.3425,10.3425,10.3425,10.3425,10.3425,10.3425,10.3425,10.3425,10.3425,10.3425,10.3425,10.3425,10.3425,10.3425,10.303,10.2162,10.1731,10.1795,10.2442,10.195,10.2123,10.3142,10.3701,10.3734,10.3175,10.3734,10.3997,10.3997,10.3997,10.3997,0.0,0.0,7.036,5.6346,0.0,0.0,0.0,0.0,0.0,0.0,0.0,0.0,0.0,0.0,0.0,0.0,0.0,0.0,0.0,0.0,0.0,0.0,0.0,0.0,0.0,0.0,0.0,0.0,0.0,0.0,0.0,10.3831,10.4876,10.7306,10.8577,10.9142,10.8918,10.9848,11.0596,11.1082,11.3064,11.4597,11.5681,11.684,11.7625,11.8186,11.8186,11.8186,11.8186,11.8186,11.8186,11.7999,11.6317,11.5008,11.3999,11.284,11.1755,11.0634,10.9512,10.8764,10.8278,10.8278,10.8278,10.8199,10.7989,10.7862,10.7817,10.7555,10.7507,10.7335,10.6845,10.6068,10.5359,10.4748,10.3945,10.3425,10.3425,10.3425,10.3425,10.3425,10.3425,10.3425,10.3425,10.3425,10.3425,10.3425,10.3425,10.3425,10.3425,10.3425,10.3425,10.3425,10.3425,10.3425,10.3425,10.3425,10.261,10.0706,10.0636,10.0556,10.0264,10.0742,10.1662,10.3175,10.3734,10.3997,10.3997,10.3997,10.3997,10.3997,10.3997,10.3997,0.0,0.0,0.0,4.9607,0.0,0.0,0.0,0.0,4.2,0.0,0.0,0.0,0.0,0.0,0.0,0.0,0.0,0.0,0.0,0.0,0.0,0.0,0.0,0.0,0.0,0.0,0.0,0.0,0.0,0.0,10.2823,10.3791,10.5324,10.8577,10.903,10.8918,10.8278,10.8502,10.9325,11.0708,11.0746,11.2428,11.5494,11.5606,11.6541,11.8111,11.8149,11.8186,11.8186,11.8186,11.8186,11.8037,11.6391,11.5756,11.5756,11.5681,11.3662,11.089,11.0778,10.9656,10.8274,10.8236,10.8199,10.8076,10.7273,10.7031,10.6925,10.6152,10.5945,10.5958,10.5893,10.5247,10.4542,10.4506,10.3924,10.3425,10.3425,10.3425,10.3425,10.3425,10.3425,10.3425,10.3425,10.3425,10.3425,10.3425,10.3425,10.3425,10.3425,10.3425,10.3425,10.3425,10.3425,10.3425,10.3425,10.3425,10.2315,9.9504,9.9303,9.877,9.7478,9.8802,10.0249,10.1695,10.3241,10.3997,10.3997,10.3997,10.3997,10.3997,10.3997,10.3997,5.7596,0.0,0.0,0.0,0.0,0.0,0.0,0.0,0.0,0.0,0.0,0.0,0.0,0.0,0.0,0.0,0.0,0.0,0.0,0.0,0.0,0.0,0.0,0.0,0.0,0.0,0.0,0.0,0.0,8.8399,10.3008,10.3975,10.5657,10.8993,10.8918,10.8768,10.854,10.8428,10.8577,10.8951,11.0185,11.1269,11.2204,11.4597,11.5905,11.6429,11.7663,11.8186,11.8186,11.8186,11.8186,11.8149,11.7663,11.7476,11.7326,11.6092,11.4695,11.3057,11.0747,10.9165,10.8109,10.6965,10.6559,10.6539,10.6367,10.6271,10.6212,10.6007,10.5945,10.5767,10.5077,10.4748,10.4435,10.3817,10.3567,10.3425,10.3425,10.3425,10.3425,10.3425,10.3425,10.3425,10.3425,10.3425,10.3425,10.3425,10.3425,10.3425,10.3425,10.3425,10.3425,10.3425,10.3425,10.3425,10.3425,10.3425,10.2696,10.0894,9.8895,9.8097,9.8959,9.9328,10.0742,10.3306,10.38,10.3997,10.3997,10.3997,10.3997,10.3997,10.3997,10.3997,0.0,0.0,0.0,0.0,0.0,0.0,4.2452,0.0,3.9624,0.0,0.0,0.0,0.0,0.0,0.0,0.0,4.906,0.0,0.0,0.0,0.0,0.0,0.0,0.0,0.0,0.0,0.0,0.0,9.0899,9.1383,10.3187,10.4155,10.5793,10.8881,10.8955,10.9142,10.9549,10.8689,10.8615,10.9325,10.9587,11.011,11.0895,11.3513,11.5045,11.5756,11.7438,11.8186,11.8186,11.8186,11.8186,11.8149,11.7754,11.7618,11.7456,11.6066,11.4791,11.3385,11.0905,10.924,10.8082,10.7229,10.6935,10.6873,10.6449,10.5842,10.5264,10.4996,10.4856,10.4787,10.4259,10.4114,10.4007,10.3532,10.3425,10.3425,10.3425,10.3425,10.3425,10.3425,10.3425,10.3425,10.3425,10.3425,10.3425,10.3425,10.3425,10.3425,10.3425,10.3425,10.3425,10.3425,10.3425,10.3425,10.3425,10.3425,10.2817,10.139,9.9269,9.8219,9.8487,9.9239,10.0643,10.2978,10.3668,10.3997,10.3997,10.3997,10.3997,10.3997,10.3997,10.3997,0.0,0.0,0.0,0.0,5.044,0.0,0.0,0.0,0.0,0.0,0.0,0.0,0.0,0.0,0.0,0.0,0.0,0.0,0.0,0.0,0.0,0.0,0.0,0.0,0.0,8.8503,9.179,9.8071,9.3362,9.4204,10.3356,10.4296,10.5855,10.8631,10.8996,10.9703,11.0746,10.9101,10.9101,11.0746,10.9063,10.9026,11.0559,11.2466,11.4073,11.5494,11.7364,11.8186,11.8186,11.8186,11.8186,11.8103,11.709,11.668,11.6527,11.5774,11.4459,11.2859,11.1285,10.9754,10.8518,10.8335,10.8262,10.8092,10.7106,10.5653,10.4312,10.3597,10.3425,10.3425,10.3425,10.3425,10.3425,10.3425,10.3425,10.3425,10.3425,10.3425,10.3425,10.3425,10.3425,10.3425,10.3425,10.3425,10.3425,10.3425,10.3425,10.3425,10.3425,10.3425,10.3425,10.3425,10.3425,10.3425,10.3425,10.3224,10.2575,10.1114,9.9802,9.8582,9.7303,9.8745,10.0314,10.1893,10.3306,10.3997,10.3997,10.3997,10.3997,10.3997,10.3997,10.3997,0.0,0.0,0.0,0.0,0.0,4.742,0.0,0.0,0.0,0.0,0.0,0.0,0.0,0.0,0.0,0.0,0.0,0.0,0.0,0.0,0.0,0.0,0.0,0.0,9.4146,9.321,9.422,9.822,9.7809,9.9325,10.387,10.4401,10.5981,10.9031,10.8891,10.94,11.0746,10.9101,10.9101,11.0746,10.9063,10.8428,10.8839,11.1942,11.3475,11.3961,11.6915,11.8186,11.8186,11.8186,11.8186,11.8057,11.6348,11.5709,11.5709,11.5511,11.4775,11.3676,11.2079,11.0892,10.9763,10.8553,10.8158,10.7826,10.6444,10.4895,10.3597,10.3425,10.3425,10.3425,10.3425,10.3425,10.3425,10.3425,10.3425,10.3425,10.3425,10.3425,10.3425,10.3425,10.3425,10.3425,10.3425,10.3425,10.3425,10.3425,10.3425,10.3425,10.3425,10.3425,10.3425,10.3425,10.3425,10.3425,10.3425,10.2367,10.1114,9.9802,9.8375,9.746,9.7313,9.8729,10.0808,10.3504,10.3832,10.3997,10.3997,10.3997,10.3997,10.3997,10.3997,10.3997,0.0,0.0,0.0,4.7812,0.0,0.0,0.0,0.0,0.0,0.0,0.0,0.0,0.0,0.0,6.6135,6.7197,7.3615,0.0,0.0,0.0,0.0,0.0,0.0,0.0,9.4136,9.381,9.4893,9.8295,9.9044,10.0735,10.403,10.4431,10.6023,10.9145,10.8857,10.9736,11.2054,10.9512,10.9549,11.2054,10.9475,10.8278,10.8353,11.0895,11.254,11.3431,11.5393,11.6735,11.748,11.7035,11.6831,11.668,11.5307,11.4778,11.4704,11.429,11.3847,11.3173,11.1627,11.0826,11.0275,10.949,10.924,10.9097,10.8312,10.6992,10.5601,10.4816,10.4031,10.3603,10.4388,10.3996,10.3639,10.4424,10.3996,10.3639,10.4459,10.3996,10.3425,10.3425,10.3425,10.3425,10.3425,10.3425,10.3425,10.3425,10.3425,10.3425,10.3425,10.3425,10.3425,10.3425,10.3425,10.3425,10.3425,10.2781,10.146,9.9404,9.8688,9.7703,9.6391,9.8407,10.0249,10.1728,10.3241,10.3997,10.3997,10.3997,10.3997,10.3997,10.3997,10.3997,0.0,0.0,0.0,0.0,0.0,0.0,4.6482,4.7327,5.0551,0.0,0.0,0.0,6.8336,7.0683,7.1185,6.9957,7.6427,8.4368,9.2288,9.2464,0.0,0.0,0.0,0.0,9.2493,9.3431,9.5267,9.8295,9.9006,10.0727,10.4097,10.4418,10.5947,10.9146,10.9142,11.0447,11.3326,11.0297,11.0447,11.3737,11.0035,10.8386,10.8555,10.9937,11.1235,11.2438,11.3587,11.4825,11.6083,11.5664,11.5238,11.485,11.4093,11.3811,11.3766,11.3018,11.2736,11.2558,11.1309,11.0881,11.0881,11.0881,11.0881,11.081,11.0524,10.9525,10.8205,10.6636,10.5316,10.4638,10.5886,10.528,10.4566,10.553,10.4816,10.4174,10.5053,10.4352,10.3425,10.3425,10.3425,10.3425,10.3425,10.3425,10.3425,10.3425,10.3425,10.3425,10.3425,10.3425,10.3425,10.3425,10.3425,10.3425,10.3425,10.3141,10.198,9.9504,9.91,9.804,9.6161,9.8342,9.9821,10.0413,10.278,10.3997,10.3997,10.3997,10.3997,10.3997,10.3997,10.3997,0.0,0.0,0.0,0.0,0.0,0.0,6.4144,6.578,6.7862,0.0,0.0,8.5477,8.6651,8.7015,8.708,8.6881,8.7801,8.9252,9.1338,9.2575,9.254,0.0,0.0,0.0,9.2574,9.4468,9.6538,9.8407,9.8856,10.0623,10.4355,10.4364,10.576,10.9146,11.0115,11.1456,11.3326,11.1456,11.2167,11.5345,11.0559,10.869,10.95,10.9686,10.9442,10.897,11.1997,11.3366,11.366,11.496,11.4518,11.3018,11.2967,11.2878,11.2878,11.2825,11.2736,11.2736,11.2558,11.2486,11.2486,11.2486,11.2486,11.2201,11.0845,11.031,10.9846,10.8241,10.767,10.7563,10.7742,10.767,10.7242,10.6029,10.5601,10.5173,10.396,10.3567,10.3425,10.3425,10.3425,10.3425,10.3425,10.3425,10.3425,10.3425,10.3425,10.3425,10.3425,10.3425,10.3425,10.3425,10.3425,10.3425,10.3425,10.2244,10.0894,9.9404,9.8163,9.7903,9.8966,9.9394,10.0808,10.3471,10.3832,10.3997,10.3997,10.3997,10.3997,10.3997,10.3997,10.3997,0.0,0.0,0.0,0.0,0.0,0.0,6.1859,6.4761,0.0,0.0,8.3011,8.3812,8.8733,8.9625,8.9545,8.9409,9.0086,9.1111,9.2425,9.235,9.1645,9.0181,0.0,0.0,9.2521,9.4628,9.68,9.8632,9.8894,9.9746,10.1556,10.3249,10.5667,10.8806,11.0148,11.1606,11.3282,11.1643,11.2428,11.5606,11.1643,10.9689,10.9656,10.9656,10.9142,10.8384,11.0081,11.1404,11.2403,11.3494,11.3425,11.2736,11.2736,11.2736,11.2736,11.2736,11.2736,11.2736,11.2736,11.2736,11.2736,11.2736,11.2736,11.2629,11.1951,11.1147,11.0091,10.8555,10.8719,10.9469,10.9418,10.8741,10.7884,10.7242,10.6386,10.5565,10.4923,10.4067,10.3425,10.3425,10.3425,10.3425,10.3425,10.3425,10.3425,10.3425,10.3425,10.3425,10.3425,10.3425,10.3425,10.3425,10.3425,10.3425,10.3425,10.2901,10.1641,9.9504,9.9509,10.0038,10.1,10.0907,10.2204,10.5357,10.4418,10.3997,10.3997,10.3997,10.3997,10.3997,10.3997,10.3997,4.1324,0.0,0.0,0.0,0.0,0.0,0.0,0.0,0.0,8.0585,8.1522,8.2474,8.8399,8.9484,8.9552,8.9732,9.0972,9.2089,9.2466,9.198,9.0934,8.9254,9.0577,9.1782,9.2465,9.5155,9.7398,0.0,9.9042,9.9413,10.019,10.2815,10.5653,10.854,11.0521,11.2086,11.3275,11.254,11.3556,11.6324,11.2353,11.0304,10.9923,10.8745,10.7779,10.7032,10.8338,10.9612,11.0846,11.1755,11.2379,11.2736,11.2736,11.2736,11.2736,11.2736,11.2736,11.2736,11.2736,11.2736,11.2736,11.2736,11.2736,11.2736,11.2736,11.1933,11.0806,10.9698,11.0163,11.102,11.1024,11.0203,10.924,10.8776,10.7492,10.6279,10.5851,10.4852,10.396,10.3532,10.3425,10.3425,10.3425,10.3425,10.3425,10.3425,10.3425,10.3425,10.3425,10.3425,10.3425,10.3425,10.3425,10.3603,10.4031,10.4067,10.3004,10.0745,10.1883,10.2894,10.3194,10.2638,10.3774,10.6806,10.4935,10.3997,10.3997,10.3997,10.3997,10.3997,10.3997,10.3997,0.0,0.0,0.0,5.8826,6.1197,6.528,8.0221,0.0,8.0955,8.7582,8.8896,8.8934,8.9182,8.9258,8.9655,9.0927,9.2388,9.269,9.0421,9.1494,9.1074,8.7241,9.015,9.2498,9.2541,9.6389,9.8894,9.8969,9.9303,10.0228,10.19,10.3633,10.5803,10.8577,11.1643,11.3282,11.3342,11.4784,11.6405,11.8058,11.2347,11.0048,11.0658,10.6549,10.4303,10.3757,10.6743,10.8139,10.832,10.9813,11.1345,11.2736,11.2736,11.2736,11.2736,11.2736,11.2736,11.2736,11.2736,11.2736,11.2736,11.2736,11.2736,11.2736,11.2736,11.2701,11.2665,11.2629,11.2645,11.264,11.2647,11.2629,11.2201,11.0683,10.9184,10.7563,10.6065,10.5744,10.5196,10.3746,10.3425,10.3425,10.3425,10.3425,10.3425,10.3425,10.3425,10.3425,10.3425,10.3425,10.3425,10.3425,10.3425,10.4067,10.5565,10.5672,10.5053,10.3779,10.4977,10.5972,10.615,10.4763,10.5399,10.8391,10.5465,10.3997,10.3997,10.3997,10.3997,10.3997,10.3997,10.3997,4.8717,5.2647,5.7337,6.495,7.033,7.5327,8.131,0.0,8.6787,8.8812,8.9235,8.9198,8.9123,8.9858,9.1004,9.2463,9.2799,9.2591,9.1788,9.0862,8.9859,8.8964,9.1057,9.3186,9.4929,9.7398,9.9035,9.9309,10.0357,0.0,10.2014,10.4387,10.6181,10.7078,10.8988,11.1039,11.3304,11.4896,11.6511,11.8156,11.4478,11.2607,11.2255,10.9227,10.6756,10.5017,10.6089,10.7126,10.8305,11.0917,11.2219,11.2736,11.2736,11.2736,11.2736,11.2736,11.2736,11.2736,11.2736,11.2736,11.2736,11.2736,11.2736,11.2736,11.2736,11.2736,11.254,11.1494,11.1945,11.2557,11.147,11.1969,11.2397,11.077,11.002,10.8898,10.6339,10.4935,10.4067,10.3532,10.3425,10.3425,10.3425,10.3425,10.3425,10.3425,10.3425,10.3425,10.3425,10.3425,10.3425,10.3425,10.4388,10.516,10.566,10.6707,10.6775,10.5444,10.6675,10.7968,10.913,10.7717,10.7747,10.9874,10.6925,10.495,10.3997,10.3997,10.3997,10.3997,10.3997,10.3997,5.3292,5.772,6.2379,7.1088,7.7469,8.2148,8.4179,8.7101,8.9356,8.9169,8.9094,8.8982,8.8907,9.0144,9.1382,9.2129,9.2405,9.2166,9.1076,9.0345,8.9869,8.9669,9.1993,9.429,9.6236,9.8081,9.9222,9.943,10.0913,10.2108,10.2795,10.5038,10.6592,10.7115,10.8465,11.0484,11.3282,11.5457,11.696,11.7663,11.5105,11.3149,11.1687,10.9212,10.6983,10.4946,10.5528,10.6959,10.9104,11.1059,11.2183,11.2736,11.2736,11.2736,11.2736,11.2736,11.2736,11.2736,11.2736,11.2736,11.2736,11.2736,11.2736,11.2736,11.2736,11.2736,11.254,11.1565,11.1965,11.2522,11.1452,11.1969,11.2451,11.1485,11.1219,11.0362,10.7292,10.5303,10.4114,10.3532,10.3425,10.3425,10.3425,10.3425,10.3425,10.3425,10.3425,10.3425,10.3425,10.3425,10.3639,10.4221,10.5149,10.6208,10.7284,10.8333,10.86,10.7748,10.9671,11.0927,11.1449,11.0458,11.0078,11.065,10.7619,10.5411,10.3997,10.3997,10.3997,10.3997,10.3997,10.3997,5.5741,6.0632,6.606,7.7564,8.2727,8.5794,8.8906,0.0,8.9053,8.9019,8.8832,8.8686,8.8836,9.0257,9.1197,9.0532,9.1701,9.1738,8.8742,9.0188,9.0981,8.9577,9.2944,9.5716,9.6535,9.8348,9.947,9.9356,10.11,10.2733,10.4091,10.5616,10.7078,10.8577,11.004,11.1616,11.3304,11.6473,11.7663,11.6758,11.437,11.1912,10.96,10.7059,10.5018,10.371,10.5232,10.7563,11.0401,11.0508,11.1381,11.2736,11.2736,11.2736,11.2736,11.2736,11.2736,11.2736,11.2736,11.2736,11.2736,11.2736,11.2736,11.2736,11.2736,11.2736,11.2736,11.2736,11.2736,11.2736,11.2736,11.2736,11.2736,11.2736,11.2736,11.1897,10.8879,10.6934,10.5339,10.371,10.3425,10.3425,10.3425,10.3425,10.3425,10.3425,10.3425,10.3425,10.3425,10.3496,10.4114,10.56,10.5886,10.7184,11.0116,11.0472,11.0634,11.0844,11.3531,11.4443,11.3078,11.2939,11.2106,11.0474,10.7712,10.5476,10.3997,10.3997,10.3997,10.3997,10.3997,10.3997,6.6817,7.3006,7.7488,8.5461,8.789,8.8532,8.9207,8.9186,8.8952,0.0,8.8649,8.9359,9.179,9.3659,9.4967,9.5424,9.5479,9.4738,9.2652,9.1396,9.1428,9.3564,9.4807,9.6299,9.85,9.9227,9.9508,9.947,10.2078,10.3696,10.3897,10.6367,10.7979,10.8353,10.9928,11.1611,11.3319,11.53,11.6459,11.6832,11.4789,11.353,11.2772,10.9198,10.7245,10.6899,10.7284,10.8569,11.0508,11.172,11.2415,11.2736,11.2736,11.2736,11.2736,11.2736,11.2736,11.2736,11.2736,11.2736,11.2736,11.2736,11.2736,11.2736,11.2736,11.2736,11.2736,11.2736,11.2736,11.2736,11.2736,11.2736,11.2736,11.2736,11.2736,11.2201,11.0187,10.8555,10.6648,10.3889,10.3425,10.3425,10.3425,10.3425,10.3425,10.3425,10.3425,10.3425,10.3425,10.4399,10.5267,10.5707,10.7813,10.9564,11.0365,11.1452,11.2608,11.3835,11.4686,11.4896,11.4508,11.4536,11.2652,10.8915,10.8086,10.65,10.3997,10.3997,10.3997,10.3997,10.3997,10.3997,6.7839,7.5134,8.1512,8.8156,8.9606,8.9329,8.9239,8.9021,8.884,8.8824,8.9322,9.0186,9.1679,9.3913,9.5261,9.4333,9.4556,9.4216,9.2609,9.2098,9.2781,9.5188,9.6463,9.7781,9.9274,9.947,9.9464,9.9288,10.2249,10.3909,10.3642,10.6558,10.8278,10.8278,11.0643,11.2396,11.3342,11.5217,11.6047,11.5778,11.3934,11.2843,11.2415,10.9383,10.8425,10.9081,10.8389,10.9387,11.1452,11.2415,11.2736,11.2736,11.2736,11.2736,11.2736,11.2736,11.2736,11.2736,11.2736,11.2736,11.2736,11.2736,11.2736,11.2736,11.2736,11.2736,11.2736,11.2736,11.2736,11.2736,11.2736,11.2736,11.2736,11.2736,11.2736,11.1969,10.912,10.8327,10.6981,10.3164,10.2986,10.3425,10.3425,10.3425,10.3425,10.3425,10.3425,10.3425,10.3425,10.4803,10.6018,10.6693,10.8994,11.065,11.1345,11.2183,11.3397,11.4969,11.5662,11.584,11.5104,11.577,11.3578,10.8315,10.8252,10.6829,10.3997,10.3997,10.3997,10.3997,10.3997,10.3997,6.6128,7.3653,8.1853,8.8025,8.9315,8.907,8.9156,8.8907,8.8686,0.0,9.0032,9.0899,9.0582,9.2888,9.3907,9.1318,9.2139,9.263,9.1163,9.2862,9.4684,9.5861,9.7952,9.9345,9.9352,9.9461,9.9375,9.8974,10.1741,10.346,10.3385,10.63,10.8054,10.8278,11.1541,11.3262,11.3163,11.5599,11.5899,11.4075,11.2762,11.147,11.0365,10.8835,10.8903,11.0359,10.8745,10.9813,11.2736,11.2736,11.2736,11.2736,11.2736,11.2736,11.2736,11.2736,11.2736,11.2736,11.2736,11.2736,11.2736,11.2736,11.2736,11.2736,11.2736,11.2736,11.2736,11.2736,11.2736,11.2736,11.2736,11.2736,11.2736,11.2736,11.2594,11.1238,10.6793,10.6722,10.6237,10.1848,10.2155,10.3093,10.3093,10.3318,10.3425,10.3425,10.3603,10.371,10.371,10.5267,10.6863,10.8267,10.9778,11.1238,11.2629,11.2915,11.3682,11.5255,11.6629,11.6779,11.5415,11.6429,11.4354,10.8616,10.8417,10.6896,10.4227,10.4128,10.3997,10.3997,10.3997,10.3997,7.7291,8.1588,8.4753,8.8389,8.9156,8.9007,8.9019,8.8832,8.8649,8.8686,8.9506,9.0786,9.2845,9.3953,9.4559,9.4661,9.4947,9.4805,9.3896,9.5141,9.6747,9.8443,9.9148,9.9484,9.947,9.9507,9.9386,9.8995,10.0652,10.2187,10.3382,10.529,10.6936,10.8241,11.1541,11.2967,11.2214,11.527,11.529,11.226,11.3185,11.2547,11.0365,10.8835,10.8903,11.0359,10.8745,10.9813,11.2736,11.2736,11.2736,11.2736,11.2736,11.2736,11.2736,11.2736,11.2736,11.2736,11.2736,11.2736,11.2736,11.2736,11.2736,11.2736,11.2736,11.2736,11.2736,11.2736,11.2736,11.2736,11.2736,11.2736,11.2736,11.2736,11.1827,10.9742,10.5233,10.4399,10.3594,10.032,10.0745,10.1646,10.1646,10.2665,10.3425,10.3425,10.4506,10.5303,10.5303,10.7851,10.9703,10.9974,11.1381,11.2486,11.2736,11.395,11.5327,11.6866,11.7222,11.7302,11.6992,11.5861,11.3661,11.0064,10.8863,10.7482,10.5829,10.4621,10.3997,10.3997,10.3997,10.3997,7.824,8.2253,8.5255,8.7459,8.8425,8.8832,8.8832,8.8724,8.8767,8.9219,8.9665,9.0218,9.09,9.193,9.269,9.2743,9.3749,9.441,9.4445,9.5916,9.7548,9.8967,9.9192,9.9204,9.9195,9.9212,9.9081,9.8782,10.1026,10.2298,10.2111,10.5327,10.7123,10.7085,11.068,11.2401,11.1985,11.4257,11.4188,11.1791,11.2834,11.2318,11.0401,10.9636,10.9688,11.0396,10.9652,11.0579,11.2736,11.2736,11.2736,11.2736,11.2736,11.2736,11.2736,11.2736,11.2736,11.2736,11.2736,11.2736,11.2736,11.2736,11.2736,11.2736,11.2736,11.2736,11.2736,11.2736,11.2736,11.2736,11.2736,11.2736,11.2558,11.1827,11.0493,10.8448,10.4656,10.3803,10.2963,10.0026,10.0404,10.1269,10.1228,10.244,10.3675,10.4471,10.5232,10.6054,10.6907,10.8969,11.0398,11.0365,11.1827,11.3111,11.3915,11.4683,11.6059,11.8467,11.7911,11.7397,11.7436,11.498,11.2611,11.0404,10.9661,10.8286,10.6151,10.5436,10.4785,10.3997,10.3997,10.3997,7.7636,8.1796,8.5555,8.6966,8.7714,8.8275,8.8985,8.9172,8.933,8.9736,8.9337,8.8776,8.8297,8.8951,8.9642,9.0092,9.1723,9.326,9.4337,9.621,9.7816,9.8818,9.9006,9.9001,9.8929,9.8954,9.8856,9.8557,10.0912,10.1922,10.0952,10.4916,10.6891,10.6172,10.9906,11.1935,11.1895,11.3318,11.3197,11.1452,11.2359,11.1914,11.0401,11.0401,11.0436,11.0413,11.0383,11.1274,11.2736,11.2736,11.2594,11.2219,11.2219,11.2232,11.2322,11.2304,11.244,11.2736,11.2736,11.2736,11.2736,11.2736,11.2736,11.2736,11.2736,11.2736,11.2736,11.2736,11.2736,11.2665,11.2379,11.2219,11.1805,11.0039,10.873,10.7093,10.4096,10.3124,10.2053,9.955,10.0089,10.0806,10.085,10.2512,10.4328,10.5564,10.6304,10.7206,10.8409,10.992,11.0953,11.0953,11.2005,11.3397,11.4933,11.5415,11.6661,11.9024,11.8027,11.7301,11.6848,11.4033,11.1977,11.0873,11.0621,10.9178,10.655,10.6222,10.5341,10.3997,10.3997,10.3701,8.1255,8.4195,8.7066,8.8471,8.7565,8.7153,9.0257,9.093,9.06,8.9369,8.7243,8.6015,8.7321,8.5989,8.5941,8.9633,9.0976,9.2254,9.4235,9.6337,9.8049,9.8855,9.9156,9.9193,9.8968,9.8969,9.8856,9.8557,9.8819,9.9529,10.0838,10.2782,10.4774,10.6763,11.0175,11.1835,11.1607,11.3282,11.29,11.0543,11.2094,11.1898,11.0401,11.0401,11.0401,11.0455,11.0401,11.1274,11.2736,11.2736,11.1969,11.0757,11.0757,11.084,11.0758,11.0807,11.1657,11.2736,11.2736,11.2736,11.2736,11.2736,11.2736,11.2736,11.2736,11.2736,11.2736,11.2736,11.2736,11.2486,11.1131,11.0757,11.0091,10.7245,10.6394,10.5543,10.2521,10.0918,9.9478,9.7853,9.8667,9.9535,9.9512,10.2843,10.56,10.5743,10.817,11.001,11.0187,11.1613,11.2558,11.2558,11.2665,11.3397,11.4933,11.6403,11.7363,11.7586,11.7537,11.6723,11.5122,11.3534,11.248,11.2381,11.1081,10.9668,10.8048,10.6797,10.5379,10.3997,10.3997,10.298,7.7133,8.07,8.3716,8.3185,8.4611,8.6443,8.7789,8.8284,8.8748,8.9651,8.7721,8.5676,8.5138,8.4456,0.0,8.7429,9.0226,9.2648,9.4265,9.6641,9.8392,9.8669,9.8819,9.8856,9.8707,9.8707,9.8669,9.8557,9.9417,10.0007,10.0189,10.2673,10.4761,10.6182,10.8925,11.0695,11.1562,11.2711,11.2812,11.1827,11.2486,11.2451,11.1862,11.2825,11.2718,11.1898,11.286,11.3039,11.2736,11.2736,11.1848,11.061,11.0568,10.9986,10.9378,11.0306,11.0951,11.1576,11.246,11.2736,11.2736,11.2736,11.2736,11.2736,11.2736,11.2736,11.2736,11.2736,11.2112,11.1309,11.0721,10.9945,10.8469,10.5565,10.4917,10.4523,10.3373,10.1899,10.0687,10.0026,10.1129,10.1979,10.2048,10.4874,10.7138,10.7142,10.9013,11.0721,11.172,11.2379,11.2736,11.2736,11.3575,11.4826,11.6365,11.7887,11.8846,11.8846,11.7862,11.6226,11.357,11.291,11.2513,11.2513,11.1996,11.0514,10.8276,10.8576,10.7486,10.5278,10.6233,10.5447,7.4367,7.8122,8.1636,8.0734,8.2121,8.4331,8.6721,8.6982,8.7293,8.9522,8.6957,8.418,8.3989,8.3491,0.0,8.7176,9.0723,9.361,9.5168,9.7186,9.8557,9.8557,9.8557,9.8557,9.8557,9.8557,9.8557,9.8557,10.0015,10.0373,9.9114,10.2548,10.4825,10.539,10.7868,11.0133,11.1909,11.2446,11.2736,11.2736,11.2736,11.2736,11.2808,11.4377,11.4235,11.2808,11.4413,11.4199,11.2736,11.2736,11.1588,10.995,10.986,10.9029,10.7856,10.9297,11.0199,11.0786,11.2274,11.2736,11.2736,11.2736,11.2736,11.2665,11.2183,11.2451,11.252,11.1637,11.1068,11.0414,10.9512,10.8144,10.6565,10.449,10.3997,10.3997,10.3997,10.2816,10.1701,10.1693,10.2463,10.3234,10.3765,10.6188,10.8291,10.8658,11.0152,11.1452,11.2629,11.2736,11.2736,11.2736,11.4165,11.5541,11.6666,11.86,11.9308,11.8358,11.7725,11.5937,11.2611,11.2513,11.2513,11.2513,11.2513,11.1337,10.8876,10.9936,10.9206,10.6755,10.7877,10.6824,7.49,7.8059,8.2161,8.3409,8.0837,8.0139,8.8136,8.8277,8.7122,8.8711,8.3998,8.0709,8.4434,8.3011,0.0,8.9925,9.2933,9.5107,9.7069,9.8052,9.8557,9.8557,9.8557,9.8557,9.8557,9.8557,9.8557,9.8557,10.0015,9.9888,9.7567,10.2005,10.4599,10.457,10.7646,11.0396,11.2665,11.2736,11.2736,11.2736,11.2736,11.2736,11.2808,11.4377,11.4235,11.2808,11.4413,11.4199,11.2736,11.2736,11.0954,10.8284,10.8318,10.7454,10.6368,10.7759,10.9261,11.0863,11.2211,11.2736,11.2736,11.2736,11.2736,11.2486,11.106,11.1648,11.2175,10.9183,10.9412,10.995,10.6957,10.5049,10.403,10.3997,10.3997,10.3997,10.3997,10.2816,10.1604,10.1735,10.1735,10.2193,10.3569,10.6327,10.8764,11.0223,11.1755,11.2736,11.2736,11.2736,11.2736,11.2736,11.4165,11.5091,11.5122,11.8003,11.8358,11.5132,11.6452,11.5937,11.2611,11.2513,11.2513,11.2513,11.2513,11.1853,11.0438,11.0471,10.9611,10.8304,10.8304,10.6007,7.4265,7.72,8.0329,8.1076,8.0386,8.1105,8.7186,8.6838,8.5679,8.723,8.5068,8.3079,8.3598,8.4437,0.0,0.0,9.3389,9.5676,9.7178,9.808,9.8557,9.8557,9.8557,9.8557,9.8557,9.8557,9.8557,9.8557,9.8537,9.8854,9.9758,10.1742,10.4094,10.6884,10.8998,11.0943,11.2701,11.2736,11.2736,11.2736,11.3842,11.3771,11.2843,11.6589,11.6232,11.2879,11.5519,11.5198,11.2736,11.2736,11.2175,11.1184,10.9077,10.6793,10.4989,10.7381,10.8635,10.9324,11.1861,11.2736,11.2611,11.1578,11.199,11.2323,10.9732,11.0043,11.0799,10.8861,10.7951,10.7076,10.5162,10.4391,10.3997,10.3997,10.3997,10.3997,10.3997,10.357,10.3307,10.3307,10.4063,10.5148,10.6631,10.8464,11.0388,11.1734,11.2451,11.2736,11.2736,11.2736,11.2736,11.2736,11.5076,11.7059,11.8241,11.9226,11.8869,11.6752,11.6078,11.476,11.2578,11.2513,11.2513,11.2513,11.3553,11.3298,11.1919,11.2784,11.258,11.1197,11.1197,10.9605,7.4622,7.746,8.0105,8.1555,8.0287,7.9517,8.2672,8.234,8.1489,8.2161,8.2441,8.2253,8.1422,8.5114,8.9243,9.2177,9.5145,9.7238,9.7771,9.8243,9.8557,9.8557,9.8557,9.8557,9.8557,9.8284,9.8122,9.8131,9.8521,9.928,10.0397,10.2643,10.5207,10.8005,10.9597,11.1166,11.2736,11.2736,11.2736,11.2736,11.4342,11.4591,11.3735,11.7267,11.6946,11.3735,11.5697,11.4841,11.1969,11.2558,11.2451,11.1663,10.922,10.6472,10.4322,10.6557,10.7839,10.8612,11.1122,11.2303,11.252,11.106,11.1254,11.1351,10.8428,10.8572,10.925,10.7285,10.6435,10.5843,10.4352,10.3997,10.3997,10.3997,10.3997,10.3997,10.3997,10.3997,10.3997,10.3997,10.4687,10.5903,10.7889,10.914,11.0438,11.2465,11.2736,11.2736,11.2736,11.2736,11.2736,11.2736,11.5005,11.6916,11.786,11.9086,11.8559,11.5755,11.4573,11.3553,11.2545,11.2513,11.2852,11.3421,11.4222,11.4542,11.4116,11.4524,11.4181,11.3381,11.283,11.1336,7.5548,7.833,8.0978,8.3868,8.0509,7.6559,7.6628,7.6412,7.5818,7.4962,7.7046,7.8775,7.8273,8.4634,9.1084,9.4497,9.7697,9.9567,9.9006,0.0,9.9044,9.8931,9.8931,9.8819,9.8482,9.7787,9.7413,9.7472,9.9574,10.0616,10.005,10.4389,10.7255,10.817,10.9775,11.1273,11.2736,11.2736,11.2772,11.2915,11.452,11.5269,11.5341,11.6982,11.6675,11.4907,11.5198,11.3538,11.0702,11.2038,11.1789,11.047,10.8803,10.6523,10.4289,10.5694,10.6993,10.8318,10.9915,11.1351,11.2303,11.0828,11.0393,11.0052,10.691,10.6993,10.7534,10.4769,10.4956,10.5694,10.4322,10.3997,10.3997,10.3997,10.3997,10.3997,10.3997,10.3997,10.3997,10.3997,10.4095,10.4968,10.7826,10.84,10.9412,11.2287,11.2736,11.2736,11.2736,11.2736,11.2772,11.2879,11.4343,11.5305,11.5406,11.8047,11.7694,11.2803,11.2513,11.2513,11.2513,11.2611,11.328,11.4585,11.4959,11.5636,11.6982,11.5483,11.4779,11.4834,11.3297,11.1493,7.4119,7.655,7.8876,8.0265,8.1056,8.148,8.1444,7.9084,7.643,7.5021,7.521,7.5898,7.6483,8.0594,0.0,9.3688,9.8105,10.0989,10.2112,10.3386,10.3723,10.2412,10.2262,10.1064,9.7959,9.7506,9.7646,9.8247,9.8267,9.9765,10.3299,10.5066,10.7162,10.9813,11.1363,11.2379,11.2736,11.2736,11.3361,11.4522,11.6146,11.6875,11.6982,11.9729,11.826,11.3594,11.5833,11.4494,11.061,11.096,11.0933,11.0343,10.7636,10.6235,10.5622,10.6012,10.6319,10.691,10.8318,10.9777,11.0693,10.8019,10.8715,10.9846,10.5761,10.5481,10.6233,10.4546,10.4192,10.4418,10.4095,10.3997,10.3997,10.3997,10.3997,10.3997,10.3997,10.3997,10.3997,10.3997,10.4863,10.618,10.8,10.9324,11.068,11.2485,11.2736,11.2736,11.2736,11.2736,11.32,11.4413,11.5911,11.7374,11.854,11.9285,11.7728,11.2869,11.2513,11.2513,11.2513,11.3598,11.4354,11.4716,11.6934,11.8332,11.8647,11.708,11.6384,11.6212,11.3684,11.2287,7.4685,7.7851,8.0323,7.8704,7.8639,7.8388,7.6394,7.3974,7.1969,7.1272,7.1736,7.3028,7.5968,7.8691,8.3056,9.0922,0.0,10.0128,10.1023,10.259,10.3557,0.0,0.0,10.0765,9.9717,9.7954,9.7197,9.794,9.8685,10.082,10.484,10.6897,10.8977,11.1381,11.2254,11.2736,11.2736,11.3468,11.4236,11.5076,11.741,11.8528,11.8469,11.9455,11.778,11.4069,0.0,11.2701,10.8617,11.0012,10.9742,10.8351,10.6794,10.6134,10.6049,10.5414,10.5174,10.5391,10.6793,10.8681,11.019,10.7907,10.8208,10.8932,10.5938,10.5082,10.4956,10.4225,10.3997,10.3997,10.3997,10.3997,10.3997,10.3997,10.3997,10.3997,10.3997,10.3997,10.4225,10.4863,10.5604,10.6793,10.9005,11.0052,11.106,11.252,11.2736,11.2736,11.2736,11.2736,11.3343,11.4912,11.6482,11.7733,11.8567,11.862,11.7248,11.3839,11.2869,11.2841,11.3499,11.4288,11.5373,11.6672,11.8332,11.9516,12.0099,11.7928,11.6816,11.6804,11.3926,11.2513,7.6326,8.0903,8.4191,7.9786,7.6693,7.384,7.0226,6.7938,6.6865,6.7595,6.8642,7.0812,7.539,7.7648,8.0783,8.6909,9.3281,9.7959,0.0,0.0,10.2444,10.3487,0.0,9.964,10.0989,9.8463,9.7132,9.7887,10.0365,10.3141,10.6273,10.8977,11.1131,11.2701,11.2736,11.2843,11.3147,11.4379,11.5327,11.5808,11.822,11.9654,12.001,11.8006,11.6598,11.5482,0.0,11.0443,10.6993,10.9365,10.8586,10.6047,10.5944,10.5783,10.5727,10.4418,10.3997,10.4225,10.5391,10.7602,10.9708,10.8318,10.7951,10.7726,10.6557,10.5174,10.3997,10.3997,10.3997,10.3997,10.3997,10.3997,10.3997,10.3997,10.3997,10.3997,10.3997,10.4225,10.4641,10.5904,10.6438,10.7602,11.019,11.0728,11.1351,11.252,11.2736,11.2736,11.2736,11.2736,11.3521,11.559,11.6982,11.8038,11.8839,11.8211,11.7017,11.537,11.369,11.3433,11.465,11.4716,11.6129,11.9088,11.9384,12.0075,12.1258,11.823,11.6885,11.682,11.3848,11.2513,7.8324,8.4657,9.0262,8.6261,8.1998,7.8548,7.7568,7.2654,6.8741,7.0461,7.0713,7.1065,7.2708,7.579,7.915,8.2397,8.8203,9.5216,10.3639,10.6153,10.6493,10.477,10.2877,0.0,9.65,9.7964,9.9543,10.0482,10.3328,10.635,10.9511,11.0152,11.1131,11.2701,11.2736,11.3397,11.4755,11.4969,11.636,11.9039,11.8109,11.9131,12.1558,11.7505,11.6236,11.705,0.0,0.0,10.9891,10.9009,10.7602,10.5953,10.4775,10.4322,10.4322,10.4128,10.3997,10.3997,10.4225,10.5391,10.6793,10.6557,10.6438,10.6438,10.6233,10.5174,10.3997,10.3997,10.3997,10.3997,10.3997,10.3997,10.3997,10.3997,10.3997,10.3997,10.3997,10.4956,10.5938,10.6113,10.8165,11.0052,11.0528,11.1578,11.252,11.2736,11.2736,11.2736,11.2736,11.2736,11.4342,11.8551,11.9229,12.1024,12.5135,12.1784,11.8715,11.712,11.5389,11.4485,11.4716,11.4716,11.6129,11.9088,12.0338,12.1061,12.1258,11.8332,11.6886,11.682,11.3894,11.2513,8.0339,8.6829,9.3025,8.9479,8.4771,8.0913,8.0663,7.5685,7.1286,7.2179,7.2156,7.2256,7.3365,7.5267,7.8297,8.3582,8.8226,9.4303,0.0,0.0,10.7392,10.5034,10.2469,10.0023,0.0,9.8958,10.0104,10.0994,10.4742,10.8032,11.0294,11.1203,11.2005,11.2736,11.2736,11.3504,11.5041,11.6789,11.7863,11.8465,11.8571,11.8523,11.8331,11.5399,11.3946,11.3699,11.2161,11.0612,10.9254,10.8577,10.7435,10.595,10.4579,10.3997,10.3997,10.3997,10.3997,10.3997,10.3997,10.4418,10.5299,10.6793,10.6793,10.6199,10.7109,10.6264,10.5148,10.5148,10.5148,10.5379,10.6153,10.5774,10.5174,10.5174,10.5174,10.5374,10.6208,10.6901,10.7894,10.9445,11.0961,11.1811,11.1814,11.2303,11.2736,11.2736,11.2736,11.3057,11.3914,11.3271,11.4841,12.0442,12.0228,12.1292,12.5225,12.3495,12.1489,12.0037,11.6643,11.4716,11.4716,11.5439,11.6886,11.9121,12.0535,12.1258,12.1258,11.8266,11.682,11.6754,11.3861,11.3439,8.5189,0.0,9.6314,9.325,8.9062,8.5286,0.0,7.9471,7.5537,7.4672,7.4044,7.388,7.4787,7.5405,7.7938,8.447,8.8365,9.3463,10.1663,10.5661,0.0,10.6082,10.2755,10.077,10.1204,10.1204,10.1638,10.2633,10.6757,10.9707,11.0918,11.2076,11.2736,11.2736,11.3147,11.4075,11.561,11.8362,11.9308,11.85,11.8979,11.8176,11.6286,11.357,11.2229,11.2163,11.0981,11.0,10.9258,10.8881,10.7754,10.6037,10.4983,10.4227,10.3997,10.3997,10.3997,10.403,10.4391,10.4293,10.4355,10.6997,10.6861,10.5904,10.7306,10.7756,10.7778,10.7778,10.7512,10.7435,10.858,10.7793,10.6675,10.6675,10.6675,10.7082,10.8691,10.9269,11.0272,11.302,11.3458,11.339,11.3268,11.3307,11.3164,11.2808,11.3343,11.4163,11.5019,11.4663,11.6518,12.2083,12.1941,12.2687,12.5818,12.524,12.3996,12.2225,11.8026,11.5603,11.5242,11.659,11.8102,11.9615,12.07,12.1258,12.1258,11.9008,11.809,11.853,11.56,11.5784,0.0,10.0012,10.2225,9.9792,9.7845,9.5061,8.9564,8.5873,0.0,7.9339,7.7145,7.5855,7.5905,7.643,7.801,8.1607,8.5939,9.1707,9.9888,10.3985,0.0,0.0,10.564,0.0,10.4385,10.5,10.5904,10.7468,11.0579,11.2486,11.2594,11.2701,11.2736,11.2736,11.4165,11.5662,11.7256,11.8882,12.0464,12.1737,11.8932,11.8285,11.9246,11.324,11.2893,0.0,11.2264,11.1206,11.2325,11.0807,10.8549,10.6136,10.6037,10.5148,10.3997,10.3997,10.3997,10.4194,10.5509,10.5082,10.4227,10.5741,10.528,10.4451,10.5783,10.9302,11.2676,11.2676,11.1462,11.0294,11.0408,10.9308,10.8062,10.8062,10.8062,10.8586,11.0098,11.158,11.3089,11.4836,11.4963,11.4964,11.4948,11.4912,11.4449,11.295,11.5234,11.6589,11.5269,11.7517,12.0549,12.4046,12.5615,12.772,13.0827,12.8069,12.5064,12.2294,12.0002,11.8201,11.6721,11.8168,11.9647,12.1094,12.1226,12.1258,12.1258,12.1358,12.2084,12.3652,12.063,12.017,10.0122,10.4387,10.6602,10.4614,10.1693,9.8048,9.3424,8.8853,8.4559,8.0856,7.8625,7.7053,7.6132,7.7427,8.0282,8.5556,8.9382,9.4894,10.417,0.0,0.0,11.013,0.0,0.0,0.0,10.5636,10.7456,10.8036,11.0989,11.2736,11.2736,11.2736,11.3611,11.5595,11.7171,11.8259,11.8882,12.0464,12.0962,12.0606,11.848,11.6723,11.5266,11.1945,11.1423,11.2923,11.1123,11.1277,0.0,11.2011,11.0604,10.8813,10.8912,10.7953,10.6664,10.6664,10.7341,10.8156,10.8693,10.9289,10.981,11.0302,11.0764,11.0944,11.0595,11.2602,11.5146,11.6054,11.5871,11.5469,11.6445,11.5083,11.3194,11.2292,11.158,11.1624,11.3122,11.3929,11.5076,11.754,11.727,11.6232,11.5269,11.5091,11.4912,11.4306,11.6054,11.7552,11.7945,11.898,12.1334,12.558,12.6579,12.822,13.1288,12.8432,12.5454,12.3549,12.0739,11.8891,11.8299,11.8858,12.0345,12.2783,12.2816,12.3469,12.4454,12.4522,12.4397,12.4203,12.2102,12.3093,10.4717,10.8442,11.0506,10.9337,10.6378,10.2456,9.7413,9.2394,8.7345,8.2483,7.9598,7.7652,7.6658,7.8121,8.1656,8.8179,9.2084,9.7769,10.7657,0.0,0.0,0.0,0.0,0.0,0.0,0.0,10.9493,10.992,11.172,11.2915,11.3468,11.3468,11.4468,11.661,11.8709,11.9703,11.9761,12.1309,12.1523,12.0499,11.8393,11.6258,11.4156,11.2009,11.1146,11.1146,11.1146,11.1911,11.3214,11.3421,11.254,11.124,11.1253,11.0073,10.8381,10.9206,11.0014,11.0711,11.1993,11.3028,11.3675,11.412,11.4845,11.5273,11.4387,11.6319,11.9114,12.0177,12.0027,11.9842,12.0864,11.9412,11.753,11.6487,11.6108,11.6406,11.744,11.8083,11.9015,12.1117,11.9968,11.8246,11.7206,11.6793,11.6411,11.5911,11.7588,11.9301,12.0335,12.137,12.3475,12.7292,12.8113,12.9254,13.1395,12.8856,12.6644,12.5085,12.2693,12.1258,12.079,12.1224,12.2429,12.4592,12.4592,12.5235,12.6348,12.6892,12.6748,12.5743,12.5306,12.7069,11.0049,11.2834,11.4125,11.4125,11.2653,10.9316,10.1957,9.7075,9.202,8.4726,8.0156,7.7539,7.7524,7.8611,8.1656,8.8143,9.3063,9.9492,10.9382,11.2228,0.0,0.0,0.0,0.0,11.4735,11.2842,11.2451,11.4058,11.329,0.0,11.4969,11.5076,11.507,11.5096,11.8145,11.9761,11.9761,12.1309,12.2083,12.2083,11.8917,11.7422,11.7249,11.4057,11.2513,11.2545,11.2545,11.3487,0.0,11.4968,11.4218,11.2925,11.3047,11.1036,10.8703,11.1278,11.156,11.1269,11.5303,11.5764,11.4801,11.6249,11.6501,11.6145,11.6145,12.0423,12.5195,12.526,12.3985,12.2729,12.2729,12.1525,12.0401,12.0399,12.162,12.2791,12.264,12.3978,12.5172,12.5151,12.308,12.1345,12.1262,12.0418,11.9229,11.766,12.0085,12.2083,12.2119,12.4937,12.7542,12.9076,13.0646,13.1573,13.1573,13.0063,12.8377,12.6843,12.6525,12.5694,12.4341,12.5557,12.6348,12.6314,12.6314,12.6442,12.6442,12.8228,12.9195,12.916,13.0829,13.2429,11.2222,11.4998,11.6441,11.6441,11.4,10.9682,0.0,9.6395,9.056,8.443,8.0201,7.7588,7.7575,7.9512,8.2903,8.8328,9.4058,10.0227,10.7105,11.107,0.0,0.0,0.0,0.0,0.0,11.4952,11.5767,11.681,11.4898,11.395,11.4343,11.5488,11.6717,11.8287,11.9237,12.0321,12.138,12.1808,12.2083,12.2083,11.8917,11.7422,11.7249,11.4057,11.3115,11.4189,11.4189,11.52,0.0,11.7797,11.7118,11.5627,11.7906,11.7351,11.5385,11.7266,11.8438,11.928,12.0487,12.1368,12.2102,12.248,12.2578,12.2725,12.4149,12.5812,12.7259,12.7233,12.6883,12.6473,12.6473,12.56,12.4421,12.3343,12.3798,12.4164,12.2967,12.3937,12.5197,12.5196,12.3621,12.2072,12.1368,12.1071,12.0382,11.9194,12.0763,12.2511,12.3689,12.5651,12.7542,12.9076,13.0646,13.1573,13.1573,13.0085,12.8831,12.8377,12.7149,12.6142,12.5694,12.6107,12.7307,12.9321,12.9321,13.0366,13.2226,13.2776,13.2644,13.1958,13.3538,13.4176,11.4466,11.6825,11.8285,11.837,11.6053,11.1863,10.4793,0.0,9.0936,8.4876,7.9894,7.6885,7.7791,8.0636,8.4981,9.1494,9.7584,10.3586,10.9556,0.0,0.0,0.0,0.0,0.0,0.0,0.0,11.8143,11.7585,11.5762,11.4813,11.5141,11.6328,11.7707,11.9288,11.999,12.0855,12.2083,12.2083,12.2083,12.2083,11.8917,11.77,11.8263,11.4893,11.4321,11.5913,11.5927,11.6894,0.0,11.9823,11.9583,11.8576,12.0886,12.0656,11.9158,12.1169,12.2227,12.2796,12.3822,12.4849,12.5747,12.5766,12.6026,12.655,12.7758,12.8094,12.8094,12.8094,12.8094,12.8094,12.8094,12.7614,12.7104,12.6774,12.7469,12.8,12.6949,12.8105,12.8863,12.754,12.6158,12.4794,12.3567,12.3076,12.2501,12.143,12.2109,12.3332,12.5258,12.6371,12.773,12.9968,13.1002,13.1573,13.1573,13.1174,13.1009,13.1023,13.0013,12.9534,12.995,12.9421,13.0083,13.2226,13.2262,13.3064,13.4733,13.4331,13.4106,13.4116,13.4597,13.5261,11.6499,11.8267,11.9623,11.9892,11.8263,11.4876,10.8253,0.0,0.0,8.5761,7.9656,7.6146,7.7935,8.1761,8.7381,9.594,10.2448,10.8567,0.0,0.0,0.0,0.0,0.0,0.0,0.0,0.0,0.0,11.7232,11.6404,11.6272,11.6944,11.7401,11.8034,11.8876,12.0212,12.1344,12.2226,12.2119,12.2083,12.2083,11.8917,11.823,11.9613,11.6405,11.5943,11.7697,11.7633,11.85,0.0,12.1131,12.149,12.1567,12.2582,12.2112,12.1135,12.3649,12.3997,12.35,12.5877,12.6662,12.6662,12.6662,12.7346,12.8132,12.8132,12.8132,12.8169,12.8169,12.8132,12.8132,12.8132,12.8094,12.8431,12.9864,13.1634,13.2981,13.2963,13.4277,13.4453,13.1061,12.9804,12.8641,12.6844,12.5897,12.4922,12.3777,12.3777,12.4572,12.665,12.7057,12.8234,13.1288,13.1573,13.1573,13.1573,13.3139,13.4101,13.4137,13.4208,13.4672,13.564,13.4128,13.3754,13.4819,13.4819,13.4856,13.5043,13.3986,13.4191,13.5601,13.4758,13.5855,11.6473,11.8244,11.9612,11.9893,11.8263,11.4868,10.822,10.1615,0.0,0.0,8.0853,7.7553,7.6706,0.0,8.8397,0.0,10.3557,11.14,0.0,0.0,0.0,0.0,0.0,0.0,0.0,0.0,0.0,0.0,11.942,11.9391,11.8261,11.7466,11.7944,11.993,11.9524,12.057,12.3251,12.2476,12.2083,12.2083,11.8917,11.823,11.9587,11.6398,11.6485,11.9226,11.9233,12.0082,12.163,12.2654,12.2862,12.2598,12.4855,12.5204,12.4669,12.655,12.7159,12.6998,12.7571,12.7758,12.7758,12.7758,12.8057,12.8393,12.8393,12.8618,12.8891,12.8891,12.8618,12.8393,12.8393,12.8244,12.8169,12.8505,13.081,13.2963,13.2948,13.4286,13.4473,13.1081,13.0266,12.9375,12.6918,12.6378,12.5685,12.3917,12.4696,12.584,12.6793,12.7979,12.9511,13.1395,13.1573,13.1573,13.1573,13.3886,13.5281,13.5283,13.6069,13.6603,13.6894,13.5219,13.4827,13.5912,13.5971,13.6343,13.7125,13.6101,13.5973,13.6749,13.6895,13.7517,11.7326,11.8698,11.963,12.0845,12.0047,11.7866,11.3621,0.0,0.0,0.0,8.7514,8.3217,8.1872,0.0,0.0,9.8069,0.0,0.0,0.0,0.0,0.0,0.0,0.0,0.0,0.0,0.0,0.0,0.0,11.9794,12.0445,12.1127,12.1082,12.1718,12.3223,12.1244,12.1292,12.3634,12.3073,12.2511,12.2083,11.969,11.9395,12.0739,11.8851,11.9273,12.1665,12.2965,12.3465,12.3741,12.5508,12.5584,12.4707,12.655,12.7122,12.6886,12.7758,12.8094,12.8094,12.8094,12.8094,12.8393,13.0126,13.0811,13.0927,13.1026,13.1252,13.1252,13.0496,13.0155,12.9765,12.8724,12.9003,12.9265,12.8319,13.1221,13.3935,13.3113,13.4884,13.5856,13.3321,13.2207,13.096,12.8816,12.7795,12.7012,12.6333,12.6549,12.7226,12.8612,13.0574,13.2177,13.3031,13.3103,13.3389,13.4244,13.6278,13.7832,13.8609,13.9179,13.9382,13.9075,13.7512,13.6786,13.6977,13.703,13.7292,13.7815,13.6268,13.6425,13.8157,13.744,13.8033,11.7999,11.9151,11.9668,12.1908,12.1984,12.1092,11.9517,11.4876,0.0,0.0,9.5472,9.0272,8.9176,9.1694,9.6258,10.3153,0.0,0.0,0.0,0.0,12.4744,0.0,0.0,0.0,0.0,0.0,0.0,0.0,11.9782,12.1223,12.3875,12.532,12.6293,12.6779,12.4206,12.321,12.4121,12.3801,12.318,12.2333,12.082,12.0936,12.2316,12.1934,12.2632,12.441,12.6538,0.0,12.5798,12.8126,12.8097,12.6624,12.7683,12.8094,12.8094,12.8094,12.8094,12.8132,12.8393,12.8505,12.9078,13.2457,13.3577,13.366,13.3965,13.4057,13.3829,13.2538,13.2158,13.1709,12.9885,13.0644,13.1372,12.9403,13.2581,13.5535,13.3852,13.5871,13.7554,13.5893,13.4114,13.242,13.0736,12.9153,12.8319,12.9003,12.8609,12.8936,13.082,13.3171,13.4681,13.4681,13.4934,13.5715,13.7076,13.9113,14.0778,14.2132,14.2359,14.2154,14.1459,13.9925,13.8638,13.7853,13.7815,13.7815,13.7815,13.619,13.6821,13.9285,13.7739,13.8375,11.7326,11.9151,11.9668,12.1908,12.1984,12.1083,11.9507,11.6933,11.2905,10.5774,0.0,9.6009,9.4371,9.6833,10.0985,10.6711,0.0,12.2495,12.4644,12.7533,12.9041,12.7907,12.6475,12.5118,12.4109,12.2652,12.1224,11.9933,12.2249,12.3788,12.3991,12.6637,12.8042,12.793,12.7481,12.6898,12.6175,12.4496,12.3501,12.3394,12.2297,12.2359,12.3448,12.3412,12.4661,12.6994,12.7385,12.7422,12.7324,12.8557,12.8086,12.6624,12.7683,12.8094,12.8094,12.8094,12.8094,12.8281,12.9639,13.0088,13.05,13.2791,13.3675,13.3955,13.4321,13.4588,13.474,13.4512,13.4284,13.3979,13.3353,13.4223,13.4715,13.2791,13.5212,13.7535,13.5871,13.7254,13.8227,13.6192,13.4271,13.2417,13.0724,12.9153,12.8319,12.9003,13.012,13.1174,13.2045,13.3669,13.4714,13.4714,13.6039,13.6969,13.7252,14.084,14.3197,14.3367,14.4283,14.4134,14.2714,14.1031,13.9401,13.7853,13.7815,13.7815,13.7815,13.8159,13.8602,13.9382,13.9667,14.0202,11.3528,11.7034,11.9933,12.3085,12.2667,12.1804,12.2999,12.1509,11.8388,11.3417,10.9183,0.0,0.0,0.0,0.0,0.0,0.0,0.0,12.5191,12.6799,12.7795,0.0,12.5989,0.0,12.4066,12.2671,12.13,0.0,12.4337,12.7754,12.949,13.1379,13.194,13.0879,13.1758,13.1098,12.8779,12.7381,12.6418,12.5759,12.4517,12.4572,12.58,12.5421,12.6419,12.8468,0.0,13.0558,13.0692,13.2108,13.111,12.8816,12.9228,12.8891,12.8094,12.8094,12.8094,12.8319,12.9864,13.1048,13.2231,13.4473,13.5867,13.6866,13.7398,13.7625,13.7549,13.66,13.6259,13.5803,13.4322,13.5766,13.7059,13.4876,13.6985,13.9107,13.7613,13.8028,13.8466,13.7784,13.6005,13.4024,13.2158,13.0511,12.949,12.9789,13.0722,13.2035,13.3906,13.5497,13.6454,13.6454,13.7965,13.9386,14.0286,14.2901,14.4918,14.5872,14.6358,14.5498,14.2956,14.2115,14.0539,13.789,13.7815,13.7815,13.7815,13.7565,13.8098,13.939,13.9052,13.9703,10.9108,11.3207,11.7314,12.2439,12.2249,12.1729,12.5112,12.4419,12.239,11.9929,11.6497,11.3424,0.0,0.0,0.0,11.5225,11.9616,0.0,12.59,12.6562,0.0,12.7982,0.0,12.4317,12.4662,12.346,0.0,0.0,12.7109,13.1355,13.3828,13.5333,13.5519,13.4233,13.5018,13.4249,13.1771,13.0188,12.8717,12.7255,12.625,12.628,12.726,12.7617,12.8618,13.02,13.2604,13.3636,13.371,13.4951,13.3505,13.0412,13.0425,12.949,12.8094,12.8094,12.8094,12.8319,12.9864,13.1534,13.3352,13.5706,13.7596,13.9106,13.9751,13.9941,13.9676,13.8423,13.8081,13.7625,13.5727,13.7404,13.9102,13.7172,13.8653,14.0207,13.9312,13.884,13.8641,13.8929,13.7628,13.5908,13.3954,13.1858,13.0437,13.0437,13.1184,13.2515,13.457,13.6566,13.7815,13.7815,13.9701,14.1496,14.2751,14.4714,14.6358,14.7649,14.7723,14.6433,14.3611,14.305,14.1459,13.8526,13.804,13.7815,13.7815,13.7479,13.8024,13.9333,13.9049,13.9667,10.4699,10.7341,10.9721,11.8111,11.963,11.9991,12.339,12.356,12.3028,12.2839,11.891,11.6486,0.0,0.0,11.6915,12.1801,12.545,12.7795,12.7945,12.9265,12.9677,0.0,0.0,0.0,0.0,0.0,0.0,12.6995,0.0,13.3759,13.3941,13.6304,13.7666,13.7591,13.6192,13.5407,13.5258,13.1977,12.9124,12.6609,12.7159,12.7121,12.6721,12.9777,13.1709,13.2881,13.46,13.537,13.5407,13.5445,13.3486,13.0431,13.0412,12.949,12.8094,12.8094,12.8094,12.8319,12.9864,13.1522,13.3318,13.5684,13.7596,13.9106,13.9751,13.9941,13.9941,13.9865,13.9827,13.9676,13.8916,13.9965,14.101,14.0267,14.0472,14.0958,14.1153,13.9978,13.8954,13.8987,13.8587,13.7628,13.5706,13.2581,13.0437,13.0437,13.1821,13.2931,13.3075,13.5856,13.7815,13.7815,14.0801,14.2784,14.29,14.5779,14.7649,14.7723,14.7723,14.6976,14.5199,14.363,14.2023,14.0211,13.8622,13.7815,13.7815,13.9364,13.9888,13.9406,14.1,14.1348,10.1531,10.532,10.8923,11.6441,11.7048,11.6728,12.0119,12.1232,12.1831,12.2832,12.2465,12.2428,12.3635,12.1925,12.1344,12.4206,12.5701,12.6849,12.7945,12.7646,12.7496,12.8019,12.6101,12.5231,0.0,0.0,0.0,13.2272,13.436,13.6034,13.7097,13.7591,13.7815,13.7815,13.7292,13.6993,13.6993,13.4757,13.2679,13.0661,12.8942,12.9166,13.1035,13.111,13.2482,13.4862,13.5295,13.6043,13.6993,13.6993,13.513,13.2313,13.2118,13.0524,12.8319,12.8132,12.8094,12.8169,12.8779,13.0886,13.3517,13.4515,13.6821,13.9334,13.9789,13.9941,13.9941,13.9941,13.9941,13.9789,13.9144,14.0154,14.1437,14.187,14.122,14.0902,14.2298,14.0697,13.8997,13.8965,13.8862,13.8451,13.7554,13.4389,13.1335,12.9265,13.1222,13.2981,13.2963,13.6715,13.9439,13.9439,14.2656,14.4732,14.4714,14.705,14.8359,14.8097,14.8097,14.7237,14.5312,14.3685,14.2079,14.036,13.8659,13.7815,13.7815,13.8413,13.8413,13.7874,13.8473,13.8482,9.4838,9.8597,10.2963,10.9721,11.1505,11.2478,11.5762,11.7782,11.9503,12.1065,12.2278,12.3399,12.4515,12.3784,12.3612,12.5267,12.6064,12.6811,12.7945,12.7159,12.6849,12.8057,12.6736,0.0,0.0,0.0,0.0,13.5006,13.6486,13.7778,13.8907,13.8227,13.7815,13.7815,13.7815,13.7815,13.7815,13.6267,13.4936,13.3804,13.0761,13.0511,13.2656,13.2044,13.3281,13.5893,13.6155,13.6828,13.7815,13.7815,13.6342,13.3987,13.3277,13.1385,12.9066,12.8356,12.8094,12.8094,12.8094,13.0088,13.2768,13.3068,13.5611,13.865,13.8992,13.9524,13.9941,13.9941,13.9941,13.9789,13.9144,13.9749,14.0801,14.1774,14.0752,14.0043,14.2073,13.9985,13.801,13.8657,13.8254,13.774,13.7479,13.4964,13.2008,12.9303,13.0238,13.1696,13.2814,13.7292,14.0785,14.187,14.4284,14.5984,14.6567,14.8006,14.8744,14.8341,14.8284,14.7649,14.6096,14.4041,14.2341,14.1238,13.8974,13.7815,13.7815,13.7815,13.7554,13.7052,13.7036,13.6786,8.5035,0.0,9.1497,9.7875,10.2963,10.7188,11.0203,11.3213,11.589,11.7642,11.8127,11.9134,12.2417,12.3014,12.3574,12.5267,12.6961,12.8094,12.8094,12.8094,12.8169,12.8431,12.8828,12.9179,0.0,13.2728,13.4892,13.5006,13.7436,13.8931,13.887,13.8189,13.7815,13.7815,13.7815,13.7815,13.7815,13.6304,13.5557,13.5445,13.2519,13.111,13.1121,13.2644,13.4318,13.6043,13.7292,13.7815,13.7815,13.7853,13.6902,13.5325,13.3652,13.1931,13.0236,12.8692,12.8094,12.8094,12.8094,12.9377,13.1073,13.1496,13.405,13.7056,13.7322,13.8575,13.9903,13.9941,13.9941,13.9789,13.9144,13.8993,13.9214,14.0112,13.9053,13.8382,14.0486,13.8077,13.6088,13.7958,13.6812,13.5557,13.5445,13.4053,13.2394,13.0698,12.9153,12.9328,13.2581,13.7217,14.1554,14.4957,14.5648,14.6604,14.8283,14.8745,14.8771,14.834,14.8341,14.8135,14.7761,14.462,14.29,14.29,13.9535,13.7815,13.7762,13.7762,13.75,13.6906,13.6887,13.6617,9.0265,0.0,0.0,9.6471,9.8703,10.0329,10.3345,10.64,10.9763,11.3819,11.6553,11.885,12.0953,12.2271,12.3617,12.5316,12.6961,12.8094,12.8094,12.8094,12.8169,12.8431,12.8811,12.927,12.9842,13.1893,13.3221,13.3259,13.5689,13.7171,13.7134,13.7591,13.7815,13.7815,13.7815,13.7815,13.7815,13.7404,13.6603,13.5482,13.3426,13.2679,13.3142,13.3571,13.5368,13.8114,13.7927,13.7815,13.7853,13.8114,13.7441,13.6021,13.4131,13.251,13.1023,12.8842,12.8094,12.8094,12.8094,12.9564,13.1442,13.155,13.3407,13.5841,13.7056,13.7777,13.8385,13.96,13.9941,13.9789,13.9144,13.8993,13.9214,14.0112,13.9049,13.8285,14.0112,13.899,13.7323,13.645,13.697,13.6715,13.4121,13.3305,13.2394,13.0698,13.0051,13.0524,13.2664,13.6192,14.0806,14.6826,14.7816,14.8851,15.0822,15.0208,14.945,14.8806,14.8756,14.8396,14.7761,14.462,14.29,14.29,13.9535,13.743,13.6712,13.6712,13.5874,13.4193,13.4192,13.3728,8.5974,0.0,0.0,0.0,9.0657,9.272,9.7023,9.9791,10.2627,10.6875,11.0622,11.3438,11.441,11.7857,12.0729,0.0,12.4034,12.6101,12.6437,12.6774,12.7459,12.858,12.8938,12.9311,12.9994,13.1589,13.2576,13.2576,13.512,13.6641,13.6461,13.7479,13.8002,13.7815,13.7815,13.7815,13.7815,13.7815,13.7367,13.6416,13.5055,13.4607,13.4996,13.5192,13.6239,13.7927,13.7853,13.7815,13.7853,13.8077,13.7672,13.6775,13.4259,13.2847,13.1821,12.9116,12.8094,12.8094,12.8206,12.9265,13.0569,13.0675,13.2227,13.4208,13.512,13.6335,13.7625,13.8612,13.941,13.9789,13.9144,13.8993,13.9065,13.9252,13.8526,13.8077,13.9102,13.8189,13.6843,13.5712,13.5862,13.5474,13.3337,13.2356,13.1784,13.1522,13.2045,13.2906,13.3897,13.7446,14.1499,14.5573,14.8115,15.0079,15.155,15.1331,15.0556,14.9226,14.8994,14.8583,14.7985,14.4695,14.29,14.29,13.9535,13.7187,13.5904,13.554,13.4383,13.2757,13.2348,13.0576,7.6842,0.0,0.0,7.8437,8.1142,8.4679,0.0,0.0,9.3845,9.7206,10.1164,10.4232,10.4923,11.0807,11.5452,11.5158,11.9246,12.2827,12.381,12.4781,12.6251,12.8505,12.8753,12.911,12.9956,13.1399,13.2272,13.2234,13.4854,13.6291,13.5873,13.727,13.7927,13.7554,13.7703,13.7815,13.7815,13.7815,13.7815,13.7815,13.6603,13.6274,13.6718,13.6685,13.6678,13.6753,13.7367,13.7591,13.7554,13.7404,13.7366,13.7038,13.3931,13.2607,13.2008,12.8966,12.7945,12.8132,12.8393,12.8736,12.9107,12.9393,13.0754,13.231,13.25,13.4588,13.6942,13.7132,13.8385,13.9524,13.8878,13.8841,13.8803,13.8002,13.7815,13.7815,13.7815,13.6715,13.5669,13.5295,13.4128,13.3131,13.2739,13.1609,13.121,13.2719,13.4378,13.5501,13.5482,13.98,14.2844,14.2844,14.7367,15.0444,15.0663,15.1328,15.0913,14.8993,14.8715,14.8322,14.7723,14.4433,14.2526,14.2302,13.9012,13.6475,13.4855,13.3964,13.272,13.127,13.0468,12.7132,0.0,0.0,0.0,0.0,0.0,0.0,0.0,0.0,8.0613,8.48,8.8381,9.2348,9.7534,10.2778,10.7576,11.1151,11.5829,11.9754,12.2009,12.356,12.508,12.6811,12.7064,12.7846,12.9837,13.0336,13.0412,13.007,13.1855,13.2704,13.2098,13.4793,13.6208,13.5913,13.7157,13.7815,13.7815,13.7815,13.7815,13.7778,13.4943,13.532,13.8403,13.5503,13.5781,13.8376,13.6865,13.6117,13.5856,13.4794,13.4389,13.4187,13.2189,13.044,12.8816,12.6774,12.6923,12.8132,12.8393,12.8744,12.9099,12.9384,12.9956,13.0792,13.2158,13.3032,13.3791,13.5158,13.6676,13.7777,13.7132,13.7972,13.8803,13.8002,13.7815,13.7815,13.7815,13.7591,13.6566,13.3972,13.4277,13.4116,13.1397,13.1782,13.2552,13.2889,13.4398,13.5445,13.5482,13.98,14.2844,14.2844,14.7611,14.9834,14.7511,14.6784,14.606,14.5029,14.6134,14.5984,14.4022,14.193,14.0191,13.8825,13.5594,13.2943,13.0926,13.0704,12.9046,12.6091,12.5852,12.3747,0.0,0.0,0.0,0.0,0.0,0.0,0.0,0.0,0.0,0.0,0.0,8.3288,0.0,0.0,9.9523,10.2933,10.8346,11.3678,11.813,11.9826,12.1483,12.372,12.5516,12.6796,12.7449,12.8893,12.9311,12.8286,13.0408,13.1607,13.1216,13.341,13.4614,13.4427,13.5871,13.6641,13.6641,13.7441,13.7441,13.6603,13.537,13.5262,13.6207,13.453,13.4678,13.6192,13.4943,13.4323,13.4128,13.2618,13.152,13.0549,12.8042,12.6433,12.545,12.4644,12.4856,12.5653,12.6101,12.6923,12.7868,12.8324,12.9197,13.0184,13.1057,13.1893,13.2728,13.3601,13.4968,13.6069,13.5613,13.5979,13.6304,13.5744,13.5519,13.5407,13.5407,13.5407,13.4644,13.2201,13.2394,13.2432,13.0736,13.1846,13.3254,13.4084,13.5632,13.6641,13.6641,13.9519,14.1332,14.0696,14.3723,14.5685,14.5424,14.4221,14.4106,14.5601,14.5331,14.4582,14.3424,14.0602,13.8713,13.7831,13.4099,13.0532,12.7143,12.6084,12.387,12.0561,11.8433,11.6257,0.0,0.0,0.0,0.0,0.0,0.0,0.0,0.0,0.0,0.0,0.0,0.0,0.0,0.0,0.0,9.3953,10.0412,10.7155,11.2978,11.4179,11.6086,12.0513,12.3447,12.5097,12.4983,12.7109,12.7939,12.6472,12.872,13.0038,12.9759,13.1558,13.2466,13.2328,13.4047,13.4981,13.4981,13.623,13.608,13.4495,0.0,0.0,13.3059,13.3201,13.3357,13.3539,13.2776,13.2319,13.1858,13.0163,12.8555,12.6797,12.3402,12.2325,12.2625,12.2588,12.2801,12.3138,12.3821,12.4883,12.616,12.6805,12.7944,12.9083,12.9083,13.026,0.0,13.1589,13.2994,13.436,13.4019,13.3937,13.3817,13.338,13.3113,13.2963,13.2963,13.2963,13.244,13.0782,13.0399,13.0437,13.0437,13.1035,13.2108,13.3785,13.5669,13.703,13.7329,13.9102,13.9946,13.8867,14.0182,14.1905,14.3632,14.2294,14.2713,14.5864,14.3853,14.2193,14.1481,13.8285,13.6058,13.5076,13.081,12.684,12.3176,12.0983,11.8409,11.5254,10.8241,10.4982,0.0,0.0,0.0,0.0,0.0,0.0,0.0,0.0,0.0,0.0,0.0,0.0,0.0,0.0,0.0,0.0,9.5654,10.2939,10.6702,10.6019,10.8682,11.8261,11.9755,12.13,12.4641,12.5097,12.494,12.4395,12.4665,12.4632,12.4022,0.0,0.0,0.0,0.0,13.3247,13.3247,13.3396,13.2686,13.0991,13.1085,13.1167,13.1292,13.0964,13.1844,13.348,13.1559,12.9938,12.8505,12.6811,12.5103,12.3298,11.9989,11.9653,12.1007,12.0962,12.1868,12.3149,12.3785,0.0,0.0,12.5059,12.54,12.5552,12.5552,12.6729,12.8096,12.8096,13.0374,13.2652,13.1931,13.2834,13.3764,13.3153,13.2943,13.2943,13.2943,13.2943,13.2457,13.0761,13.0425,13.0437,13.0437,12.8169,12.6986,12.8661,13.1513,13.4047,13.5594,13.8413,14.0262,14.015,0.0,0.0,14.1736,14.024,13.9751,14.0739,13.8942,13.6305,13.2926,13.211,12.9661,12.5155,12.0825,11.8672,11.8709,11.625,11.3676,11.0731,9.3412,8.844,0.0,0.0,0.0,0.0,0.0,0.0,0.0,0.0,0.0,0.0,0.0,0.0,0.0,0.0,0.0,0.0,8.7129,9.2322,9.466,9.996,10.5675,11.1263,11.5362,11.7997,11.8794,12.0427,12.1261,12.0865,12.1626,12.2486,12.3356,12.462,12.537,12.5466,12.7546,12.8667,12.8667,12.9652,12.9265,12.7607,12.7732,12.786,12.7847,12.7843,12.8779,13.0238,12.8393,12.7272,12.64,12.3832,12.2878,0.0,0.0,0.0,0.0,0.0,11.9653,12.0334,12.097,12.1195,12.13,12.187,12.2059,12.2211,12.3236,12.4034,12.4793,12.578,12.7792,12.9501,12.8969,12.9944,13.1002,13.0486,13.02,13.0126,13.0126,13.0126,12.9901,12.9228,12.8244,0.0,12.6321,12.5797,12.6171,12.7844,13.0874,13.3553,13.5295,13.7479,13.8563,13.7853,13.8556,13.9086,13.8859,13.8354,0.0,0.0,0.0,13.7517,13.4786,13.4347,0.0,0.0,0.0,0.0,0.0,0.0,0.0,0.0,8.7553,8.4876,0.0,0.0,0.0,0.0,0.0,0.0,0.0,0.0,0.0,0.0,0.0,0.0,0.0,0.0,0.0,0.0,0.0,8.4588,8.6643,9.39,10.042,10.4192,10.9285,11.2112,11.1201,11.3851,11.5721,11.5887,11.7177,11.9017,12.1307,12.1606,12.2046,12.285,12.412,12.4879,12.4879,12.6123,12.5851,12.4232,12.487,12.4833,12.4232,12.4905,12.5727,12.6624,12.5379,12.4644,12.4094,12.1672,12.1082,12.1419,11.856,11.7513,11.7476,11.6982,11.6832,11.6944,11.7588,11.7769,11.7845,11.8415,11.8605,11.8832,12.0047,12.0731,12.1414,12.3123,12.4793,12.6046,12.6122,12.6852,12.7496,12.7122,12.6849,12.6699,12.6699,12.6699,12.6699,12.6699,12.4644,12.2588,12.1831,12.2363,12.3606,12.5748,12.9212,0.0,13.3897,13.6267,13.7441,13.6491,13.6715,13.7185,13.754,13.7414,13.8081,13.9827,13.9068,13.8157,13.7208,13.5019,13.169,12.7125,11.6354,10.7327,0.0,0.0,0.0,0.0,0.0,0.0,0.0,0.0,0.0,0.0,0.0,0.0,0.0,0.0,0.0,0.0,0.0,0.0,0.0,0.0,0.0,0.0,0.0,0.0,8.65,8.7184,9.0412,9.8619,10.0959,10.2128,10.2583,10.5131,10.7384,10.903,11.0354,11.2512,11.5703,11.7476,11.9129,12.0783,12.2325,12.3111,12.3111,12.3186,12.2437,12.0895,12.24,12.2363,12.0933,12.2428,12.3163,12.3201,12.3126,12.2289,12.0858,12.0745,11.9765,11.8149,11.6421,11.5703,11.5554,11.4014,11.3491,11.3566,11.4051,11.4243,11.439,11.5036,11.5226,11.5226,11.5302,11.6365,11.7921,11.963,12.1148,12.2553,12.3768,12.3954,12.3686,12.3313,12.3201,12.3201,12.3201,12.3201,12.3201,12.3201,11.929,11.6496,11.8074,11.7019,11.7094,12.0446,12.5113,0.0,13.0393,13.4794,13.7815,13.7778,13.8114,13.8482,13.89,13.7777,13.7891,13.9827,13.6904,13.5765,13.736,13.0875,12.631,12.4371,11.3847,10.3978,9.51,0.0,0.0,0.0,0.0,0.0,0.0,0.0,0.0,0.0,0.0,0.0,0.0,0.0,0.0,0.0,0.0,0.0,0.0,0.0,0.0,0.0,0.0,0.0,0.0,0.0,8.8316,9.2054,9.4858,9.5673,9.366,9.6268,9.8701,10.0212,10.3834,10.6881,10.909,11.1811,11.4051,11.5786,11.7364,11.8672,11.9802,11.9802,11.9578,11.9054,11.9578,12.0101,12.0745,12.1261,12.2084,12.2982,12.1925,12.1224,12.0633,11.9503,11.7438,11.4657,11.1272,10.9974,10.9993,10.9993,10.9656,10.947,11.1269,11.2156,11.2342,11.189,10.9455,10.7101,10.9151,11.0176,11.1125,11.3783,11.6441,11.8776,12.0086,12.1172,12.2159,12.2869,12.3056,12.3056,12.3056,12.2233,12.1476,12.1476,11.6578,11.1905,11.0329,11.317,11.5292,11.4275,12.2084,12.8678,13.0207,13.4719,13.7815,13.7815,13.8376,13.886,13.8946,13.8992,13.9258,13.9903,13.7853,13.6335,13.5765,13.0964,12.6998,12.4146,11.745,10.6732,9.1868,0.0,0.0,0.0,0.0,0.0,0.0,0.0,0.0,0.0,0.0,0.0,0.0,0.0,0.0,0.0,0.0,0.0,0.0,0.0,0.0,0.0,0.0,0.0,0.0,0.0,0.0,8.6077,8.8166,0.0,8.4904,8.7466,8.9764,9.068,9.5337,9.9377,10.2216,10.5504,10.8188,11.0205,11.1811,11.3155,11.4201,11.4844,11.5255,11.5554,11.672,11.785,11.8942,11.954,12.0371,12.1269,12.0214,11.9802,11.9532,11.6152,11.2528,10.8758,10.5489,10.349,10.2511,10.2418,10.257,10.3116,10.5327,10.6898,10.7919,10.7815,10.4064,9.9774,10.0571,10.0796,10.1596,10.5371,10.9137,11.2675,11.5273,11.7147,11.8523,11.9391,11.9578,11.9578,11.9578,11.8298,11.684,11.57,11.1013,10.6442,10.3781,10.7235,11.0082,10.922,11.7401,12.5076,12.9087,13.3935,13.7217,13.7778,13.8488,13.8973,13.8984,13.96,13.9713,13.9106,13.7474,13.5537,13.3259,12.9355,12.4556,11.8869,11.3678,10.3609,0.0,0.0,0.0,0.0,0.0,0.0,0.0,0.0,0.0,0.0,0.0,0.0,0.0,0.0,0.0,0.0,0.0,0.0,0.0,0.0,0.0,0.0,0.0,0.0,0.0,0.0,0.0,8.057,8.0881,0.0,0.0,0.0,0.0,8.0604,8.5292,9.0182,9.4894,9.8295,10.1363,10.4084,10.5655,10.6598,10.6821,10.8533,10.978,11.0526,11.3715,11.5255,11.5329,11.6907,11.77,11.7775,11.7729,11.7683,11.7179,11.0352,10.4879,10.0626,9.8648,9.6005,9.3166,9.1722,9.2493,9.4519,9.6463,9.8703,10.1026,10.2465,9.8935,9.343,8.9747,8.8789,0.0,0.0,9.9552,10.4308,10.9255,11.16,11.2782,11.3006,11.308,11.308,11.308,11.1691,10.9346,0.0,10.2371,9.9552,9.7717,0.0,10.1344,10.4438,11.0944,11.8383,12.6631,13.2201,13.6005,13.7666,13.8488,13.8973,13.8984,13.9562,13.9182,13.7398,13.5651,13.3183,12.9918,12.5514,11.8618,10.9034,10.2685,0.0,0.0,0.0,0.0,0.0,0.0,0.0,0.0,0.0,0.0,0.0,0.0,0.0,0.0,0.0,0.0,0.0,0.0,0.0,0.0,0.0,0.0,0.0,0.0,0.0,0.0,7.0238,7.312,7.3493,7.3697,7.259,0.0,0.0,0.0,0.0,0.0,0.0,8.3078,8.7045,9.127,9.5527,9.6904,9.9274,10.2879,10.4983,10.611,10.6358,10.8946,11.0174,11.0145,10.9996,11.0638,11.1795,11.1213,11.0918,11.0168,9.9501,9.4124,9.1796,8.4886,8.1686,8.1145,8.2759,8.3392,8.4195,8.9183,9.2316,9.3698,9.1626,8.9977,8.7534,8.0528,0.0,0.0,0.0,0.0,9.5563,10.0489,10.2914,10.5009,10.8685,10.9544,10.9544,10.9544,10.7334,10.2661,0.0,9.0488,8.7614,8.2403,0.0,0.0,0.0,0.0,11.464,12.1683,12.9064,13.4682,13.7516,13.8264,13.8672,13.8946,13.9334,13.8385,13.5727,13.288,12.9691,12.6122,11.6441,10.871,10.359,0.0,0.0,0.0,0.0,0.0,0.0,0.0,0.0,0.0,0.0,0.0,0.0,0.0,0.0,0.0,0.0,0.0,0.0,0.0,0.0,0.0,0.0,0.0,0.0,0.0,0.0,0.0,6.5644,7.0356,7.0943,7.0591,6.9312,0.0,0.0,0.0,0.0,0.0,0.0,0.0,0.0,0.0,8.661,8.8062,9.0007,9.2529,9.5845,9.7857,9.8514,10.263,10.4611,10.464,10.4943,10.5807,10.7019,10.6626,10.2793,9.6439,8.9718,8.4203,7.9585,0.0,0.0,0.0,0.0,7.3067,7.4872,7.9257,8.2176,8.3708,8.2586,0.0,0.0,0.0,0.0,0.0,0.0,0.0,0.0,0.0,0.0,9.93,10.132,10.1808,10.1731,10.1506,9.5692,8.8804,0.0,8.0504,7.7612,7.2477,0.0,0.0,0.0,0.0,10.8274,11.929,12.7234,13.3359,13.7404,13.8152,13.8554,13.8931,13.8586,13.7094,13.4057,13.0678,12.559,11.8415,10.9279,10.0072,0.0,0.0,0.0,0.0,0.0,0.0,0.0,0.0,0.0,0.0,0.0,0.0,0.0,0.0,0.0,0.0,0.0,0.0,0.0,0.0,0.0,0.0,0.0,0.0,0.0,0.0,0.0,0.0,0.0,6.6251,6.9275,0.0,0.0,0.0,0.0,0.0,0.0,0.0,0.0,0.0,0.0,0.0,0.0,0.0,8.0107,7.9997,8.4298,8.7195,8.8734,9.4557,9.7472,9.7734,9.8816,10.0088,10.1386,10.0055,0.0,8.1234,8.0414,0.0,0.0,0.0,0.0,0.0,0.0,0.0,0.0,0.0,0.0,0.0,0.0,0.0,0.0,0.0,0.0,0.0,0.0,0.0,0.0,0.0,0.0,9.3399,9.2167,9.2055,9.1644,0.0,8.0521,7.2858,7.3158,7.1234,0.0,0.0,0.0,0.0,0.0,0.0,0.0,11.7034,12.5566,13.2126,13.7292,13.8114,13.8488,13.8953,13.7538,13.5385,13.2424,12.7602,12.0007,10.9239,10.2798,0.0,0.0,0.0,0.0,0.0,0.0,0.0,0.0,0.0,0.0,0.0,0.0,0.0,0.0,0.0,0.0,0.0,0.0,0.0,0.0,0.0,0.0,0.0,0.0,0.0,0.0,0.0,0.0,0.0,0.0,0.0,0.0,0.0,0.0,0.0,0.0,0.0,0.0,0.0,0.0,0.0,0.0,0.0,0.0,0.0,0.0,0.0,0.0,0.0,0.0,8.2434,8.46,8.5861,8.3771,8.505,8.8389,7.9986,7.6396,7.6061,7.0746,0.0,0.0,0.0,0.0,0.0,0.0,0.0,0.0,0.0,0.0,0.0,0.0,0.0,0.0,0.0,0.0,0.0,0.0,0.0,0.0,0.0,0.0,0.0,0.0,8.4482,8.2678,0.0,0.0,0.0,0.0,0.0,0.0,0.0,0.0,0.0,0.0,0.0,0.0,10.8847,12.1049,13.0916,13.718,13.789,13.8189,13.8953,13.6212,13.3335,13.064,11.9402,10.9958,0.0,0.0,0.0,0.0,0.0,0.0,0.0,0.0,0.0,0.0,0.0,0.0,0.0,0.0,0.0,0.0,0.0,0.0,0.0,0.0,0.0,0.0,0.0,0.0,0.0,0.0,0.0,0.0,0.0,0.0,0.0,0.0,0.0,0.0,0.0,0.0,0.0,0.0,0.0,0.0,0.0,0.0,0.0,0.0,0.0,0.0,0.0,0.0,0.0,0.0,0.0,0.0,0.0,0.0,0.0,0.0,0.0,0.0,0.0,6.3289,0.0,0.0,0.0,0.0,0.0,0.0,0.0,0.0,0.0,0.0,0.0,0.0,0.0,0.0,0.0,0.0,0.0,0.0,0.0,0.0,0.0,0.0,0.0,0.0,0.0,0.0,0.0,0.0,0.0,0.0,0.0,0.0,0.0,0.0,0.0,0.0,0.0,0.0,0.0,0.0,10.6676,11.988,13.0617,13.7142,13.7815,13.8114,13.8953,13.5056,12.9994,12.3844,11.31,0.0,0.0,0.0,0.0,0.0,0.0,0.0,0.0,0.0,0.0,0.0,0.0,0.0,0.0,0.0,0.0,0.0,0.0,0.0,0.0,0.0,0.0,0.0,0.0,0.0,0.0,0.0,0.0,0.0,0.0,0.0,0.0,0.0,0.0,0.0,0.0,0.0,0.0,0.0,0.0,0.0,0.0,0.0,0.0,0.0,0.0,0.0,0.0,0.0,0.0,0.0,0.0,0.0,0.0,0.0,0.0,0.0,0.0,0.0,5.8509,0.0,0.0,0.0,0.0,0.0,0.0,0.0,0.0,0.0,0.0,0.0,0.0,0.0,0.0,0.0,0.0,0.0,0.0,0.0,0.0,0.0,0.0,0.0,0.0,0.0,0.0,0.0,0.0,0.0,0.0,0.0,0.0,0.0,0.0,0.0,0.0,0.0,0.0,0.0,0.0,0.0,10.5669,11.9457,13.0617,13.7142,13.7815,13.8114,13.884,13.3957,12.6995,11.7883,10.7215,0.0,0.0,0.0,0.0,0.0,0.0,0.0,0.0,0.0,0.0,0.0,0.0,0.0,0.0,0.0,0.0,0.0,0.0,0.0,0.0,0.0,0.0,0.0,0.0,0.0,0.0,0.0,0.0,0.0,0.0,0.0,0.0,0.0,0.0,0.0,0.0,0.0,0.0,0.0,0.0,0.0,0.0,0.0,0.0,0.0,0.0,0.0,0.0,0.0,0.0,0.0,0.0,0.0,0.0,0.0,0.0,0.0,0.0,0.0,0.0,0.0,0.0,0.0,0.0,0.0,0.0,0.0,0.0,0.0,0.0,0.0,0.0,0.0,0.0,0.0,0.0,0.0,0.0,0.0,0.0,0.0,0.0,0.0,0.0,0.0,0.0,0.0,0.0,0.0,0.0,0.0,0.0,0.0,0.0,0.0,0.0,0.0,0.0,0.0,0.0,0.0,10.2748,11.8103,13.0617,13.7142,13.7815,13.8002,13.8413,13.2707,12.5666,11.758,0.0,0.0,0.0,0.0,0.0,0.0,0.0,0.0,0.0,0.0,0.0,0.0,0.0,0.0,0.0,0.0,0.0,0.0,0.0,0.0,0.0,0.0,0.0,0.0,0.0,0.0,0.0,0.0,0.0,0.0,0.0,0.0,0.0,0.0,0.0,0.0,0.0,0.0,0.0,0.0,0.0,0.0,0.0,0.0,0.0,0.0,0.0,0.0,0.0,0.0,0.0,0.0,0.0,0.0,0.0,0.0,0.0,0.0,0.0,0.0,0.0,0.0,0.0,0.0,0.0,0.0,0.0,0.0,0.0,0.0,0.0,0.0,0.0,0.0,0.0,0.0,0.0,0.0,0.0,0.0,0.0,0.0,0.0,0.0,0.0,0.0,0.0,0.0,0.0,0.0,0.0,0.0,0.0,0.0,0.0,0.0,0.0,0.0,0.0,0.0,0.0,0.0,10.1039,11.7357,13.0228,13.5818,13.7254,13.7965,13.8339,13.2567,12.332,11.025,0.0,0.0,0.0,0.0,0.0,0.0,0.0,0.0,0.0,0.0,0.0,0.0,0.0,0.0,0.0,0.0,0.0,0.0,0.0,0.0,0.0,0.0,0.0,0.0,0.0,0.0,0.0,0.0,0.0,0.0,0.0,0.0,0.0,0.0,0.0,0.0,0.0,0.0,0.0,0.0,0.0,0.0,0.0,0.0,0.0,0.0,0.0,0.0,0.0,0.0,0.0,0.0,0.0,0.0,0.0,0.0,0.0,0.0,0.0,0.0,0.0,0.0,0.0,0.0,0.0,0.0,0.0,0.0,0.0,0.0,0.0,0.0,0.0,0.0,0.0,0.0,0.0,0.0,0.0,0.0,0.0,0.0,0.0,0.0,0.0,0.0,0.0,0.0,0.0,0.0,0.0,0.0,0.0,0.0,0.0,0.0,0.0,0.0,0.0,0.0,0.0,0.0,10.0256,11.6997,13.0035,13.4943,13.6865,13.774,13.7591,13.2238,12.1624,10.4589,0.0,0.0,0.0,0.0,0.0,0.0,0.0,0.0,0.0,0.0,0.0,0.0,0.0,0.0,0.0,0.0,0.0,0.0,0.0,0.0,0.0,0.0,0.0,0.0,0.0,0.0,0.0,0.0,0.0,0.0,0.0,0.0,0.0,0.0,0.0,0.0,0.0,0.0,0.0,0.0,0.0,0.0,0.0,0.0,0.0,0.0,0.0,0.0,0.0,0.0,0.0,0.0,0.0,0.0,0.0,0.0,0.0,0.0,0.0,0.0,0.0,0.0,0.0,0.0,0.0,0.0,0.0,0.0,0.0,0.0,0.0,0.0,0.0,0.0,0.0,0.0,0.0,0.0,0.0,0.0,0.0,0.0,0.0,0.0,0.0,0.0,0.0,0.0,0.0,0.0,0.0,0.0,0.0,0.0,0.0,0.0,0.0,0.0,0.0,0.0,0.0,0.0,10.0351,11.7019,13.0038,13.4959,13.6865,13.7217,13.5669,13.1439,12.106,0.0,0.0,0.0,0.0,0.0,0.0,0.0,0.0,0.0,0.0,0.0,0.0,0.0,0.0,0.0,0.0,0.0,0.0,0.0,0.0,0.0,0.0,0.0,0.0,0.0,0.0,0.0,0.0,0.0,0.0,0.0,0.0,0.0,0.0,0.0,0.0,0.0,0.0,0.0,0.0,0.0,0.0,0.0,0.0,0.0,0.0,0.0,0.0,0.0,0.0,0.0,0.0,0.0,0.0,0.0,0.0,0.0,0.0,0.0,0.0,0.0,0.0,0.0,0.0,0.0,0.0,0.0,0.0,0.0,0.0,0.0,0.0,0.0,0.0,0.0,0.0,0.0,0.0,0.0,0.0,0.0,0.0,0.0,0.0,0.0,0.0,0.0,0.0,0.0,0.0,0.0,0.0,0.0,0.0,0.0,0.0,0.0,0.0,0.0,0.0,0.0,0.0,0.0,9.8217,11.2512,12.4732,0.0,13.6208,13.718,13.5632,13.1401,12.1056,10.2627,0.0,0.0,0.0,0.0,0.0,0.0,0.0,0.0,0.0,0.0,0.0,0.0,0.0,0.0,0.0,0.0,0.0,0.0,0.0,0.0,0.0,0.0,0.0,0.0,0.0,0.0,0.0,0.0,0.0,0.0,0.0,0.0,0.0,0.0,0.0,0.0,0.0,0.0,0.0,0.0,0.0,0.0,0.0,0.0,0.0,0.0,0.0,0.0,0.0,0.0,0.0,0.0,0.0,0.0,0.0,0.0,0.0,0.0,0.0,0.0,0.0,0.0,0.0,0.0,0.0,0.0,0.0,0.0,0.0,0.0,0.0,0.0,0.0,0.0,0.0,0.0,0.0,0.0,0.0,0.0,0.0,0.0,0.0,0.0,0.0,0.0,0.0,0.0,0.0,0.0,0.0,0.0,0.0,0.0,0.0,0.0,0.0,0.0,0.0,0.0,0.0,0.0,0.0,11.1137,12.3151,0.0,13.4039,13.5348,13.3725,13.0035,11.9941,10.1578,0.0,0.0,0.0,0.0,0.0,0.0,0.0,0.0,0.0,0.0,0.0,0.0,0.0,0.0,0.0,0.0,0.0,0.0,0.0,0.0,0.0,0.0,0.0,0.0,0.0,0.0,0.0,0.0,0.0,0.0,0.0,0.0,0.0,0.0,0.0,0.0,0.0,0.0,0.0,0.0,0.0,0.0,0.0,0.0,0.0,0.0,0.0,0.0,0.0,0.0,0.0,0.0,0.0,0.0,0.0,0.0,0.0,0.0,0.0,0.0,0.0,0.0,0.0,0.0,0.0,0.0,0.0,0.0,0.0,0.0,0.0,0.0,0.0,0.0,0.0,0.0,0.0,0.0,0.0,0.0,0.0,0.0,0.0,0.0,0.0,0.0,0.0,0.0,0.0,0.0,0.0,0.0,0.0,0.0,0.0,0.0,0.0,0.0,0.0,0.0,0.0,0.0,0.0,11.1947,12.4034,12.772,13.101,13.2268,13.0535,12.7708,11.8144,9.9897,9.1041,0.0,0.0,0.0,0.0,0.0,0.0,0.0,0.0,0.0,0.0,0.0,0.0,0.0,0.0,0.0,0.0,0.0,0.0,0.0,0.0,0.0,0.0,0.0,0.0,0.0,0.0,0.0,0.0,0.0,0.0,0.0,0.0,0.0,0.0,0.0,0.0,0.0,0.0,0.0,0.0,0.0,0.0,0.0,0.0,0.0,0.0,0.0,0.0,0.0,0.0,0.0,0.0,0.0,0.0,0.0,0.0,0.0,0.0,0.0,0.0,0.0,0.0,0.0,0.0,0.0,0.0,0.0,0.0,0.0,0.0,0.0,0.0,0.0,0.0,0.0,0.0,0.0,0.0,0.0,0.0,0.0,0.0,0.0,0.0,0.0,0.0,0.0,0.0,0.0,0.0,0.0,0.0,0.0,0.0,0.0,0.0,0.0,0.0,0.0,0.0,0.0,0.0,10.8407,11.778,12.7122,13.101,13.2282,13.0562,12.7671,11.814,9.9904,8.9933,0.0,0.0,0.0,0.0,0.0,0.0,0.0,0.0,0.0,0.0,0.0,0.0,0.0,0.0,0.0,0.0,0.0,0.0,0.0,0.0,0.0,0.0,0.0,0.0,0.0,0.0,0.0,0.0,0.0,0.0,0.0,0.0,0.0,0.0,0.0,0.0,0.0,0.0,0.0,0.0,0.0,0.0,0.0,0.0,0.0,0.0,0.0,0.0,0.0,0.0,0.0,0.0,0.0,0.0,0.0,0.0,0.0,0.0,0.0,0.0,0.0,0.0,0.0,0.0,0.0,0.0,0.0,0.0,0.0,0.0,0.0,0.0,0.0,0.0,0.0,0.0,0.0,0.0,0.0,0.0,0.0,0.0,0.0,0.0,0.0,0.0,0.0,0.0,0.0,0.0,0.0,0.0,0.0,0.0,0.0,0.0,0.0,0.0,0.0,0.0,0.0,0.0,9.8024,10.9189,12.4168,12.8767,13.0038,12.8356,12.5365,11.6122,9.8588,8.8275,0.0,0.0,0.0,0.0,0.0,0.0,0.0,0.0,0.0,0.0,0.0,0.0,0.0,0.0,0.0,0.0,0.0,0.0,0.0,0.0,0.0,0.0,0.0,0.0,0.0,0.0,0.0,0.0,0.0,0.0,0.0,0.0,0.0,0.0,0.0,0.0,0.0,0.0,0.0,0.0,0.0,0.0,0.0,0.0,0.0,0.0,0.0,0.0,0.0,0.0,0.0,0.0,0.0,0.0,0.0,0.0,0.0,0.0,0.0,0.0,0.0,0.0,0.0,0.0,0.0,0.0,0.0,0.0,0.0,0.0,0.0,0.0,0.0,0.0,0.0,0.0,0.0,0.0,0.0,0.0,0.0,0.0,0.0,0.0,0.0,0.0,0.0,0.0,0.0,0.0,0.0,0.0,0.0,0.0,0.0,0.0,0.0,0.0,0.0,0.0,0.0,0.0,0.0,10.0434,11.8261,12.4419,12.686,12.5664,12.2336,11.3363,9.7061,0.0,0.0,0.0,0.0,0.0,0.0,0.0,0.0,0.0,0.0,0.0,0.0,0.0,0.0,0.0,0.0,0.0,0.0,0.0,0.0,0.0,0.0,0.0,0.0,0.0,0.0,0.0,0.0,0.0,0.0,0.0,0.0,0.0,0.0,0.0,0.0,0.0,0.0,0.0,0.0,0.0,0.0,0.0,0.0,0.0,0.0,0.0,0.0,0.0,0.0,0.0,0.0,0.0,0.0,0.0,0.0,0.0,0.0,0.0,0.0,0.0,0.0,0.0,0.0,0.0,0.0,0.0,0.0,0.0,0.0,0.0,0.0,0.0,0.0,0.0,0.0,0.0,0.0,0.0,0.0,0.0,0.0,0.0,0.0,0.0,0.0,0.0,0.0,0.0,0.0,0.0,0.0,0.0,0.0,0.0,0.0,0.0,0.0,0.0,0.0,0.0,0.0,0.0,0.0,0.0,10.5676,11.6982,12.4318,12.5477,12.1289,11.2129,9.6987,0.0,0.0,0.0,0.0,0.0,0.0,0.0,0.0,0.0,0.0,0.0,0.0,0.0,0.0]}],[{"header":{"parameterUnit":"kt","parameterCategory":2,"dx":1,"dy":1,"la1":29.285339999999998,"la2":30.599998999999997,"lo1":-89.70041500000002,"lo2":-87.6738589999976,"nx":112,"ny":82,"refTime":"2022-10-02T00:00:00:Z","depth":0,"parameterNumber":2,"parameterNumberName":"V-component_of_WINDS"},"data":[1.52,1.6264,0.0,1.3863,1.556,0.0,1.3253,0.0,0.0,0.0,0.0,0.0,0.0,0.0,0.0,0.0,0.0,0.0,0.0,0.0,0.0,0.0,0.0,0.0,0.0,0.0,0.0,0.0,0.0,0.0,0.0,0.0,-1.7415,-1.5832,-1.7916,-1.9025,-1.9117,-1.9521,-1.9705,-1.989,-2.0233,-2.045,-2.0556,-2.0747,-2.0839,-2.0839,-2.0839,-2.0839,-2.0839,-2.0839,-2.0773,-2.0648,-2.0358,-2.0075,-1.9798,-1.9607,-1.9468,-1.9349,-1.9152,-1.9092,-1.9092,-1.9092,-1.9092,-1.9092,-1.9092,-1.9092,-1.9112,-1.9218,-1.9171,-1.9578,-2.1561,-2.5244,-2.884,-3.0911,-3.4612,-3.7644,-3.7644,-3.7644,-3.7644,-3.7644,-3.7644,-3.7644,-3.7644,-3.7644,-3.7644,-3.7644,-3.7644,-3.7644,-3.7644,-3.7644,-3.7644,-3.7644,-3.7644,-3.7644,-3.7644,-3.7644,-3.9034,-4.2056,-4.556,-4.9374,-5.3328,-5.6803,-5.8961,-5.9549,-5.9872,-5.9891,-5.9568,-5.9891,-6.0043,-6.0043,-6.0043,-6.0043,0.0,0.0,1.6244,1.2105,0.0,0.0,0.0,0.0,0.0,0.0,0.0,0.0,0.0,0.0,0.0,0.0,0.0,0.0,0.0,0.0,0.0,0.0,0.0,0.0,0.0,0.0,0.0,0.0,0.0,0.0,0.0,-1.8075,-1.8492,-1.8921,-1.9145,-1.8999,-1.896,-1.9369,-1.9501,-1.9587,-1.9936,-2.0207,-2.0398,-2.0602,-2.0741,-2.0839,-2.0839,-2.0839,-2.0839,-2.0839,-2.0839,-2.0806,-2.051,-2.0279,-2.0101,-1.9897,-1.9705,-1.9508,-1.931,-1.9178,-1.9092,-1.9092,-1.9092,-1.9322,-2.0258,-2.0722,-2.0957,-2.1882,-2.2117,-2.257,-2.3932,-2.7925,-3.196,-3.4035,-3.6299,-3.7644,-3.7644,-3.7644,-3.7644,-3.7644,-3.7644,-3.7644,-3.7644,-3.7644,-3.7644,-3.7644,-3.7644,-3.7644,-3.7644,-3.7644,-3.7644,-3.7644,-3.7644,-3.7644,-3.7644,-3.7644,-3.9388,-4.3267,-4.5863,-4.9316,-5.3874,-5.6707,-5.8695,-5.9568,-5.9891,-6.0043,-6.0043,-6.0043,-6.0043,-6.0043,-6.0043,-6.0043,0.0,0.0,0.0,1.1111,0.0,0.0,0.0,0.0,1.4462,0.0,0.0,0.0,0.0,0.0,0.0,0.0,0.0,0.0,0.0,0.0,0.0,0.0,0.0,0.0,0.0,0.0,0.0,0.0,0.0,0.0,-1.7668,-1.8301,-1.8572,-1.9145,-1.898,-1.896,-1.9092,-1.9132,-1.9277,-1.9521,-1.9527,-1.9824,-2.0365,-2.0385,-2.0549,-2.0826,-2.0833,-2.0839,-2.0839,-2.0839,-2.0839,-2.0813,-2.0523,-2.0411,-2.0411,-2.0398,-2.0042,-1.9802,-1.9782,-1.9582,-1.9335,-1.9329,-1.9322,-1.9787,-2.3046,-2.3973,-2.444,-2.7453,-2.8388,-2.7896,-2.6157,-3.1676,-3.7792,-3.7779,-3.7825,-3.7644,-3.7644,-3.7644,-3.7644,-3.7644,-3.7644,-3.7644,-3.7644,-3.7644,-3.7644,-3.7644,-3.7644,-3.7644,-3.7644,-3.7644,-3.7644,-3.7644,-3.7644,-3.7644,-3.7644,-3.7644,-4.0045,-4.5872,-4.6306,-4.9245,-5.5996,-5.7043,-5.7879,-5.8714,-5.9606,-6.0043,-6.0043,-6.0043,-6.0043,-6.0043,-6.0043,-6.0043,0.4659,0.0,0.0,0.0,0.0,0.0,0.0,0.0,0.0,0.0,0.0,0.0,0.0,0.0,0.0,0.0,0.0,0.0,0.0,0.0,0.0,0.0,0.0,0.0,0.0,0.0,0.0,0.0,0.0,-1.6783,-1.7932,-1.8568,-1.8868,-1.8973,-1.896,-1.8934,-1.9138,-1.9119,-1.9145,-1.9211,-1.9429,-1.962,-1.9785,-2.0207,-2.0437,-2.053,-2.0747,-2.0839,-2.0839,-2.0839,-2.0839,-2.0833,-2.0747,-2.0714,-2.0688,-2.047,-2.1776,-2.3773,-2.4046,-2.5203,-2.6204,-2.5927,-2.5829,-2.607,-2.6767,-2.6989,-2.7221,-2.8157,-2.8388,-2.9332,-3.3383,-3.6068,-3.7753,-3.7786,-3.7695,-3.7644,-3.7644,-3.7644,-3.7644,-3.7644,-3.7644,-3.7644,-3.7644,-3.7644,-3.7644,-3.7644,-3.7644,-3.7644,-3.7644,-3.7644,-3.7644,-3.7644,-3.7644,-3.7644,-3.7644,-3.7644,-3.9164,-4.2827,-4.7171,-5.1885,-5.6847,-5.7347,-5.8163,-5.9644,-5.9929,-6.0043,-6.0043,-6.0043,-6.0043,-6.0043,-6.0043,-6.0043,0.0,0.0,0.0,0.0,0.0,0.0,1.5347,0.0,1.3547,0.0,0.0,0.0,0.0,0.0,0.0,0.0,0.635,0.0,0.0,0.0,0.0,0.0,0.0,0.0,0.0,0.0,0.0,0.0,-1.7258,-1.6731,-1.5652,-1.2789,-1.3459,-1.8954,-1.8967,-1.8999,-1.9316,-1.9165,-1.9152,-1.9277,-1.9323,-1.9415,-1.9554,-2.0015,-2.0286,-2.0411,-2.0708,-2.0839,-2.0839,-2.0839,-2.0839,-2.0833,-2.2356,-2.2863,-2.3097,-2.4406,-2.5975,-2.7483,-2.7395,-2.8251,-2.9213,-2.8732,-2.8653,-2.8887,-3.0273,-3.06,-3.0682,-3.185,-3.2308,-3.3039,-3.6664,-3.7637,-3.7599,-3.7682,-3.7644,-3.7644,-3.7644,-3.7644,-3.7644,-3.7644,-3.7644,-3.7644,-3.7644,-3.7644,-3.7644,-3.7644,-3.7644,-3.7644,-3.7644,-3.7644,-3.7644,-3.7644,-3.7644,-3.7644,-3.7644,-3.7644,-3.8954,-4.1738,-4.629,-5.0586,-5.4592,-5.6433,-5.8106,-5.9454,-5.9853,-6.0043,-6.0043,-6.0043,-6.0043,-6.0043,-6.0043,-6.0043,0.0,0.0,0.0,0.0,1.7,0.0,0.0,0.0,0.0,0.0,0.0,0.0,0.0,0.0,0.0,0.0,0.0,0.0,0.0,0.0,0.0,0.0,0.0,0.0,0.0,-1.5805,-1.6185,-1.7293,-1.7304,-1.5342,-1.1091,-0.387,-0.5548,-1.7692,-1.8729,-1.9097,-1.9527,-1.9237,-1.9237,-1.9527,-1.9231,-1.9224,-1.9495,-1.9831,-2.0114,-2.0365,-2.0694,-2.0839,-2.0839,-2.0839,-2.0839,-2.1091,-2.4888,-2.6402,-2.6902,-2.9672,-3.0937,-3.1034,-3.0601,-3.0438,-3.035,-3.0299,-3.0278,-3.074,-3.3514,-3.4074,-3.4145,-3.694,-3.7644,-3.7644,-3.7644,-3.7644,-3.7644,-3.7644,-3.7644,-3.7644,-3.7644,-3.7644,-3.7644,-3.7644,-3.7644,-3.7644,-3.7644,-3.7644,-3.7644,-3.7644,-3.7644,-3.7644,-3.7644,-3.7644,-3.7644,-3.7644,-3.7644,-3.7644,-3.7644,-3.8081,-3.9375,-4.2401,-4.522,-4.8082,-5.1194,-5.53,-5.7917,-5.8828,-5.9644,-6.0043,-6.0043,-6.0043,-6.0043,-6.0043,-6.0043,-6.0043,0.0,0.0,0.0,0.0,0.0,1.6676,0.0,0.0,0.0,0.0,0.0,0.0,0.0,0.0,0.0,0.0,0.0,0.0,0.0,0.0,0.0,0.0,0.0,0.0,-1.6812,-1.6436,-1.6614,-1.7319,-1.7246,-1.2856,-0.2947,-0.0911,-0.3469,-1.1219,-1.6274,-1.929,-1.9527,-1.9237,-1.9237,-1.9527,-1.9231,-1.9119,-1.9191,-1.9738,-2.0009,-2.0094,-2.0615,-2.0839,-2.0839,-2.0839,-2.0839,-2.1348,-2.7664,-2.9924,-2.9924,-3.0681,-3.264,-3.4754,-3.4266,-3.5764,-3.8062,-3.7378,-3.7242,-3.7391,-3.7433,-3.7145,-3.694,-3.7644,-3.7644,-3.7644,-3.7644,-3.7644,-3.7644,-3.7644,-3.7644,-3.7644,-3.7644,-3.7644,-3.7644,-3.7644,-3.7644,-3.7644,-3.7644,-3.7644,-3.7644,-3.7644,-3.7644,-3.7644,-3.7644,-3.7644,-3.7644,-3.7644,-3.7644,-3.7644,-3.7644,-3.9808,-4.2401,-4.522,-4.8247,-5.1548,-5.5057,-5.6714,-5.8201,-5.9758,-5.9948,-6.0043,-6.0043,-6.0043,-6.0043,-6.0043,-6.0043,-6.0043,0.0,0.0,0.0,1.5882,0.0,0.0,0.0,0.0,0.0,0.0,0.0,0.0,0.0,0.0,0.39,0.0586,0.0,0.0,0.0,0.0,0.0,0.0,0.0,0.0,-1.8511,-1.7387,-1.6732,-1.7332,-1.7241,-1.3486,-0.4769,-0.1595,-0.4397,-1.3885,-1.7485,-1.9349,-1.9758,-1.931,-1.9316,-1.9758,-1.9303,-1.9092,-1.9106,-1.9554,-1.9844,-2.0256,-2.2169,-2.322,-2.3368,-2.5144,-2.5901,-2.6402,-3.1436,-3.3455,-3.3705,-3.5215,-3.6991,-3.8417,-3.7892,-3.8702,-4.0137,-3.9851,-3.976,-3.9708,-3.9422,-3.8942,-3.8436,-3.815,-3.7864,-3.7708,-3.7994,-3.7851,-3.7721,-3.8007,-3.7851,-3.7721,-3.802,-3.7851,-3.7644,-3.7644,-3.7644,-3.7644,-3.7644,-3.7644,-3.7644,-3.7644,-3.7644,-3.7644,-3.7644,-3.7644,-3.7644,-3.7644,-3.7644,-3.7644,-3.7644,-3.894,-4.1767,-4.6089,-4.7602,-5.0591,-5.5372,-5.6816,-5.7879,-5.8733,-5.9606,-6.0043,-6.0043,-6.0043,-6.0043,-6.0043,-6.0043,-6.0043,0.0,0.0,0.0,0.0,0.0,0.0,1.2672,1.1362,1.0515,0.0,0.0,0.0,0.9148,0.4168,-0.0311,-0.1374,-0.2335,-0.6085,-1.4824,-1.6512,0.0,0.0,0.0,0.0,-2.0082,-1.8161,-1.6798,-1.7332,-1.7235,-1.438,-0.7507,-0.3646,-0.7176,-1.8755,-1.8999,-1.9475,-1.9982,-1.9448,-1.9475,-2.0055,-1.9402,-1.9355,-2.012,-2.0376,-2.0867,-2.1856,-2.4922,-2.6509,-2.68,-2.9644,-3.1688,-3.3204,-3.5973,-3.6979,-3.7239,-4.0022,-4.1033,-4.0968,-4.0513,-4.0357,-4.0357,-4.0357,-4.0357,-4.0331,-4.0228,-3.9864,-3.9384,-3.8812,-3.8332,-3.8085,-3.854,-3.8319,-3.8059,-3.841,-3.815,-3.7916,-3.8496,-3.7981,-3.7644,-3.7644,-3.7644,-3.7644,-3.7644,-3.7644,-3.7644,-3.7644,-3.7644,-3.7644,-3.7644,-3.7644,-3.7644,-3.7644,-3.7644,-3.7644,-3.7644,-3.8306,-4.0686,-4.5872,-4.6739,-4.9685,-5.5239,-5.6778,-5.7632,-5.7974,-5.934,-6.0043,-6.0043,-6.0043,-6.0043,-6.0043,-6.0043,-6.0043,0.0,0.0,0.0,0.0,0.0,0.0,1.2033,1.1303,1.1052,0.0,0.0,0.654,0.208,0.057,-0.152,-0.6075,-1.0781,-1.4336,-1.59,-1.6323,-1.736,0.0,0.0,0.0,-2.0947,-1.8791,-1.7239,-1.7352,-1.7209,-1.2578,-0.1594,-0.5698,-1.1816,-1.8755,-1.9169,-1.9653,-1.9982,-1.9653,-1.9778,-2.0338,-1.9495,-2.0635,-2.3525,-2.3565,-2.5015,-2.7928,-2.8964,-2.9582,-2.9659,-3.0535,-3.4466,-4.0022,-4.0281,-4.0528,-4.0528,-4.0787,-4.1033,-4.1033,-4.0968,-4.0942,-4.0942,-4.0942,-4.0942,-4.0838,-4.0344,-4.015,-3.9981,-3.9397,-3.9189,-3.915,-3.9215,-3.9189,-3.9033,-3.8591,-3.8436,-3.828,-3.7838,-3.7695,-3.7644,-3.7644,-3.7644,-3.7644,-3.7644,-3.7644,-3.7644,-3.7644,-3.7644,-3.7644,-3.7644,-3.7644,-3.7644,-3.7644,-3.7644,-3.7644,-3.7644,-4.0018,-4.2827,-4.6089,-4.8675,-5.233,-5.7138,-5.7385,-5.8201,-5.9739,-5.9948,-6.0043,-6.0043,-6.0043,-6.0043,-6.0043,-6.0043,-6.0043,0.0,0.0,0.0,0.0,0.0,0.0,1.0352,0.8382,0.0,0.0,0.3987,0.1646,-0.3486,-0.7054,-0.8819,-0.7822,-1.206,-1.5656,-1.6297,-1.6284,-1.7192,-1.9993,0.0,0.0,-1.9034,-1.7966,-1.7286,-1.7391,-1.7215,-1.2247,-0.0665,-0.9487,-1.6264,-1.8941,-1.9422,-1.9679,-2.023,-1.9686,-1.9824,-2.0385,-1.9686,-2.1073,-2.4059,-2.4059,-2.6455,-3.0823,-3.3918,-3.5661,-3.6522,-3.6603,-3.8503,-4.1033,-4.1033,-4.1033,-4.1033,-4.1033,-4.1033,-4.1033,-4.1033,-4.1033,-4.1033,-4.1033,-4.1033,-4.0994,-4.0747,-4.018,-3.9527,-3.8975,-3.9302,-3.9573,-3.9825,-3.9578,-3.9267,-3.9033,-3.8721,-3.8423,-3.8189,-3.7877,-3.7644,-3.7644,-3.7644,-3.7644,-3.7644,-3.7644,-3.7644,-3.7644,-3.7644,-3.7644,-3.7644,-3.7644,-3.7644,-3.7644,-3.7644,-3.7644,-3.7644,-3.8729,-4.1324,-4.5872,-4.7997,-5.0697,-5.4269,-5.68,-5.7824,-5.6907,-5.9077,-6.0043,-6.0043,-6.0043,-6.0043,-6.0043,-6.0043,-6.0043,1.0495,0.0,0.0,0.0,0.0,0.0,0.0,0.0,0.0,-0.1582,-0.2135,-0.324,-0.7151,-1.1979,-1.4384,-1.062,-1.3393,-1.6238,-1.7346,-1.6633,-1.7676,-2.1634,-2.1328,-2.0138,-1.7555,-1.7207,-1.7393,0.0,-1.436,-0.8916,-0.0437,-1.2169,-1.9105,-1.9138,-1.9488,-2.0016,-2.0483,-1.9844,-1.9768,-2.0249,-1.9811,-2.1691,-2.5631,-2.7113,-2.989,-3.3747,-3.7304,-3.9625,-4.0893,-4.0952,-4.0903,-4.1033,-4.1033,-4.1033,-4.1033,-4.1033,-4.1033,-4.1033,-4.1033,-4.1033,-4.1033,-4.1033,-4.1033,-4.1033,-4.1033,-4.0464,-3.9783,-3.9386,-3.9552,-3.986,-4.0409,-4.0111,-3.976,-3.9591,-3.9124,-3.8682,-3.8527,-3.8163,-3.7838,-3.7682,-3.7644,-3.7644,-3.7644,-3.7644,-3.7644,-3.7644,-3.7644,-3.7644,-3.7644,-3.7644,-3.7644,-3.7644,-3.7644,-3.7708,-3.7864,-3.7877,-4.0575,-4.6444,-4.778,-4.963,-5.2864,-5.6893,-5.7819,-5.5304,-5.8466,-6.0043,-6.0043,-6.0043,-6.0043,-6.0043,-6.0043,-6.0043,0.0,0.0,0.0,0.9844,0.9693,0.7582,0.0175,0.0,-0.4066,-0.6893,-0.7582,-0.7585,-0.7802,-1.1949,-1.5607,-1.5828,-1.629,-1.7179,-1.9426,-1.7578,-1.8529,-2.481,-1.978,-1.6102,-1.7151,-1.7213,-1.7215,-1.7228,-0.6944,-0.0437,-0.0,-1.2037,-1.9132,-1.9145,-1.9686,-2.023,-2.0751,-2.0239,-2.0002,-2.0021,-2.0063,-2.3141,-2.9134,-3.4877,-3.7448,-3.7508,-3.8851,-3.9895,-4.1039,-4.1058,-4.1077,-4.1033,-4.1033,-4.1033,-4.1033,-4.1033,-4.1033,-4.1033,-4.1033,-4.1033,-4.1033,-4.1033,-4.1033,-4.1033,-4.1033,-4.102,-4.1007,-4.0994,-4.0166,-3.9612,-4.0722,-4.0994,-4.0838,-4.0012,-3.947,-3.915,-3.8604,-3.8488,-3.8548,-3.776,-3.7644,-3.7644,-3.7644,-3.7644,-3.7644,-3.7644,-3.7644,-3.7644,-3.7644,-3.7644,-3.7644,-3.7644,-3.7644,-3.7877,-3.8423,-3.8462,-4.1382,-4.7843,-4.923,-5.1115,-5.4671,-5.8071,-5.8725,-5.6124,-5.8762,-6.0043,-6.0043,-6.0043,-6.0043,-6.0043,-6.0043,-6.0043,0.8371,0.8339,0.8569,0.7113,0.4918,0.2301,-0.1419,0.0,-1.1811,-1.2679,-1.2938,-1.2933,-1.2922,-1.4634,-1.6047,-1.6304,-1.7828,-1.9259,-1.9929,-2.1605,-2.2821,-2.2801,-2.4399,-2.345,-1.7808,-1.7393,-1.4139,-0.6291,-0.219,0.0,0.0,-1.2124,-1.8961,-1.9122,-1.9218,-1.9829,-2.0744,-2.0259,-2.0282,-2.0568,-2.0443,-2.548,-3.4856,-3.6812,-3.7804,-3.7705,-3.809,-3.8462,-3.8885,-4.037,-4.1122,-4.1033,-4.1033,-4.1033,-4.1033,-4.1033,-4.1033,-4.1033,-4.1033,-4.1033,-4.1033,-4.1033,-4.1033,-4.1033,-4.1033,-4.1033,-4.0683,-3.9208,-3.9642,-4.0412,-4.0847,-4.103,-4.0632,-3.9771,-3.9501,-3.9367,-3.818,-3.7934,-3.7877,-3.7682,-3.7644,-3.7644,-3.7644,-3.7644,-3.7644,-3.7644,-3.7644,-3.7644,-3.7644,-3.7644,-3.7644,-3.7644,-3.7994,-3.8535,-3.8718,-3.8838,-4.072,-4.503,-4.6107,-4.8353,-5.2345,-5.5775,-5.7592,-5.6893,-5.9575,-6.0593,-6.0043,-6.0043,-6.0043,-6.0043,-6.0043,-6.0043,0.678,0.5812,0.532,0.3726,0.169,-0.1255,-0.6071,-1.1467,-1.5555,-1.5522,-1.5509,-1.549,-1.5477,-1.5895,-1.6525,-1.7491,-1.922,-2.0855,-2.2497,-2.5693,-2.7048,-2.4868,-2.5296,-2.3728,-1.7836,-1.3566,-0.8027,-0.0651,0.0,-0.2005,-0.6512,-1.4529,-1.9035,-1.9128,-1.9125,-1.9481,-2.023,-2.0358,-2.036,-2.0747,-2.0814,-2.7165,-3.9003,-3.8942,-3.8411,-3.7679,-3.7629,-3.8139,-3.8904,-4.0422,-4.1109,-4.1033,-4.1033,-4.1033,-4.1033,-4.1033,-4.1033,-4.1033,-4.1033,-4.1033,-4.1033,-4.1033,-4.1033,-4.1033,-4.1033,-4.1033,-4.0683,-3.9234,-3.9924,-4.0955,-4.1117,-4.103,-4.0929,-4.0027,-4.0206,-3.9896,-3.7994,-3.7808,-3.7637,-3.7682,-3.7644,-3.7644,-3.7644,-3.7644,-3.7644,-3.7644,-3.7644,-3.7644,-3.7644,-3.7644,-3.7721,-3.7676,-3.8012,-3.8656,-3.9579,-3.9698,-4.1688,-4.6014,-4.7118,-4.7945,-4.8171,-5.5073,-5.8222,-5.6379,-5.9654,-6.0859,-6.0043,-6.0043,-6.0043,-6.0043,-6.0043,-6.0043,0.4509,0.2117,0.0,0.0,0.0,-0.2809,-1.3089,0.0,-1.5302,-1.5496,-1.5464,-1.5638,-1.5664,-1.5915,-1.6902,-1.945,-2.033,-2.2024,-2.6708,-2.9086,-3.0442,-2.9972,-2.2528,-1.7093,-1.6371,-0.6446,0.0,0.0,-0.0662,-0.6283,-1.8354,-1.9098,-1.9122,-1.9145,-1.9156,-1.9179,-1.9215,-2.0275,-2.0747,-2.085,-2.1455,-2.8682,-4.0978,-4.0828,-3.9788,-3.7747,-3.7782,-3.915,-4.1003,-4.1043,-4.109,-4.1033,-4.1033,-4.1033,-4.1033,-4.1033,-4.1033,-4.1033,-4.1033,-4.1033,-4.1033,-4.1033,-4.1033,-4.1033,-4.1033,-4.1033,-4.1033,-4.1033,-4.1033,-4.1033,-4.1033,-4.1033,-4.1033,-4.1033,-4.1033,-4.0451,-3.8289,-3.7867,-3.7821,-3.7747,-3.7644,-3.7644,-3.7644,-3.7644,-3.7644,-3.7644,-3.7644,-3.7644,-3.7644,-3.767,-3.7637,-3.7654,-3.7756,-3.8747,-4.0897,-4.1029,-4.358,-4.9641,-5.144,-4.9761,-4.369,-5.6309,-6.0869,-5.5381,-5.9093,-6.0897,-6.0043,-6.0043,-6.0043,-6.0043,-6.0043,-6.0043,0.0583,0.0478,0.0,0.0,0.0,-0.2705,-1.3133,-1.3528,-1.2501,0.0,-1.5631,-1.5756,-1.6185,-1.6515,-1.7601,-2.0719,-2.2702,-2.428,-2.5477,-2.7507,-2.6865,-2.1386,-1.8643,-1.3963,-0.5162,-0.1732,0.0,0.0,-0.8034,-1.4804,-1.8788,-1.8995,-1.904,-1.9106,-1.9136,-1.9429,-2.0236,-2.059,-2.0797,-2.0864,-3.1026,-3.7711,-4.1046,-3.9206,-3.8241,-3.7855,-3.9579,-4.0592,-4.1043,-4.0939,-4.0916,-4.1033,-4.1033,-4.1033,-4.1033,-4.1033,-4.1033,-4.1033,-4.1033,-4.1033,-4.1033,-4.1033,-4.1033,-4.1033,-4.1033,-4.1033,-4.1033,-4.1033,-4.1033,-4.1033,-4.1033,-4.1033,-4.1033,-4.1033,-4.1033,-4.0838,-4.0377,-3.8975,-3.7766,-3.7812,-3.7644,-3.7644,-3.7644,-3.7644,-3.7644,-3.7644,-3.7644,-3.7644,-3.7644,-3.774,-3.7795,-3.7693,-3.9241,-4.042,-4.099,-4.1117,-4.1822,-4.3412,-4.3737,-4.6421,-5.1582,-5.9942,-6.3411,-6.0683,-6.0531,-6.0255,-6.0043,-6.0043,-6.0043,-6.0043,-6.0043,-6.0043,-0.0888,0.0,0.0,0.0,-0.2346,-0.6442,-1.3935,-1.41,-1.3277,-1.5063,-1.575,-1.6308,-1.7821,-1.8468,-2.0031,-2.4177,-2.6001,-2.6794,-2.6337,-2.7281,-2.5295,-1.8072,-1.7226,-1.2656,-0.1083,0.0,-0.1085,-0.3684,-1.2102,-1.7622,-1.8275,-1.8789,-1.9092,-1.9092,-1.9012,-1.9566,-2.0751,-2.0835,-2.0723,-2.0936,-3.4561,-4.1072,-4.0916,-3.9812,-3.8662,-3.7826,-3.9987,-4.0898,-4.1117,-4.0916,-4.1033,-4.1033,-4.1033,-4.1033,-4.1033,-4.1033,-4.1033,-4.1033,-4.1033,-4.1033,-4.1033,-4.1033,-4.1033,-4.1033,-4.1033,-4.1033,-4.1033,-4.1033,-4.1033,-4.1033,-4.1033,-4.1033,-4.1033,-4.1033,-4.1033,-4.103,-4.107,-3.916,-3.7621,-3.7804,-3.7738,-3.7644,-3.7644,-3.7644,-3.7644,-3.7644,-3.7644,-3.7644,-3.7644,-3.7628,-3.8064,-3.9097,-4.021,-4.1095,-4.1077,-4.1109,-4.0993,-4.0995,-4.2097,-4.4757,-5.0049,-5.9625,-6.3933,-6.1594,-6.0624,-6.0134,-6.0043,-6.0043,-6.0043,-6.0043,-6.0043,-6.0043,-0.101,0.0,-0.0357,-0.1729,-0.6637,-1.1924,-1.492,-1.5477,-1.5638,0.0,-1.5875,-1.7052,-2.0289,-2.1445,-2.3849,-2.8792,-2.9716,-2.9428,-2.8525,-2.7507,-2.4487,-1.7983,-1.5952,-1.1099,-0.0867,-0.1302,-0.4339,-0.953,-1.4525,-1.7313,-1.7533,-1.8504,-1.9053,-1.9092,-1.9166,-1.9462,-2.0463,-2.0643,-2.1742,-2.3728,-3.5014,-4.0847,-4.099,-4.0963,-3.9907,-3.773,-4.0118,-4.1058,-4.1033,-4.1033,-4.1033,-4.1033,-4.1033,-4.1033,-4.1033,-4.1033,-4.1033,-4.1033,-4.1033,-4.1033,-4.1033,-4.1033,-4.1033,-4.1033,-4.1033,-4.1033,-4.1033,-4.1033,-4.1033,-4.1033,-4.1033,-4.1033,-4.1033,-4.1033,-4.0981,-4.1038,-4.0994,-4.0433,-3.9456,-3.8079,-3.7687,-3.7778,-3.7778,-3.7605,-3.7644,-3.7644,-3.7708,-3.7747,-3.7747,-3.7795,-3.8631,-4.0749,-4.1044,-4.1038,-4.0994,-4.1098,-4.1096,-4.1097,-4.3316,-4.4535,-4.4593,-5.7732,-6.3714,-6.0828,-6.0406,-6.0479,-6.0479,-6.0119,-6.0043,-6.0043,-6.0043,-6.0043,-0.1012,0.0,-0.2034,-1.0657,-1.3722,-1.4895,-1.5496,-1.5464,-1.5631,-1.5638,-1.5581,-1.7442,-2.2934,-2.5614,-2.8459,-3.2826,-3.339,-3.2644,-2.9831,-2.6162,-2.2114,-1.7801,-0.8892,-0.2171,-0.0217,-0.8706,-1.4632,-1.5679,-1.6843,-1.7559,-1.7997,-1.8329,-1.8615,-1.9086,-1.9166,-1.9158,-1.9282,-2.0325,-2.6352,-3.7562,-3.8146,-3.9303,-4.099,-4.0963,-3.9907,-3.773,-4.0118,-4.1058,-4.1033,-4.1033,-4.1033,-4.1033,-4.1033,-4.1033,-4.1033,-4.1033,-4.1033,-4.1033,-4.1033,-4.1033,-4.1033,-4.1033,-4.1033,-4.1033,-4.1033,-4.1033,-4.1033,-4.1033,-4.1033,-4.1033,-4.1033,-4.1033,-4.1033,-4.1033,-4.0978,-4.1031,-4.0923,-4.6755,-4.9135,-3.9517,-3.7667,-3.7751,-3.7751,-3.7621,-3.7644,-3.7644,-3.7779,-3.7808,-3.7808,-3.7663,-3.8579,-4.0844,-4.109,-4.0942,-4.1033,-4.0912,-4.1123,-4.1098,-4.3246,-4.4442,-4.4616,-5.7766,-6.4634,-6.4187,-6.2852,-6.2055,-6.2027,-6.0708,-6.0043,-6.0043,-6.0043,-6.0043,-0.1024,-0.3951,-0.9337,-1.4244,-1.5592,-1.5464,-1.5464,-1.5644,-1.6052,-1.7545,-1.7835,-2.0001,-2.7574,-2.987,-3.2369,-3.7706,-3.5987,-3.3201,-3.0232,-2.5477,-2.0957,-1.7673,-1.2399,-0.8243,-0.6284,-1.2841,-1.7248,-1.7196,-1.7586,-1.7808,-1.7775,-1.8335,-1.8648,-1.8641,-1.9018,-1.9314,-1.9494,-2.7431,-3.4638,-4.0965,-3.9403,-3.9498,-4.1003,-4.0991,-4.0194,-3.8552,-4.0181,-4.1069,-4.1033,-4.1033,-4.1033,-4.1033,-4.1033,-4.1033,-4.1033,-4.1033,-4.1033,-4.1033,-4.1033,-4.1033,-4.1033,-4.1033,-4.1033,-4.1033,-4.1033,-4.1033,-4.1033,-4.1033,-4.1033,-4.1033,-4.1033,-4.1033,-4.0968,-4.0978,-4.6051,-5.0859,-5.1044,-5.3176,-5.3314,-4.771,-4.6819,-4.4824,-3.8858,-3.7792,-3.7734,-3.7766,-3.7782,-3.8077,-3.9175,-3.9393,-3.9909,-4.099,-4.0978,-4.089,-4.09,-4.0893,-4.1669,-4.2826,-4.3792,-4.773,-5.4761,-6.1458,-6.5016,-6.5033,-6.4274,-6.3467,-6.2528,-6.1797,-6.0803,-6.0043,-6.0043,-6.0043,-0.2542,-0.7696,-1.4125,-1.5335,-1.5466,-1.5565,-1.5691,-1.5723,-1.6556,-1.9894,-2.0625,-2.3373,-3.1919,-3.4815,-3.736,-4.1533,-3.7993,-3.3713,-3.0198,-2.5106,-2.0791,-1.7647,-1.7235,-1.6123,-1.3244,-1.5452,-1.7209,-1.7378,-1.7794,-1.7972,-1.7347,-1.8264,-1.9088,-1.9438,-2.0122,-2.1252,-2.302,-3.4105,-4.0085,-4.1117,-4.0064,-4.0181,-4.1003,-4.1003,-4.0469,-3.9642,-4.0723,-4.1051,-4.1033,-4.1033,-4.0981,-4.1122,-4.1122,-4.1962,-4.3116,-4.4521,-4.3443,-4.1033,-4.1033,-4.1033,-4.1033,-4.1033,-4.1033,-4.1033,-4.1033,-4.1033,-4.1033,-4.1033,-4.1033,-4.1007,-4.0903,-4.1122,-4.1802,-4.4459,-5.2738,-5.9975,-6.01,-5.8048,-5.5988,-5.5181,-5.4911,-5.1363,-3.9726,-3.7819,-3.7715,-3.7642,-3.8167,-3.902,-4.0802,-4.1097,-4.0933,-4.0933,-4.1043,-4.0993,-4.0982,-4.1438,-4.2461,-4.4501,-4.7387,-5.3148,-6.3114,-6.4517,-6.4976,-6.4984,-6.4512,-6.3671,-6.245,-6.2258,-6.1433,-6.0043,-6.0043,-6.0174,-0.693,-0.7736,-0.9535,-1.4408,-1.544,-1.5367,-1.5915,-1.6033,-1.7406,-2.2282,-2.3377,-2.5888,-3.4397,-4.1245,-4.4738,-4.2513,-3.9558,-3.5644,-3.0392,-2.5813,-2.1513,-1.7653,-1.7261,-1.7267,-1.6784,-1.7006,-1.7209,-1.7378,-1.7424,-1.755,-1.778,-1.8123,-1.9892,-2.3425,-2.4173,-2.7107,-3.253,-3.4094,-3.6956,-4.1056,-4.0799,-4.1004,-4.1003,-4.1003,-4.1003,-4.0749,-4.1003,-4.1051,-4.1033,-4.1033,-4.103,-4.1135,-4.1135,-4.4501,-5.0476,-5.6155,-5.0885,-4.1033,-4.1033,-4.1033,-4.1033,-4.1033,-4.1033,-4.1033,-4.1033,-4.1033,-4.1033,-4.1033,-4.1033,-4.0942,-4.0999,-4.1135,-4.3922,-5.5531,-5.9279,-6.0018,-6.0088,-5.9742,-5.8597,-5.5645,-5.4974,-5.1264,-3.9701,-3.7686,-3.7654,-3.7705,-3.9371,-4.0858,-4.0924,-4.09,-4.0968,-4.0968,-4.1007,-4.0993,-4.0982,-4.2943,-4.4172,-4.4549,-5.6062,-6.1737,-5.8974,-6.2609,-6.494,-6.4883,-6.3488,-6.2363,-6.1755,-6.0731,-6.0229,-6.0043,-6.0043,-6.0056,-0.3705,-0.7593,-1.2885,-1.4481,-1.4919,-1.5242,-1.548,-1.7962,-2.1306,-2.5495,-2.7448,-3.034,-3.6798,-4.1878,0.0,-4.3829,-3.8997,-3.395,-3.0174,-2.3872,-1.8903,-1.7398,-1.7202,-1.7209,-1.7405,-1.7405,-1.7398,-1.7378,-1.753,-1.8535,-2.0384,-2.1122,-2.2985,-2.672,-2.9441,-3.2265,-3.4908,-3.7166,-3.912,-4.0978,-4.0942,-4.0929,-4.0991,-4.1344,-4.1305,-4.1004,-4.1357,-4.1422,-4.1033,-4.1033,-4.2655,-4.497,-4.6365,-5.0704,-5.6032,-5.4696,-5.1149,-4.6216,-4.2327,-4.1033,-4.1033,-4.1033,-4.1033,-4.1033,-4.1033,-4.1033,-4.1033,-4.1033,-4.1083,-4.1064,-4.1122,-4.6669,-5.3786,-5.8817,-5.9965,-6.0043,-5.9984,-6.0023,-5.9013,-5.5731,-5.4908,-5.1402,-3.9684,-3.7654,-3.8203,-3.9527,-4.0487,-4.1122,-4.0939,-4.0903,-4.1033,-4.1033,-4.1058,-4.0944,-4.0921,-4.3199,-4.4435,-4.4435,-5.7485,-6.4094,-6.2307,-6.3881,-6.4959,-6.4959,-6.4335,-6.3484,-6.2198,-6.2056,-6.1745,-6.1089,-6.1333,-6.3046,-0.2597,-0.8556,-1.4946,-1.4599,-1.5035,-1.582,-1.6464,-1.9682,-2.3186,-2.567,-2.8464,-3.2524,-3.8719,-4.1173,0.0,-4.1581,-3.6424,-3.1321,-2.7739,-2.1546,-1.7378,-1.7378,-1.7378,-1.7378,-1.7378,-1.7378,-1.7378,-1.7378,-1.7635,-1.9056,-2.1973,-2.2969,-2.5408,-2.9971,-3.3236,-3.5519,-3.7173,-3.9819,-4.1033,-4.1033,-4.1033,-4.1033,-4.1059,-4.163,-4.1578,-4.1059,-4.1643,-4.1565,-4.1033,-4.1033,-4.3956,-4.8379,-5.0066,-5.3767,-5.7953,-5.3308,-5.0511,-4.8459,-4.2817,-4.1033,-4.1033,-4.1033,-4.1033,-4.1007,-4.1109,-4.0929,-4.1511,-4.3413,-4.2357,-4.1832,-4.5642,-5.3331,-5.9985,-6.0024,-6.0043,-6.0043,-6.0043,-5.996,-5.931,-5.6951,-5.6504,-5.4027,-4.5658,-4.1294,-3.9147,-4.0896,-4.091,-4.1117,-4.0994,-4.1033,-4.1033,-4.1033,-4.0989,-4.1199,-4.1887,-4.346,-4.4608,-4.4547,-5.7418,-6.4928,-6.5016,-6.4959,-6.4959,-6.4959,-6.4959,-6.3957,-6.1913,-6.2199,-6.2101,-6.1946,-6.2283,-6.5462,-0.6388,-1.0623,-1.3933,-1.452,-1.5896,-1.74,-1.9741,-2.099,-2.1722,-2.1298,-2.5081,-3.1183,-4.0273,-3.9817,0.0,-3.4294,-3.1546,-2.7947,-2.241,-1.9059,-1.7378,-1.7378,-1.7378,-1.7378,-1.7378,-1.7378,-1.7378,-1.7378,-1.7635,-1.8964,-2.1407,-2.2614,-2.6322,-3.3222,-3.4199,-3.667,-4.1007,-4.1033,-4.1033,-4.1033,-4.1033,-4.1033,-4.1059,-4.163,-4.1578,-4.1059,-4.1643,-4.1565,-4.1033,-4.1033,-4.4828,-5.0494,-5.051,-5.2409,-5.5077,-5.402,-5.037,-4.5355,-4.2233,-4.1033,-4.1033,-4.1033,-4.1033,-4.0942,-4.0972,-4.0913,-4.222,-4.8611,-4.588,-4.3865,-5.6571,-6.004,-6.0062,-6.0043,-6.0043,-6.0043,-6.0043,-5.996,-6.0148,-5.9927,-5.9927,-5.9897,-5.9796,-4.9299,-4.0936,-4.0937,-4.0952,-4.1033,-4.1033,-4.1033,-4.1033,-4.1033,-4.0989,-4.189,-4.4191,-4.4413,-4.4547,-4.4483,-5.7428,-6.4928,-6.5016,-6.4959,-6.4959,-6.4959,-6.4959,-6.3283,-5.9963,-5.9981,-6.1071,-6.2529,-6.2529,-6.6563,-0.9777,-1.3439,-1.4707,-1.3749,-1.4174,-1.7055,-2.5412,-2.8216,-2.9293,-3.0036,-3.0124,-3.1683,-3.7002,-3.8926,0.0,0.0,-3.1021,-2.7209,-2.3106,-1.9509,-1.7378,-1.7378,-1.7378,-1.7378,-1.7378,-1.7378,-1.7378,-1.7378,-1.9154,-2.1915,-2.5335,-2.8216,-3.2073,-3.7325,-3.8064,-3.9287,-4.102,-4.1033,-4.1033,-4.1033,-4.1435,-4.1409,-4.1072,-4.2435,-4.2305,-4.1085,-4.2045,-4.1929,-4.1033,-4.1033,-4.222,-4.4358,-4.885,-5.3828,-5.7898,-5.3246,-5.0369,-4.8389,-4.2939,-4.1033,-4.1265,-4.3671,-4.2709,-4.1717,-4.6296,-4.6145,-4.5611,-5.1052,-5.1201,-5.136,-5.8292,-5.9967,-6.0043,-6.0043,-6.0043,-6.0043,-6.0043,-6.0098,-5.9945,-5.9945,-6.0081,-6.0097,-6.0022,-5.3195,-4.6007,-4.1776,-4.0929,-4.1033,-4.1033,-4.1033,-4.1033,-4.1033,-4.1033,-4.2029,-4.4209,-4.8777,-4.9541,-4.4817,-5.7243,-6.4928,-6.4997,-6.4959,-6.4959,-6.4959,-6.4901,-6.4428,-6.3321,-6.3486,-6.3694,-6.42,-6.42,-6.7825,-1.1319,-1.4356,-1.4666,-1.3648,-1.7432,-2.3365,-3.0499,-3.2642,-3.3131,-3.2987,-3.144,-3.0753,-3.2484,-3.5691,-3.583,-2.8843,-2.5717,-2.3345,-2.1005,-1.8874,-1.7378,-1.7378,-1.7378,-1.7378,-1.7378,-1.866,-1.9295,-1.8853,-2.1841,-2.5214,-2.8789,-3.1626,-3.4947,-3.9044,-3.989,-4.0461,-4.1033,-4.1033,-4.1033,-4.1033,-4.1617,-4.1708,-4.1396,-4.2682,-4.2565,-4.1396,-4.211,-4.1799,-4.103,-4.0968,-4.0929,-4.1749,-4.8058,-5.4543,-5.9323,-5.4294,-5.1437,-4.9784,-4.4614,-4.1988,-4.1511,-4.4871,-4.4386,-4.4143,-5.0273,-5.0052,-4.8927,-5.437,-5.5112,-5.5099,-5.9039,-6.0043,-6.0043,-6.0043,-6.0043,-6.0043,-6.0043,-6.0043,-6.0043,-6.0043,-6.0137,-5.9612,-5.7971,-5.2937,-4.7448,-4.177,-4.1033,-4.1033,-4.1033,-4.1033,-4.1033,-4.1033,-4.1008,-4.1977,-4.436,-4.8416,-5.1244,-5.2144,-6.028,-6.4901,-6.4978,-6.4959,-6.4827,-6.4826,-6.4953,-6.5466,-6.6884,-6.6788,-6.6923,-6.6786,-6.5471,-6.9571,-1.1291,-1.3812,-1.4096,-1.4977,-2.4422,-3.3488,-3.3518,-3.3821,-3.3756,-3.182,-3.0543,-2.9649,-2.8489,-3.1433,-3.0255,-1.9226,-1.7446,-1.7332,-1.7235,0.0,-1.7241,-1.7222,-1.7222,-1.7202,-1.7365,-2.0562,-2.2266,-2.1832,-2.5289,-2.8851,-3.2026,-3.3415,-3.5887,-3.9371,-3.9955,-4.05,-4.1033,-4.1033,-4.1046,-4.1098,-4.1682,-4.1955,-4.1981,-4.2578,-4.2755,-4.2391,-4.1929,-4.1605,-4.139,-4.1611,-4.1518,-4.1578,-4.8158,-5.4276,-5.9304,-5.6198,-5.3345,-5.051,-4.7223,-4.4143,-4.1988,-4.5341,-4.6291,-4.6998,-5.3595,-5.3345,-5.2158,-5.8374,-5.7879,-5.6198,-5.9323,-6.0043,-6.0043,-6.0043,-6.0043,-6.0043,-6.0043,-6.0043,-6.0043,-6.0043,-5.9797,-5.8484,-5.4054,-4.9973,-4.588,-4.1704,-4.1033,-4.1033,-4.1033,-4.1033,-4.1046,-4.1085,-4.1054,-4.1968,-4.43,-4.4724,-5.0565,-6.4146,-6.4959,-6.4959,-6.4959,-6.5016,-6.5073,-6.516,-6.504,-6.6763,-6.9943,-7.0077,-6.9993,-6.9683,-6.6404,-7.1029,-1.2071,-1.3843,-1.7486,-2.7051,-2.791,-2.6278,-2.6266,-3.0754,-3.5437,-3.7404,-3.7704,-3.7429,-3.7097,-3.4003,0.0,-2.0128,-1.7961,-1.7353,-1.7317,-1.7301,-1.7357,-1.7368,-1.7342,-1.7366,-1.7273,-1.8072,-2.031,-2.4496,-2.9575,-3.3623,-3.6074,-3.8241,-3.98,-4.0512,-4.0808,-4.0903,-4.1033,-4.1033,-4.098,-4.1118,-4.1987,-4.2539,-4.2578,-4.3578,-4.4805,-4.5895,-4.2733,-4.2523,-4.497,-4.7386,-4.5384,-4.1805,-4.9906,-5.3838,-5.5277,-5.5186,-5.4758,-5.3595,-5.051,-4.7448,-4.5568,-5.1234,-4.9831,-4.7478,-5.6234,-5.6677,-5.5007,-5.8849,-5.9551,-5.9077,-5.9797,-6.0043,-6.0043,-6.0043,-6.0043,-6.0043,-6.0043,-6.0043,-6.0043,-6.0043,-5.8126,-5.5274,-5.1803,-4.8389,-4.4999,-4.1498,-4.1033,-4.1033,-4.1033,-4.1033,-4.1201,-4.1643,-4.2188,-4.2721,-4.3732,-4.6687,-5.3032,-6.4184,-6.4959,-6.4959,-6.4959,-6.5586,-6.6022,-6.6231,-6.7172,-6.8319,-6.9889,-7.0001,-6.9241,-6.8113,-6.5967,-6.6473,-1.2833,-1.3902,-1.7623,-2.9622,-2.9794,-2.7374,-2.8753,-3.3323,-3.7865,-3.971,-3.9969,-4.0065,-3.9968,-3.4012,-2.6586,-1.8705,0.0,-1.743,-1.804,-1.8551,-1.896,0.0,0.0,-1.7315,-1.7359,-2.194,-2.6271,-2.9477,-3.3499,-3.6696,-3.8418,-3.9967,-4.1016,-4.109,-4.1135,-4.1033,-4.1033,-4.1019,-4.1015,-4.1033,-4.2734,-4.3434,-4.3705,-4.3773,-4.5212,-4.7833,0.0,-4.6971,-4.9499,-4.9269,-4.8287,-4.7394,-5.2376,-5.437,-5.4619,-5.6641,-5.7403,-5.6925,-5.3828,-4.9815,-4.6773,-5.1469,-5.0746,-4.9356,-5.5737,-5.765,-5.7879,-5.9569,-6.0043,-6.0043,-6.0043,-6.0043,-6.0043,-6.0043,-6.0043,-6.0043,-6.0043,-6.0043,-5.9569,-5.8126,-5.6447,-5.3828,-4.9103,-4.6998,-4.4871,-4.1511,-4.1033,-4.1033,-4.1033,-4.1033,-4.1253,-4.1825,-4.2396,-4.3726,-4.5811,-4.9742,-5.4985,-6.2131,-6.4184,-6.5149,-6.5529,-6.5984,-6.6611,-6.7701,-6.8319,-6.9003,-7.004,-6.9465,-6.881,-6.7777,-6.5775,-6.4959,-1.3802,-1.4083,-1.6747,-2.7863,-3.0403,-3.0964,-3.4251,-3.7659,-3.9978,-4.0015,-4.0031,-4.0064,-4.0086,-3.336,-2.5084,-1.6697,-1.6029,-1.7273,0.0,0.0,-2.0145,-2.035,0.0,-1.7793,-1.7353,-2.7538,-3.4158,-3.4184,-3.6282,-3.8306,-3.947,-4.0474,-4.0999,-4.102,-4.1033,-4.1072,-4.0903,-4.1066,-4.1123,-4.1579,-4.3613,-4.444,-4.4572,-4.3535,-4.5636,-5.0513,0.0,-5.2679,-5.3345,-5.0418,-5.0923,-5.3452,-5.5151,-5.595,-5.6216,-5.9077,-6.0043,-5.9569,-5.6925,-5.2191,-4.7702,-5.051,-5.1201,-5.1672,-5.4294,-5.7403,-6.0043,-6.0043,-6.0043,-6.0043,-6.0043,-6.0043,-6.0043,-6.0043,-6.0043,-6.0043,-6.0043,-5.9569,-5.8602,-5.5719,-5.4526,-5.2191,-4.6773,-4.5582,-4.4143,-4.1511,-4.1033,-4.1033,-4.1033,-4.1033,-4.1318,-4.2071,-4.2578,-4.4426,-4.8014,-5.2322,-5.6442,-5.9738,-6.3344,-6.5491,-6.6193,-6.6231,-6.7047,-6.8756,-6.8927,-6.9325,-7.0009,-6.895,-6.8165,-6.8127,-6.6062,-6.4959,-1.4693,-1.5309,-1.775,-2.8028,-2.9239,-2.9173,-3.3929,-3.762,-4.0088,-4.0068,-4.0008,-4.0002,-4.0096,-3.4739,-2.6675,-1.583,-1.4167,-1.5507,-1.8508,-1.824,-1.7821,-1.7768,-1.9299,0.0,-1.745,-2.7629,-3.4275,-3.4109,-3.6337,-3.8708,-4.0672,-4.091,-4.0999,-4.102,-4.1033,-4.0993,-4.0919,-4.0995,-4.2064,-4.3916,-4.4453,-4.4541,-4.4544,-4.4226,-4.9339,-5.8359,0.0,0.0,-5.3301,-5.6746,-5.5419,-5.1677,-5.7184,-5.9323,-5.9323,-5.9816,-6.0043,-6.0043,-5.9569,-5.6925,-5.3828,-5.4294,-5.4526,-5.4526,-5.5007,-5.7403,-6.0043,-6.0043,-6.0043,-6.0043,-6.0043,-6.0043,-6.0043,-6.0043,-6.0043,-6.0043,-6.0043,-5.7879,-5.5737,-5.5239,-5.1014,-4.6998,-4.6065,-4.3671,-4.1511,-4.1033,-4.1033,-4.1033,-4.1033,-4.1033,-4.1617,-4.3149,-4.3396,-4.4348,-4.6475,-5.2008,-5.6942,-6.0321,-6.3961,-6.6098,-6.6231,-6.6231,-6.7047,-6.8756,-6.9477,-6.9895,-7.0009,-6.8319,-6.7484,-6.7446,-6.5756,-6.4959,-1.5071,-1.6093,-1.7661,-2.231,-2.6322,-2.945,-3.056,-3.6914,-4.2201,-4.0422,-3.9996,-3.8621,-3.4016,-3.0793,-2.5629,-1.5491,-1.3776,-1.4725,0.0,0.0,-1.7971,-1.7341,-2.3657,-2.7739,0.0,-3.1201,-3.5203,-3.776,-3.8901,-3.9855,-4.0963,-4.1025,-4.1043,-4.1033,-4.1033,-4.1032,-4.1021,-4.2219,-4.3482,-4.4587,-4.4627,-4.8489,-5.5179,-4.78,-5.0138,-5.982,-5.41,-5.4248,-5.8397,-5.9568,-5.8332,-5.6039,-5.8867,-6.0043,-6.0043,-6.0043,-6.0043,-6.0043,-6.0043,-5.9077,-5.7173,-5.3828,-5.3828,-5.499,-5.3111,-5.6501,-6.0707,-6.0707,-6.0707,-6.0229,-5.8539,-5.773,-5.7403,-5.7403,-5.7403,-5.7512,-5.7966,-5.684,-5.4679,-5.1326,-4.8247,-4.5743,-4.3482,-4.1988,-4.1033,-4.1033,-4.1033,-4.1149,-4.1461,-4.1227,-4.1799,-4.3837,-4.3759,-4.5048,-4.8697,-5.3697,-5.7298,-5.8222,-6.3332,-6.6231,-6.6231,-6.6649,-6.7484,-6.8775,-6.9591,-7.0009,-7.0009,-6.8281,-6.7446,-6.7408,-6.5737,-6.4181,-1.5981,0.0,-1.7199,-1.7283,-2.2412,-2.7711,0.0,-3.3733,-3.8904,-3.9495,-3.9785,-3.7643,-2.9648,-2.7819,-2.4387,-1.5275,-1.4589,-1.564,-1.7469,-1.8631,0.0,-1.7752,-2.7533,-3.4207,-3.4108,-3.4108,-3.5992,-4.0687,-4.098,-4.1018,-4.092,-4.1069,-4.1033,-4.1033,-4.0903,-4.1238,-4.1793,-4.3666,-4.4608,-4.46,-4.7769,-5.4793,-6.4458,-5.326,-5.2632,-5.9638,-5.2342,-5.4545,-6.308,-6.0977,-6.0037,-5.9993,-6.0003,-6.0176,-6.0043,-6.0043,-6.0043,-6.0062,-6.027,-6.0213,-5.9342,-5.4518,-5.4449,-5.5719,-5.2627,-5.5201,-5.9129,-5.9129,-5.8983,-5.8332,-5.5923,-5.4627,-5.4061,-5.4061,-5.4061,-5.4267,-5.4785,-5.448,-5.2597,-4.7683,-4.6128,-4.4665,-4.1787,-4.124,-4.1188,-4.1059,-4.1253,-4.1552,-4.1864,-4.1734,-4.2409,-4.4435,-4.4383,-4.5871,-5.0196,-5.5107,-5.7491,-5.6347,-6.3086,-6.6744,-6.6535,-6.7313,-6.8186,-6.9059,-6.9686,-7.0009,-7.0009,-6.7675,-6.6134,-6.5028,-6.3421,-6.1563,0.0,-1.8085,-1.7336,-1.7372,-1.7693,-2.0423,-2.867,-2.5437,0.0,-3.574,-3.9095,-3.8027,-3.1635,-2.8766,-2.441,-1.5309,-1.651,-1.8658,-1.8964,-1.9977,0.0,0.0,-2.8059,0.0,-3.4169,-3.4117,-3.6207,-4.0716,-4.1069,-4.0942,-4.0981,-4.102,-4.1033,-4.1033,-4.0989,-4.2097,-4.4132,-4.4448,-4.4441,-4.4609,-5.7366,-6.389,-6.4745,-6.0846,-5.9396,0.0,-6.255,-6.3881,-6.4524,-6.1421,-6.017,-6.0049,-5.9993,-6.0097,-6.0043,-6.0043,-6.0043,-6.0157,-6.0916,-6.0669,-6.0176,-6.0436,-6.0172,-5.9095,-5.595,-5.3902,-5.2841,-5.2841,-5.2569,-5.2018,-5.1777,-5.1262,-5.0966,-5.0966,-5.0966,-5.0923,-5.1632,-4.9387,-4.7422,-4.7273,-4.4707,-4.2128,-4.1838,-4.1825,-4.1656,-4.1111,-4.1942,-4.2435,-4.1955,-4.2773,-4.3876,-4.5149,-4.572,-4.6486,-4.7941,-5.4692,-5.7987,-5.6378,-6.4142,-6.8243,-6.7389,-6.8224,-6.9078,-6.9914,-6.999,-7.0009,-7.0009,-6.5549,-6.187,-5.8318,-5.6893,-5.6356,-1.8331,-1.8641,-1.8318,-1.8446,-1.8389,-1.9281,-2.2645,-2.2772,-2.4247,-3.185,-3.378,-3.3304,-3.0374,-2.8372,-2.6279,-2.2925,-1.9203,-1.716,-1.79,0.0,0.0,-2.0163,0.0,0.0,0.0,-3.7667,-3.9111,-4.0931,-4.0946,-4.1033,-4.1033,-4.1033,-4.1071,-4.0934,-4.0918,-4.2168,-4.4448,-4.4441,-4.4625,-4.4494,-4.9683,-5.6615,-6.4883,-6.3658,-6.304,-6.324,-6.448,-6.4895,0.0,-6.3696,-6.1941,-6.0006,-6.0061,-6.0148,-6.0041,-6.0041,-5.8585,-5.6903,-5.7186,-5.6288,-5.5349,-5.6809,-5.5225,-5.3215,-5.454,-5.3708,-5.2475,-5.3501,-5.2806,-5.1108,-4.7047,-4.7669,-4.8632,-4.5369,-4.6503,-4.8246,-4.8894,-4.8067,-4.6786,-4.5414,-4.3554,-4.2305,-4.1955,-4.189,-4.1825,-4.1604,-4.224,-4.2786,-4.2928,-4.3305,-4.4162,-4.5707,-4.6071,-4.6668,-4.7785,-5.4516,-5.85,-5.7284,-6.4536,-6.8642,-6.83,-6.8623,-6.8088,-6.6666,-6.6684,-6.5304,-6.3071,-6.1407,-5.9668,-5.7587,-5.6613,-5.5449,-1.3786,-1.3075,-1.3079,-1.2941,-1.6136,-1.9684,-2.2266,-2.4541,-2.7121,-3.0021,-3.0157,-2.9613,-2.9235,-2.8241,-2.7322,-2.738,-2.1048,-1.6361,-1.7292,0.0,0.0,0.0,0.0,0.0,0.0,0.0,-4.0938,-4.1097,-4.0939,-4.1098,-4.1019,-4.1019,-4.138,-4.2155,-4.2037,-4.2978,-4.4479,-4.4453,-4.4531,-4.4454,-4.456,-5.1762,-6.4916,-6.4995,-6.4818,-6.4818,-6.4818,-6.4938,-6.5035,-6.4826,-6.1104,-5.5462,-5.8843,-6.0076,-5.9768,-5.776,-5.5451,-5.3699,-5.4622,-5.3609,-5.2405,-5.3518,-5.2036,-5.0421,-5.3036,-5.2093,-4.9643,-4.825,-4.6978,-4.4807,-4.0441,-4.1408,-4.3068,-4.1823,-4.3411,-4.4976,-4.567,-4.4738,-4.3318,-4.1704,-4.1308,-4.1293,-4.093,-4.1646,-4.237,-4.2188,-4.2799,-4.3422,-4.3798,-4.4175,-4.4941,-4.6331,-4.6629,-4.7045,-4.7824,-5.3704,-5.6717,-5.6019,-6.2179,-6.5495,-6.5243,-6.5477,-6.4754,-6.2799,-6.2799,-6.142,-5.8917,-5.7828,-5.6764,-5.6314,-5.4484,-5.2959,-0.3362,0.0,0.0,0.0,-0.9608,-2.1002,-2.8995,-3.0608,-3.0567,-3.0629,-2.8977,-2.7839,-2.8985,-2.8224,-2.7322,-2.7369,-2.1699,-1.7319,-1.7324,-1.8278,0.0,0.0,0.0,0.0,-1.8943,-3.2357,-4.0929,-4.0951,-4.0954,0.0,-4.0995,-4.1033,-4.2167,-4.447,-4.4467,-4.4479,-4.4479,-4.4453,-4.4435,-4.4435,-4.4461,-5.1667,-6.4992,-6.4859,-6.4959,-6.4978,-6.4978,-6.4863,0.0,-6.4715,-5.6636,-4.5625,-5.5749,-5.9974,-5.9021,-5.2779,-5.0547,-5.1002,-5.3767,-5.3675,-5.2318,-5.2062,-5.187,-5.2015,-5.2015,-4.8349,-4.2803,-3.5327,-3.2642,-3.174,-3.174,-3.1995,-3.3673,-4.087,-4.1877,-4.1383,-4.2528,-3.909,-3.6188,-3.7071,-3.7629,-3.7969,-3.8234,-4.1169,-4.3396,-4.2825,-4.3708,-4.4435,-4.4448,-4.5473,-4.6421,-4.698,-4.7551,-4.7889,-4.7889,-5.1233,-5.3175,-5.2216,-5.6332,-5.8612,-5.7651,-5.8548,-5.8917,-5.8901,-5.8901,-5.8625,-5.8625,-5.5091,-5.3184,-5.317,-4.9566,-4.82,-0.0979,0.0,0.0,0.0,-0.8972,-2.0081,0.0,-2.7869,-2.6182,-2.9072,-2.8401,-2.7475,-2.7852,-2.5452,-2.2408,-1.9582,-1.8709,-1.8802,-1.9609,-2.0085,0.0,0.0,0.0,0.0,0.0,-2.4172,-3.0749,-4.0221,-4.097,-4.0912,-4.1054,-4.0896,-4.2193,-4.452,-4.4581,-4.4389,-4.4479,-4.4636,-4.4435,-4.4435,-4.4461,-5.1667,-6.4992,-6.4859,-6.4978,-6.4935,-6.4935,-6.4845,0.0,-5.4617,-4.8213,-4.4675,-4.6148,-4.6522,-4.6326,-4.4428,-4.4872,-4.6386,-4.7158,-4.7197,-4.5046,-3.4832,-3.1416,-3.1453,-3.1242,-3.0205,-2.8504,-2.6465,-2.5526,-2.5444,-2.5444,-3.3068,-3.9827,-3.5951,-3.4915,-3.5018,-3.6424,-3.5538,-3.4133,-3.4426,-3.3993,-3.5292,-4.0609,-4.2873,-4.4113,-4.3383,-4.3954,-4.4591,-4.5019,-4.5733,-4.6421,-4.698,-4.7551,-4.7889,-4.7889,-5.1898,-5.4354,-5.3175,-5.661,-5.8821,-5.8612,-5.8805,-5.6348,-5.0941,-5.0941,-4.8094,-4.2963,-4.1864,-4.2779,-4.5437,-4.4681,-4.5873,0.0,0.408,0.6976,0.1291,-0.5321,-1.324,-2.3712,0.0,-2.1622,-2.7373,-2.79,-2.7415,-2.7357,-2.5425,-2.1977,-1.6545,-1.7426,-1.9432,-2.0552,0.0,0.0,0.0,0.0,0.0,0.0,0.0,-2.4305,-3.2886,-3.3194,-3.2922,-3.3016,-3.8078,-4.1682,-4.3123,-4.3969,-4.4586,-4.4435,-4.4435,-4.4435,-4.4435,-4.4461,-5.1789,-6.4881,-6.5003,-6.501,-6.4582,-5.9068,-5.6698,0.0,-4.7805,-4.4413,-4.3745,-3.6095,-3.3178,-3.3606,-3.3603,-3.4472,-3.5792,-3.5798,-3.58,-3.4282,-2.5302,-2.2505,-2.2599,-2.2527,-2.2586,-2.2586,-2.2586,-2.2586,-2.2586,-2.2586,-2.9169,-3.4355,-2.9268,-2.8259,-2.867,-3.0185,-2.9575,-2.9159,-2.9152,-3.0871,-3.4023,-3.8369,-4.2078,-4.4284,-4.3897,-4.4142,-4.4889,-4.559,-4.6308,-4.7122,-4.7304,-4.7681,-4.7889,-4.7889,-5.0682,-5.1936,-5.1281,-5.319,-5.3655,-5.1517,-5.1307,-4.8636,-4.2963,-4.2974,-4.0682,-3.6102,-3.7569,-3.9724,-4.2287,-4.4383,-4.6574,0.2033,1.0347,1.5749,0.3139,0.0,-0.3259,-1.6178,0.0,0.0,-2.5811,-2.7428,-2.7339,-2.7407,-2.6763,-2.4028,-1.6917,-1.7604,-1.9632,0.0,0.0,0.0,0.0,0.0,0.0,0.0,0.0,0.0,-2.2257,-2.1312,-2.0763,-2.0884,-3.2558,-3.9207,-3.92,-4.2569,-4.4466,-4.4487,-4.4448,-4.4435,-4.4435,-4.4461,-5.1715,-6.4945,-6.3532,-6.2952,-6.2251,-4.9932,-4.46,0.0,-4.4387,-4.3619,-4.0971,-2.6615,-2.1532,-2.2451,-2.2638,-2.2422,-2.2611,-2.2479,-2.2619,-2.2619,-2.2619,-2.2455,-2.2593,-2.2593,-2.2593,-2.26,-2.26,-2.2593,-2.2593,-2.2593,-2.2586,-2.2646,-2.2606,-2.2619,-2.285,-2.4044,-2.3375,-2.2801,-2.2815,-2.7887,-3.2372,-3.2509,-3.7891,-4.3014,-4.444,-4.444,-4.5033,-4.6097,-4.7189,-4.7945,-4.7785,-4.7889,-4.7889,-4.7889,-4.7802,-4.7817,-4.783,-4.7855,-4.5715,-4.0823,-4.0049,-3.8353,-3.5181,-3.5181,-3.519,-3.4924,-3.9053,-4.1667,-4.2755,-4.6401,-4.9112,1.6369,1.0605,0.3654,0.0785,0.0,-0.351,-1.7382,-1.8604,0.0,0.0,-2.7446,-2.7463,-2.7351,0.0,-1.7784,0.0,-1.896,-2.0395,0.0,0.0,0.0,0.0,0.0,0.0,0.0,0.0,0.0,0.0,-2.1057,-2.0783,-2.0853,-2.3632,-2.507,-2.5219,-3.7686,-4.4481,-4.4555,-4.4578,-4.4435,-4.4435,-4.4461,-5.1715,-6.4593,-5.366,-4.8846,-4.8777,-4.5769,-4.4598,-4.457,-4.4642,-3.7563,-2.6899,-2.3422,-2.2359,-2.2544,-2.2599,-2.2422,-2.2679,-2.2494,-2.2527,-2.2527,-2.2527,-2.258,-2.2639,-2.2639,-2.2679,-2.2437,-2.2437,-2.2679,-2.2639,-2.2639,-2.2613,-2.26,-2.2659,-2.336,-2.4044,-2.4341,-2.398,-2.4014,-2.3999,-2.4437,-2.4855,-2.4958,-2.6287,-3.1046,-4.2668,-4.4464,-4.4872,-4.6149,-4.7214,-4.7779,-4.7824,-4.7889,-4.7889,-4.7889,-4.7741,-4.8238,-4.9239,-4.9189,-4.8374,-4.6136,-4.0375,-3.3929,-2.7035,-2.6738,-2.6811,-2.6965,-3.1734,-3.6752,-4.1482,-4.3821,-4.7016,2.0688,1.0646,0.0,0.0,0.0,-0.3601,-1.7742,0.0,0.0,0.0,-2.4681,-2.7441,-2.7394,0.0,0.0,-1.7734,0.0,0.0,0.0,0.0,0.0,0.0,0.0,0.0,0.0,0.0,0.0,0.0,-1.0744,-1.3723,-2.0542,-2.0806,-2.0915,-2.0897,-2.9388,-3.7372,-4.4389,-4.4491,-4.4591,-4.4435,-4.4453,-5.1605,-6.4536,-5.0756,-4.4594,-4.4583,-4.4452,-4.4633,-4.4428,-4.4445,-3.5714,-2.2551,-2.2599,-2.2415,-2.2659,-2.2527,-2.2586,-2.2586,-2.2586,-2.2586,-2.2639,-2.2652,-2.2477,-2.1323,-1.4061,-1.1772,-1.1772,-1.1704,-1.1673,-1.3353,-2.0676,-2.2457,-2.2502,-2.2626,-2.3433,-2.4219,-2.4071,-2.4087,-2.4261,-2.4409,-2.3312,-2.2503,-2.2424,-2.2534,-2.5264,-3.2966,-3.9901,-4.5053,-4.6811,-4.7525,-4.7782,-4.7763,-4.7789,-4.7891,-4.7868,-4.7924,-4.5117,-3.8765,-3.8271,-3.7673,-3.6615,-3.2697,-2.8452,-2.4461,-2.4162,-2.4208,-2.4301,-3.0834,-3.7834,-4.5223,-4.6655,-4.8541,2.0806,1.0686,0.0,0.0,0.0,-0.37,-1.7862,-1.9481,0.0,0.0,-2.1384,-2.5672,-2.536,-1.9281,-1.5246,-1.8421,0.0,0.0,0.0,0.0,-2.2557,0.0,0.0,0.0,0.0,0.0,0.0,0.0,0.0,-0.6088,-2.0452,-2.1252,-2.1418,-2.15,-2.1901,-2.8162,-4.0629,-4.3233,-4.453,-4.4526,-4.4573,-5.0403,-6.0985,-4.9574,-4.3126,-4.0724,-4.081,0.0,-4.0874,-4.0705,-3.3426,-2.2612,-2.2514,-2.2586,-2.2586,-2.2586,-2.2586,-2.2593,-2.2639,-2.2659,-2.247,-2.276,-2.0858,-1.6411,-0.38,0.0,0.0,0.0,0.0,-0.2874,-1.5373,-2.0692,-2.2574,-2.2817,-2.3378,-2.3898,-2.3602,-2.3958,-2.4254,-2.4267,-2.3648,-2.2754,-2.2465,-2.2483,-2.2626,-2.2457,-3.2961,-4.2517,-4.7292,-4.553,-4.376,-4.376,-4.3843,-4.377,-4.3878,-4.3862,-3.9041,-2.6663,-2.6064,-2.5706,-2.4625,-2.4358,-2.4446,-2.4307,-2.4301,-2.4301,-2.4301,-3.364,-4.2157,-5.0008,-5.0815,-5.1392,2.0688,1.0686,0.0,0.0,0.0,-0.3964,-1.8928,-2.2201,-2.1436,-2.0321,0.0,-1.8228,-1.7278,-1.6204,-1.622,-1.8576,0.0,-2.1324,-2.2259,-2.2488,-2.2463,-2.2553,-2.2586,-2.2625,-2.2443,-0.8846,0.0,0.0,0.0,-0.6487,-2.1584,-2.3185,-2.3731,-2.371,-2.1905,-2.2375,-2.5384,-3.8062,-4.4646,-4.4607,-4.4513,-4.5444,-4.7078,-4.5223,-3.7519,-2.5549,-2.5338,-2.5924,-2.6773,-2.5863,-2.4318,-2.2612,-2.2514,-2.2586,-2.2586,-2.2586,-2.2586,-2.2619,-2.2567,-2.2646,-2.2717,-2.3713,-1.464,-0.2631,-0.0586,0.0,0.0,0.0,0.0,-0.0585,-0.2328,-1.2629,-2.2846,-2.3713,-2.3538,-2.3016,-2.3958,-2.4202,-2.4373,-2.4321,-2.428,-2.3647,-2.2756,-2.2483,-2.2626,-2.2457,-2.4998,-3.2098,-4.6112,-3.5817,-2.7408,-2.7408,-2.7368,-2.7556,-2.7301,-2.8334,-2.8159,-2.6248,-2.6091,-2.6064,-2.5807,-2.4868,-2.4267,-2.4307,-2.4301,-2.4301,-2.4301,-3.8965,-4.8063,-5.1076,-5.118,-5.1376,2.0785,1.0496,0.0,0.0,0.0,-0.3987,-1.9206,-2.252,-2.2477,-2.1789,-2.0482,0.0,0.0,0.0,0.0,0.0,0.0,0.0,-2.3485,-2.2929,-2.2534,0.0,-2.2499,0.0,-2.1597,-0.8578,0.0,0.0,0.0,-0.6975,-2.2541,-2.4053,-2.4156,-2.4257,-2.3233,-2.2821,-2.2418,-2.8823,-3.625,-4.4534,-4.44,-4.5033,-4.6099,-3.6557,-2.8606,-2.2652,0.0,-2.3903,-2.4222,-2.2997,-2.2529,-2.2424,-2.2496,-2.2437,-2.2586,-2.2586,-2.2586,-2.2626,-2.2606,-2.3107,-2.3613,-2.4014,-1.3382,0.0,0.0,0.0,0.0,0.0,0.0,0.0,0.0,-1.158,-2.3551,-2.3479,-2.3538,-2.2344,-1.8423,-1.3899,-1.3333,-2.244,-2.4287,-2.3934,-2.2709,-2.2426,-2.2541,-2.2593,-2.3638,-2.6863,-3.3697,-2.8492,-2.4368,-2.4368,-2.4327,-2.4577,-2.5368,-2.5841,-2.6206,-2.6049,-2.6136,-2.5983,-2.6173,-2.5059,-2.4149,-2.4314,-2.4301,-2.4301,-2.4301,-3.1128,-3.5393,-3.7349,-4.6864,-5.1193,2.0468,1.0651,0.0,0.0,0.0,-0.3985,-1.8698,-2.2218,-2.2132,-2.2498,-2.1854,-2.051,0.0,0.0,0.0,-2.0577,-2.19,0.0,-2.3618,-2.3171,0.0,-2.2567,0.0,-2.0804,-1.5859,-0.62,0.0,0.0,0.0,-0.7171,-2.3297,-2.4167,-2.4201,-2.4273,-2.4415,-2.3974,-2.2939,-2.2956,-2.8241,-3.8906,-3.9202,-4.0119,-4.1043,-2.8292,-2.2679,-2.2665,-2.368,-2.4165,-2.4179,-2.3492,-2.294,-2.2995,-2.2704,-2.2541,-2.2586,-2.2586,-2.2586,-2.2626,-2.2606,-2.3193,-2.3814,-2.4234,-1.3249,0.0,0.0,0.0,0.0,0.0,0.0,0.0,0.0,-1.2021,-2.4215,-2.357,-2.4137,-2.3148,-1.6797,-0.7276,-0.363,-1.5829,-2.149,-2.3964,-2.3017,-2.2657,-2.2413,-2.2413,-2.3426,-2.3963,-2.4334,-2.4388,-2.4301,-2.4301,-2.4319,-2.4631,-2.5814,-2.5843,-2.6136,-2.6034,-2.6048,-2.615,-2.5969,-2.5224,-2.4625,-2.4426,-2.434,-2.4301,-2.4301,-2.4241,-2.4648,-2.6138,-4.3176,-5.118,1.9878,1.0572,0.0,0.0,0.0,-0.3666,-1.7616,-2.0954,-2.114,-2.2213,-2.2576,-2.2116,0.0,0.0,-2.0615,-2.0656,-2.1838,-2.2534,-2.256,-2.2502,-2.2574,0.0,0.0,0.0,0.0,0.0,0.0,0.0,0.0,-0.701,-2.3316,-2.4341,-2.4274,-2.4261,-2.4321,-2.4181,-2.4154,-2.4163,-2.3932,-2.3751,-2.4717,-2.471,-2.3772,-2.2883,-2.2632,-2.2535,-2.3734,-2.4174,-2.4181,-2.4187,-2.4138,-2.4174,-2.2995,-2.2541,-2.2586,-2.2586,-2.2586,-2.2626,-2.2606,-2.26,-2.2908,-2.3925,-1.3249,0.0,0.0,0.0,0.0,0.0,0.0,0.0,0.0,-1.1938,-2.4547,-2.5681,-2.6035,-2.5489,-2.3938,-1.1324,-0.0303,-0.1213,-1.365,-2.4268,-2.4234,-2.3378,-2.2413,-2.2413,-2.2651,-2.314,-2.4064,-2.4261,-2.4301,-2.4301,-2.4194,-2.4535,-2.5197,-2.5705,-2.6034,-2.6048,-2.6048,-2.5916,-2.5929,-2.5649,-2.5362,-2.5354,-2.4755,-2.4301,-2.4301,-2.426,-2.4351,-2.4895,-4.2772,-5.1447,0.866,0.3908,0.0,0.0,0.0,-0.3566,-1.7684,-2.0831,-2.0934,-2.1382,-2.2145,-2.2139,-2.0967,-2.1499,-2.1943,-2.1901,-2.2165,-2.2652,-2.256,-2.2507,-2.2481,-2.2573,-2.2519,-1.6487,0.0,0.0,0.0,0.0,0.0,-0.7129,-2.3558,-2.4261,-2.4301,-2.4301,-2.4208,-2.4156,-2.4156,-2.4368,-2.3693,-2.2452,-2.3026,-2.3066,-2.2516,-2.2529,-2.3062,-2.378,-2.4161,-2.4294,-2.4156,-2.4156,-2.4436,-2.4224,-2.3593,-2.3015,-2.2626,-2.2593,-2.2586,-2.26,-2.2418,-2.249,-2.2643,-2.3114,-1.2572,0.0,0.0,0.0,0.0,0.0,0.0,0.0,0.0,-1.1954,-2.4303,-2.4697,-2.5537,-2.5797,-2.4451,-1.1382,-0.3033,-1.3687,-2.0443,-2.4413,-2.4254,-2.3394,-2.2567,-2.2502,-2.2548,-2.285,-2.4044,-2.4414,-2.4273,-2.4273,-2.4833,-2.552,-2.5843,-2.5929,-2.616,-2.6114,-2.6114,-2.5962,-2.5949,-2.5983,-2.5692,-2.5381,-2.4761,-2.4301,-2.4301,-2.4406,-2.4406,-2.4621,-3.7104,-4.533,0.269,0.0,0.0,0.0,0.0,-0.3437,-1.7043,-2.0503,-2.0803,-2.1347,-2.2112,-2.2314,-2.1675,-2.2105,-2.2631,-2.2652,-2.2512,-2.2646,-2.256,-2.2422,-2.2652,-2.258,-2.2632,0.0,0.0,0.0,0.0,0.0,0.0,-0.7221,-2.3557,-2.4373,-2.4301,-2.4301,-2.4301,-2.4301,-2.4301,-2.4334,-2.3793,-2.2992,-2.2763,-2.2426,-2.2497,-1.7384,-1.8435,-2.4267,-2.4314,-2.4434,-2.4301,-2.4301,-2.4348,-2.3927,-2.0811,-2.1103,-2.2758,-2.2633,-2.2586,-2.2586,-2.2586,-2.2646,-2.2516,-2.2566,-1.2461,0.0,0.0,0.0,0.0,0.0,0.0,0.0,0.0,-1.2226,-2.4194,-2.4361,-2.5135,-2.564,-2.4413,-1.5949,-0.9651,-1.5185,-2.0662,-2.4287,-2.4241,-2.3191,-2.2683,-2.2509,-2.2672,-2.2926,-2.4017,-2.4208,-2.4508,-2.4697,-2.5441,-2.5413,-2.3542,-2.245,-2.2894,-2.5823,-2.6146,-2.6034,-2.609,-2.5722,-2.5739,-2.5222,-2.4505,-2.4301,-2.4301,-2.4301,-2.4254,-2.4474,-3.3216,-4.1493,0.2784,0.0,0.0,0.0,-0.0225,-0.3743,-1.6224,-1.9963,-2.0956,-2.2335,-2.2427,-2.2618,-2.2412,-2.2522,-2.2624,-2.2652,-2.2672,-2.2586,-2.2586,-2.2586,-2.26,-2.2646,-2.2137,-1.6147,0.0,0.0,0.0,0.0,0.0,-0.6977,-2.355,-2.4366,-2.4301,-2.4301,-2.4301,-2.4301,-2.4301,-2.4341,-2.4207,-2.4187,-2.3069,-2.2529,-2.2236,-0.7242,-0.9098,-2.4294,-2.4208,-2.4301,-2.4301,-2.4307,-2.4448,-2.3557,-1.5523,-1.7076,-2.3551,-2.2692,-2.2586,-2.2586,-2.2586,-2.2522,-2.2522,-2.23,-1.2023,0.0,0.0,0.0,0.0,0.0,0.0,0.0,0.0,-1.216,-2.4234,-2.439,-2.5145,-2.5648,-2.4456,-2.4347,-1.9732,-0.3613,-1.3475,-2.4207,-2.4187,-2.3336,-2.2452,-2.2458,-2.2483,-2.2804,-2.3378,-2.4195,-2.496,-2.556,-2.6009,-2.3548,-1.7879,-1.4322,-1.6293,-2.5156,-2.5823,-2.612,-2.6054,-2.55,-2.5197,-2.5197,-2.4604,-2.4301,-2.4601,-2.4601,-2.4554,-2.5065,-3.2864,-4.0468,0.3152,0.0,0.0,0.0,-0.6253,-1.3654,-1.799,-1.924,-1.9848,-2.1095,-2.1339,-2.1224,-2.1327,-2.1285,-2.1519,-2.2379,-2.2672,-2.2586,-2.2586,-2.2586,-2.26,-2.2646,-1.2971,-0.4514,-0.0283,0.0,0.0,0.0,0.0,-0.7189,-2.3564,-2.4261,-2.4301,-2.4301,-2.4301,-2.4301,-2.4301,-2.4228,-2.4394,-2.4194,-2.3827,-2.3693,-2.3476,-1.345,-1.4526,-2.4353,-2.432,-2.4301,-2.4307,-2.4353,-2.4235,-2.3984,-2.1244,-2.1284,-2.2808,-2.2718,-2.2586,-2.2586,-2.2586,-2.2554,-2.1701,-1.6152,-0.7867,0.0,0.0,0.0,0.0,0.0,0.0,0.0,0.0,-1.216,-2.4234,-2.439,-2.4518,-2.4695,-2.439,-2.4195,-2.2672,-1.7359,-2.0776,-2.4414,-2.4253,-2.3205,-2.2452,-2.2458,-2.2639,-2.3015,-2.399,-2.4321,-2.4828,-2.5889,-2.6397,-2.0589,-0.6255,-0.4261,-0.7179,-1.5968,-2.2564,-2.6166,-2.6054,-2.55,-2.5197,-2.5197,-2.4604,-2.5781,-2.8436,-2.8436,-3.1369,-3.7215,-3.9431,-4.3129,0.8278,0.0,0.0,0.0,-0.7931,-1.5932,-1.6672,-1.7596,-1.8558,-1.9808,-2.0004,-2.0002,-2.0174,-2.0516,-2.1288,0.0,-2.2429,-2.2519,-2.2579,-2.2639,-2.2474,-2.2672,-0.9299,0.0,0.0,0.0,0.0,0.0,0.0,-0.7161,-2.3448,-2.4241,-2.4334,-2.4301,-2.4301,-2.4301,-2.4301,-2.4301,-2.4221,-2.4361,-2.4422,-2.4341,-2.4107,-1.9301,-1.9754,-2.432,-2.4307,-2.4301,-2.4307,-2.4347,-2.2421,-1.9222,-1.857,-1.9854,-2.2651,-2.2476,-2.2586,-2.2586,-2.2606,-2.2502,-2.068,-0.9998,-0.3462,0.0,0.0,0.0,0.0,0.0,0.0,0.0,0.0,-1.216,-2.4208,-2.4241,-2.4426,-2.4347,-2.4215,-2.4366,-2.4129,-2.332,-2.3345,-2.3583,-2.4111,-2.3338,-2.2645,-2.26,-2.269,-2.2837,-2.4213,-2.4854,-2.5269,-2.5996,-2.645,-1.9425,-0.1653,0.0,-0.5258,-1.7662,-2.3265,-2.6199,-2.6094,-2.5514,-2.5197,-2.5197,-2.4604,-2.5426,-2.765,-2.9738,-3.4441,-4.0905,-4.3322,-4.5599,1.4763,0.0,0.0,0.0,-0.6921,-1.3601,0.0,0.0,-1.7817,-1.9998,-2.0352,-2.0497,-2.1109,-2.1288,-2.1658,-2.2385,-2.264,-2.2488,-2.2389,-2.2564,-2.2546,-2.2659,-1.0699,-0.169,-0.0284,0.0,0.0,0.0,0.0,-0.6547,-2.2128,-2.3896,-2.432,-2.4254,-2.4281,-2.4301,-2.4301,-2.4301,-2.4301,-2.4301,-2.4394,-2.3416,-2.1654,-2.3487,-2.4408,-2.4421,-2.4221,-2.4261,-2.4254,-2.4228,-1.9917,-1.3497,-1.2896,-1.6576,-2.2683,-2.245,-2.256,-2.2593,-2.2639,-2.1543,-1.7858,-0.4236,0.0,0.0,0.0,0.0,0.0,0.0,0.0,0.0,0.0,-1.2147,-2.4163,-2.4334,-2.4301,-2.4301,-2.4301,-2.4414,-2.4227,-2.4161,-2.3349,-2.2876,-2.4003,-2.3206,-2.2841,-2.2805,-2.2789,-2.2979,-2.4194,-2.528,-2.6152,-2.6152,-2.6316,-2.014,-0.4274,-0.099,-0.7579,-2.4933,-2.5888,-2.6153,-2.6048,-2.5467,-2.5131,-2.5092,-2.4512,-2.4679,-2.5298,-3.0006,-3.5252,-4.0447,-4.5562,-4.7533,0.0,0.0,0.0,0.0,0.0,0.0,0.0,0.0,-1.8241,-2.6737,-2.8504,-2.9561,-3.3346,-2.9714,-2.5331,-2.2867,-2.2515,-2.2195,-2.1239,-2.2065,-2.2618,-2.2646,-1.899,-1.231,-0.1133,0.0,0.0,0.0,0.0,-0.4054,-1.3302,-2.0446,-2.4017,-2.3049,-2.3876,-2.4301,-2.4301,-2.4301,-2.4301,-2.4294,-2.4402,-1.7515,-0.5135,-1.8441,-2.4247,-2.4399,-2.4441,-2.4307,-2.4261,-2.4375,-2.3394,-2.1854,-2.0641,-2.1243,-2.2424,-2.2639,-2.2666,-2.2593,-2.2639,-1.4668,-0.3944,-0.0847,0.0,0.0,0.0,0.0,0.0,0.0,0.0,0.0,0.0,-1.2071,-2.4163,-2.4334,-2.4301,-2.4301,-2.4301,-2.4261,-2.4388,-2.4226,-2.3375,-2.2744,-2.2873,-2.3533,-2.3969,-2.403,-2.4,-2.4187,-2.4194,-2.528,-2.6152,-2.6152,-2.6028,-2.4738,-2.1388,-0.8014,-0.7335,-2.4921,-2.6096,-2.6069,-2.6043,-2.5665,-2.5035,-2.4479,-2.4214,-2.735,-3.386,-3.4411,-3.8225,-4.4961,-4.7054,-4.596,0.0,0.0,0.0,0.0,0.0,0.0,0.0,0.0,0.0,0.0,0.0,-2.807,0.0,0.0,-2.7834,-2.686,-2.6512,-2.6245,-2.5649,-2.3835,-2.2242,-2.1815,-1.5134,-0.7755,-0.0556,0.0,0.0,0.0,-0.712,-1.3252,-1.7566,-2.1428,-2.3433,-2.3401,-2.3958,-2.4401,-2.4401,-2.4235,-2.4235,-2.4394,-2.4174,-1.9612,-1.1318,-1.177,-1.6536,-2.4321,-2.4402,-2.3987,-2.3349,-2.3384,-2.3487,-2.3313,-2.2002,-2.1725,-2.1838,-2.2259,-2.2578,-2.2439,-2.2519,-1.278,0.0,0.0,0.0,0.0,0.0,0.0,0.0,0.0,0.0,0.0,0.0,-1.2196,-2.4341,-2.4241,-2.4201,-2.4181,-2.4181,-2.4181,-2.4348,-2.4204,-2.3345,-2.2459,-2.2465,-2.2952,-2.3496,-2.4246,-2.4221,-2.4401,-2.4401,-2.4915,-2.5557,-2.6077,-2.5989,-2.6016,-2.5969,-1.0085,-0.3774,-1.2418,-2.1072,-2.6145,-2.5935,-2.5108,-2.4459,-2.3993,-2.3947,-2.5668,-2.9353,-3.6452,-4.1747,-4.5376,-4.3692,-4.1454,0.0,0.0,0.0,0.0,0.0,0.0,0.0,0.0,0.0,0.0,0.0,0.0,0.0,0.0,0.0,-2.9398,-3.0221,-3.0979,-3.1597,-2.6098,-2.1777,-2.0979,-0.8362,0.0,0.0,0.0,-0.1117,-0.414,-1.552,-2.2929,-2.4049,-2.0249,-2.0093,-2.3929,-2.424,-2.4408,-2.4408,-2.4328,-2.4301,-2.4321,0.0,0.0,-1.7813,-0.873,-1.1667,-2.3847,-2.401,-2.3331,-2.2657,-2.2659,-2.2379,-2.2073,-2.1204,-2.0745,-2.0795,-2.1891,-2.2206,-2.2267,-2.2112,-1.2575,0.0,0.0,0.0,0.0,0.0,0.0,0.0,0.0,0.0,0.0,0.0,-0.9659,-2.0298,-2.3218,-2.4071,-2.4044,-2.4044,-2.4044,-2.3949,-2.3944,-2.3286,-2.2413,-2.2413,-2.2516,-2.2997,-2.4192,-2.4227,-2.4162,-2.4215,-2.4215,-2.4676,-2.5738,-2.283,-2.0891,-2.1146,-0.808,0.0,0.0,-1.3218,-2.2521,-2.5584,-2.4695,-2.3991,-2.321,-2.336,-2.4368,-2.6744,-3.7856,-4.3097,-4.3092,-3.9397,-3.7692,0.0,0.0,0.0,0.0,0.0,0.0,0.0,0.0,0.0,0.0,0.0,0.0,0.0,0.0,0.0,0.0,-2.8107,-3.221,-3.622,-2.7665,-2.088,-2.0853,-0.8374,0.0,0.0,0.0,-0.5455,-1.8869,-2.1701,-2.2537,-2.2706,0.0,0.0,0.0,0.0,-2.4395,-2.4395,-2.4423,-2.4293,-2.4278,-2.3114,-1.5525,-0.2865,-1.4632,-2.0882,-2.2636,-2.2606,-2.2619,-2.2659,-2.2646,-2.2059,-2.091,-2.0888,-2.0829,-2.0793,-2.1057,-2.0941,-2.0884,-2.0992,0.0,0.0,0.0,0.0,0.0,0.0,0.0,0.0,0.0,0.0,0.0,0.0,-0.1449,-0.6133,-1.9603,-2.2844,-2.2844,-2.2844,-2.2844,-2.276,-2.2763,-2.2704,-2.2413,-2.2413,-2.26,-2.2963,-2.4136,-2.4375,-2.424,-2.4214,-2.4406,-2.4417,-2.4397,0.0,0.0,-0.2783,-0.1224,0.0,0.0,-0.1819,-0.9531,-2.4037,-2.4485,-2.3739,-2.2632,-2.2666,-2.9039,-4.2037,-3.9745,-3.8588,-3.8398,-3.7978,-3.7768,0.0,0.0,0.0,0.0,0.0,0.0,0.0,0.0,0.0,0.0,0.0,0.0,0.0,0.0,0.0,0.0,-2.9153,-3.1339,-3.3289,-2.5619,-1.9824,-1.9869,-0.8067,0.0,0.0,0.0,-0.609,-2.0497,-2.1446,-2.1598,-2.1474,-1.5578,-1.5394,-2.2405,-2.3064,-2.3267,-2.3267,-2.3153,-2.3375,-2.3363,-2.2235,-1.8539,-1.3437,-1.9677,-2.2418,-2.2672,-2.2639,-2.2441,-2.2572,-2.1835,-2.1114,0.0,0.0,0.0,0.0,0.0,-2.0829,-2.0677,-2.0786,-1.167,0.0,0.0,0.0,0.0,0.0,0.0,0.0,0.0,0.0,0.0,0.0,-0.6526,-1.4636,-2.0959,-2.2665,-2.2652,-2.2652,-2.2652,-2.2613,-2.2496,-2.2613,0.0,-2.1706,-2.1616,-2.168,-2.2255,-2.2782,-2.3549,-2.4161,-2.4241,-2.4432,-2.4307,-1.8241,-1.4005,-1.3982,-0.5436,0.0,0.0,0.0,-0.3001,-1.0016,-1.0279,0.0,0.0,0.0,0.0,0.0,0.0,0.0,0.0,-2.9082,-2.964,0.0,0.0,0.0,0.0,0.0,0.0,0.0,0.0,0.0,0.0,0.0,0.0,0.0,0.0,0.0,0.0,0.0,-3.0787,-3.0682,-2.3412,-1.8385,-1.9076,-0.7882,0.0,0.0,-0.323,-0.9361,-1.9653,-2.0661,-2.0718,-2.0844,-2.0896,-2.1246,-2.1938,-2.2165,-2.2019,-2.2019,-2.1955,-2.2191,-2.2185,-2.1176,-2.117,-2.2185,-2.2305,-2.2452,-2.2612,-2.2672,-2.2259,-2.1881,-2.1181,-2.0806,-2.0864,-2.0905,-2.0721,-2.0714,-2.089,-2.0864,-2.0884,-2.0734,-1.1599,0.0,0.0,0.0,0.0,0.0,0.0,0.0,0.0,0.0,0.0,0.0,-1.1098,-2.2481,-2.2415,-2.2652,-2.2626,-2.2626,-2.2626,-2.2626,-2.2626,-2.2259,-2.1891,-2.0934,-2.0751,-2.0685,-2.0761,-2.1913,0.0,-2.4213,-2.4334,-2.4235,-2.4374,-2.4414,-2.2342,-1.8107,-0.6901,0.0,0.0,0.0,0.0,0.0,-0.4125,-1.0653,-1.985,-2.0516,-2.404,0.0,0.0,0.0,0.0,0.0,0.0,0.0,0.0,0.0,0.0,0.0,0.0,0.0,0.0,0.0,0.0,0.0,0.0,0.0,0.0,0.0,0.0,0.0,0.0,-3.0631,-2.194,-1.6553,-1.8723,-0.7724,0.0,0.0,-1.1282,-1.8693,-1.898,-2.0204,-2.0853,-2.0923,-2.0714,-2.0738,-2.0754,-2.0745,-2.0878,-2.0878,-2.0891,-2.0764,-2.0774,-2.0757,-2.0751,-2.078,-2.2139,-2.2549,-2.2556,-2.2542,-2.1838,-2.0767,-2.0748,-2.0848,-2.0833,-2.079,-2.0923,-2.0895,-2.0874,-2.0778,-2.0792,-2.0881,-1.1755,0.0,0.0,0.0,0.0,0.0,0.0,0.0,0.0,0.0,0.0,0.0,-1.1117,-2.2645,-2.2577,-2.2556,-2.2556,-2.2556,-2.2556,-2.2556,-2.2556,-2.1571,-2.0804,-2.082,-2.0897,-2.091,-2.0696,-2.178,0.0,-2.4167,-2.4375,-2.4301,-2.4294,-2.4353,-1.7924,-0.2121,-0.0301,0.0,0.0,0.0,0.0,0.0,-1.4044,-2.1988,-2.249,-2.1357,-1.8334,-1.2943,0.0,0.0,0.0,0.0,0.0,0.0,0.0,0.0,0.0,0.0,0.0,0.0,0.0,0.0,0.0,0.0,0.0,0.0,0.0,0.0,0.0,0.0,0.0,0.0,0.0,-1.5771,-1.6646,-0.6841,-0.2714,-0.9638,-1.4173,-1.6074,-1.4753,-1.7609,-1.9568,-1.9727,-2.0471,-2.0881,-2.0677,-2.0694,-2.0925,-2.0855,-2.0855,-2.0816,-2.0725,-2.0816,-2.0907,-2.0748,-2.1109,-2.1252,-2.1408,-2.1499,-2.1102,-2.0729,-2.0803,-2.0708,-2.0733,-2.0874,-2.0382,-1.9642,-1.9642,-1.9582,-1.9549,-1.962,-1.6512,-1.1312,-0.2686,0.0,0.0,0.0,0.0,0.0,0.0,0.0,-0.2073,-1.1299,-1.7569,-2.1265,-2.1389,-2.1421,-2.1421,-2.1421,-2.1278,-2.142,-2.142,-2.0556,-1.9732,-1.9702,-2.021,-2.0848,-2.0922,-2.1252,-2.2111,-2.4132,-2.4361,-2.4301,-2.4301,-2.4399,-1.7665,-0.1516,0.0,0.0,0.0,0.0,0.0,0.0,-1.4632,-2.2679,-2.2449,-2.1503,-1.9541,-1.682,0.0,0.0,0.0,0.0,0.0,0.0,0.0,0.0,0.0,0.0,0.0,0.0,0.0,0.0,0.0,0.0,0.0,0.0,0.0,0.0,0.0,0.0,0.0,0.0,0.0,0.0,-1.5565,-0.8878,0.0,-1.3637,-1.4441,-1.4017,-1.3552,-1.6168,-1.797,-1.8484,-1.9078,-1.9807,-2.0177,-2.0471,-2.0717,-2.0908,-2.0767,-2.0841,-2.0895,-2.0844,-2.078,-2.0705,-2.0809,-2.0684,-2.0838,-2.0927,-2.0855,-2.1077,-2.2841,-2.4432,-2.5609,-2.5569,-2.413,-2.2257,-2.388,-2.1802,-1.8414,-1.8335,-1.8609,-1.6851,-0.4236,0.0,0.0,0.0,-0.286,-0.6214,-0.6676,-0.6675,-0.8868,-1.7742,-2.0393,-2.0899,-2.0783,-2.0816,-2.0816,-2.0816,-2.0859,-2.0602,-1.9621,-1.9325,-1.9008,-1.9001,-1.8667,-1.8915,-2.0489,-2.0701,-2.1773,-2.3925,-2.4219,-2.4195,-2.4294,-2.4419,-1.768,-0.1516,0.0,0.0,0.0,0.0,0.0,0.0,-0.9329,-1.6951,-2.1763,-2.0813,-2.2023,0.0,0.0,0.0,0.0,0.0,0.0,0.0,0.0,0.0,0.0,0.0,0.0,0.0,0.0,0.0,0.0,0.0,0.0,0.0,0.0,0.0,0.0,0.0,0.0,0.0,0.0,0.0,-1.5479,-1.3535,0.0,0.0,0.0,0.0,-1.5303,-1.5423,-1.5901,-1.716,-1.7111,-1.7645,-1.8821,-2.0537,-2.1445,-2.149,-2.0851,-2.0594,-2.0734,-2.0819,-2.0841,-2.0855,-2.0877,-2.0754,-2.0767,-2.1024,-2.1281,-2.1718,-2.7258,-3.1316,-3.4158,-3.3727,-3.0963,-2.7818,-3.2031,-2.674,-1.7518,-1.7226,-1.8071,-1.6906,-0.4922,-0.0863,-0.0815,-0.0783,-0.8354,0.0,0.0,-1.8901,-1.8862,-1.9019,-1.9929,-2.0648,-2.0689,-2.0703,-2.0703,-2.0703,-2.0701,-2.0019,0.0,-1.8051,-1.8901,-1.8994,0.0,-1.5146,-1.9828,-2.0562,-2.1674,-2.4042,-2.4204,-2.4287,-2.4274,-2.4419,-1.768,-0.1516,0.0,0.0,0.0,0.0,0.0,0.0,0.0,-0.6476,-2.0454,-1.9495,0.0,0.0,0.0,0.0,0.0,0.0,0.0,0.0,0.0,0.0,0.0,0.0,0.0,0.0,0.0,0.0,0.0,0.0,0.0,0.0,0.0,0.0,0.0,0.0,0.0,0.0,-1.8328,-1.4213,-1.4286,-1.3825,-1.3126,0.0,0.0,0.0,0.0,0.0,0.0,-1.4649,-1.5544,-1.6504,-1.7705,-2.6192,-3.0825,-3.0718,-2.2315,-1.871,-1.9472,-1.9455,-1.9923,-2.0912,-2.0883,-2.0755,-2.0972,-2.4401,-2.6373,-2.7213,-3.1372,-3.2869,-3.2507,-2.8197,-2.5756,-2.4809,-2.4318,-2.2345,-1.9438,-1.6932,-1.6693,-1.7155,-1.3898,-1.2846,-1.2497,-1.078,0.0,0.0,0.0,0.0,-1.7927,-1.8851,-1.9306,-1.9462,-1.9409,-1.9562,-1.9562,-1.9562,-1.9409,-1.8796,0.0,-1.6975,-1.7825,-1.7703,0.0,0.0,0.0,0.0,-2.1247,-2.2827,-2.3629,-2.4354,-2.4248,-2.438,-1.7641,-0.1516,0.0,0.0,0.0,0.0,0.0,0.0,0.0,-0.6173,-1.9199,0.0,0.0,0.0,0.0,0.0,0.0,0.0,0.0,0.0,0.0,0.0,0.0,0.0,0.0,0.0,0.0,0.0,0.0,0.0,0.0,0.0,0.0,0.0,0.0,0.0,0.0,0.0,-1.9134,-1.592,-1.3469,-1.3083,-1.269,0.0,0.0,0.0,0.0,0.0,0.0,0.0,0.0,0.0,-1.7621,-2.4836,-2.9028,-2.9619,-2.3453,-1.9465,-1.8258,-1.8327,-1.8681,-1.9158,-1.8977,-2.1527,-2.6187,-2.907,-3.0205,-2.9714,-3.1551,-3.1064,-2.877,0.0,0.0,0.0,0.0,-1.9067,-1.7458,-1.3797,-1.3383,-1.4572,-1.6053,0.0,0.0,0.0,0.0,0.0,0.0,0.0,0.0,0.0,0.0,-1.818,-1.8322,-1.8181,-1.8396,-1.8355,-2.0558,-2.2347,0.0,-1.9699,-1.774,-1.491,0.0,0.0,0.0,0.0,-1.9335,-2.1571,-2.3294,-2.4416,-2.4228,-2.436,-2.0707,-1.1544,-0.4234,0.0,0.0,0.0,0.0,0.0,-0.5488,-1.0739,0.0,0.0,0.0,0.0,0.0,0.0,0.0,0.0,0.0,0.0,0.0,0.0,0.0,0.0,0.0,0.0,0.0,0.0,0.0,0.0,0.0,0.0,0.0,0.0,0.0,0.0,0.0,0.0,0.0,-1.8529,-1.2683,0.0,0.0,0.0,0.0,0.0,0.0,0.0,0.0,0.0,0.0,0.0,0.0,0.0,-2.184,-2.3886,-2.3775,-2.174,-1.765,-1.7099,-1.6749,-1.7013,-1.7869,-2.3337,-3.221,-3.2751,0.0,-2.9567,-2.9268,0.0,0.0,0.0,0.0,0.0,0.0,0.0,0.0,0.0,0.0,0.0,0.0,0.0,0.0,0.0,0.0,0.0,0.0,0.0,0.0,0.0,0.0,-1.6889,-1.6874,-1.6854,-1.6779,0.0,-2.1764,-2.6159,-2.519,-2.1778,0.0,0.0,0.0,0.0,0.0,0.0,0.0,-2.0373,-2.2706,-2.419,-2.4208,-2.4353,-2.4419,-2.4189,-0.9316,0.0,0.0,0.0,-0.0785,-0.2384,-1.2622,0.0,0.0,0.0,0.0,0.0,0.0,0.0,0.0,0.0,0.0,0.0,0.0,0.0,0.0,0.0,0.0,0.0,0.0,0.0,0.0,0.0,0.0,0.0,0.0,0.0,0.0,0.0,0.0,0.0,0.0,0.0,0.0,0.0,0.0,0.0,0.0,0.0,0.0,0.0,0.0,0.0,0.0,0.0,0.0,0.0,0.0,0.0,0.0,0.0,0.0,-1.5837,-1.4537,-1.6107,-2.3823,-2.8664,-3.0867,-2.8325,-2.7429,-2.7684,-2.5749,0.0,0.0,0.0,0.0,0.0,0.0,0.0,0.0,0.0,0.0,0.0,0.0,0.0,0.0,0.0,0.0,0.0,0.0,0.0,0.0,0.0,0.0,0.0,0.0,-1.4327,-1.3836,0.0,0.0,0.0,0.0,0.0,0.0,0.0,0.0,0.0,0.0,0.0,0.0,-2.0419,-2.2708,-2.4264,-2.4188,-2.4314,-2.4366,-2.4189,-0.9226,0.0,0.0,0.0,-0.4801,0.0,0.0,0.0,0.0,0.0,0.0,0.0,0.0,0.0,0.0,0.0,0.0,0.0,0.0,0.0,0.0,0.0,0.0,0.0,0.0,0.0,0.0,0.0,0.0,0.0,0.0,0.0,0.0,0.0,0.0,0.0,0.0,0.0,0.0,0.0,0.0,0.0,0.0,0.0,0.0,0.0,0.0,0.0,0.0,0.0,0.0,0.0,0.0,0.0,0.0,0.0,0.0,0.0,0.0,0.0,0.0,0.0,0.0,0.0,-2.3035,0.0,0.0,0.0,0.0,0.0,0.0,0.0,0.0,0.0,0.0,0.0,0.0,0.0,0.0,0.0,0.0,0.0,0.0,0.0,0.0,0.0,0.0,0.0,0.0,0.0,0.0,0.0,0.0,0.0,0.0,0.0,0.0,0.0,0.0,0.0,0.0,0.0,0.0,0.0,0.0,-2.0253,-2.276,-2.4208,-2.4182,-2.4301,-2.4353,-2.4189,-0.9444,0.0,0.0,0.0,0.0,0.0,0.0,0.0,0.0,0.0,0.0,0.0,0.0,0.0,0.0,0.0,0.0,0.0,0.0,0.0,0.0,0.0,0.0,0.0,0.0,0.0,0.0,0.0,0.0,0.0,0.0,0.0,0.0,0.0,0.0,0.0,0.0,0.0,0.0,0.0,0.0,0.0,0.0,0.0,0.0,0.0,0.0,0.0,0.0,0.0,0.0,0.0,0.0,0.0,0.0,0.0,0.0,0.0,0.0,0.0,0.0,0.0,0.0,-2.1295,0.0,0.0,0.0,0.0,0.0,0.0,0.0,0.0,0.0,0.0,0.0,0.0,0.0,0.0,0.0,0.0,0.0,0.0,0.0,0.0,0.0,0.0,0.0,0.0,0.0,0.0,0.0,0.0,0.0,0.0,0.0,0.0,0.0,0.0,0.0,0.0,0.0,0.0,0.0,0.0,0.0,-2.0062,-2.295,-2.4208,-2.4182,-2.4301,-2.4353,-2.4169,-0.9367,0.0,0.0,0.0,0.0,0.0,0.0,0.0,0.0,0.0,0.0,0.0,0.0,0.0,0.0,0.0,0.0,0.0,0.0,0.0,0.0,0.0,0.0,0.0,0.0,0.0,0.0,0.0,0.0,0.0,0.0,0.0,0.0,0.0,0.0,0.0,0.0,0.0,0.0,0.0,0.0,0.0,0.0,0.0,0.0,0.0,0.0,0.0,0.0,0.0,0.0,0.0,0.0,0.0,0.0,0.0,0.0,0.0,0.0,0.0,0.0,0.0,0.0,0.0,0.0,0.0,0.0,0.0,0.0,0.0,0.0,0.0,0.0,0.0,0.0,0.0,0.0,0.0,0.0,0.0,0.0,0.0,0.0,0.0,0.0,0.0,0.0,0.0,0.0,0.0,0.0,0.0,0.0,0.0,0.0,0.0,0.0,0.0,0.0,0.0,0.0,0.0,0.0,0.0,0.0,-1.9972,-2.2957,-2.4208,-2.4182,-2.4301,-2.4334,-2.4406,-0.928,0.0,0.0,0.0,0.0,0.0,0.0,0.0,0.0,0.0,0.0,0.0,0.0,0.0,0.0,0.0,0.0,0.0,0.0,0.0,0.0,0.0,0.0,0.0,0.0,0.0,0.0,0.0,0.0,0.0,0.0,0.0,0.0,0.0,0.0,0.0,0.0,0.0,0.0,0.0,0.0,0.0,0.0,0.0,0.0,0.0,0.0,0.0,0.0,0.0,0.0,0.0,0.0,0.0,0.0,0.0,0.0,0.0,0.0,0.0,0.0,0.0,0.0,0.0,0.0,0.0,0.0,0.0,0.0,0.0,0.0,0.0,0.0,0.0,0.0,0.0,0.0,0.0,0.0,0.0,0.0,0.0,0.0,0.0,0.0,0.0,0.0,0.0,0.0,0.0,0.0,0.0,0.0,0.0,0.0,0.0,0.0,0.0,0.0,0.0,0.0,0.0,0.0,0.0,0.0,-1.9411,-2.2812,-2.443,-2.4254,-2.4202,-2.4327,-2.4393,-1.8336,-1.0518,-0.0722,0.0,0.0,0.0,0.0,0.0,0.0,0.0,0.0,0.0,0.0,0.0,0.0,0.0,0.0,0.0,0.0,0.0,0.0,0.0,0.0,0.0,0.0,0.0,0.0,0.0,0.0,0.0,0.0,0.0,0.0,0.0,0.0,0.0,0.0,0.0,0.0,0.0,0.0,0.0,0.0,0.0,0.0,0.0,0.0,0.0,0.0,0.0,0.0,0.0,0.0,0.0,0.0,0.0,0.0,0.0,0.0,0.0,0.0,0.0,0.0,0.0,0.0,0.0,0.0,0.0,0.0,0.0,0.0,0.0,0.0,0.0,0.0,0.0,0.0,0.0,0.0,0.0,0.0,0.0,0.0,0.0,0.0,0.0,0.0,0.0,0.0,0.0,0.0,0.0,0.0,0.0,0.0,0.0,0.0,0.0,0.0,0.0,0.0,0.0,0.0,0.0,0.0,-1.9261,-2.2477,-2.3807,-2.4402,-2.4441,-2.4287,-2.4261,-2.4211,-1.7364,-0.1141,0.0,0.0,0.0,0.0,0.0,0.0,0.0,0.0,0.0,0.0,0.0,0.0,0.0,0.0,0.0,0.0,0.0,0.0,0.0,0.0,0.0,0.0,0.0,0.0,0.0,0.0,0.0,0.0,0.0,0.0,0.0,0.0,0.0,0.0,0.0,0.0,0.0,0.0,0.0,0.0,0.0,0.0,0.0,0.0,0.0,0.0,0.0,0.0,0.0,0.0,0.0,0.0,0.0,0.0,0.0,0.0,0.0,0.0,0.0,0.0,0.0,0.0,0.0,0.0,0.0,0.0,0.0,0.0,0.0,0.0,0.0,0.0,0.0,0.0,0.0,0.0,0.0,0.0,0.0,0.0,0.0,0.0,0.0,0.0,0.0,0.0,0.0,0.0,0.0,0.0,0.0,0.0,0.0,0.0,0.0,0.0,0.0,0.0,0.0,0.0,0.0,0.0,-1.9961,-2.1952,-2.2929,-2.4101,-2.4441,-2.4195,-2.4227,-2.4361,-1.7283,0.0,0.0,0.0,0.0,0.0,0.0,0.0,0.0,0.0,0.0,0.0,0.0,0.0,0.0,0.0,0.0,0.0,0.0,0.0,0.0,0.0,0.0,0.0,0.0,0.0,0.0,0.0,0.0,0.0,0.0,0.0,0.0,0.0,0.0,0.0,0.0,0.0,0.0,0.0,0.0,0.0,0.0,0.0,0.0,0.0,0.0,0.0,0.0,0.0,0.0,0.0,0.0,0.0,0.0,0.0,0.0,0.0,0.0,0.0,0.0,0.0,0.0,0.0,0.0,0.0,0.0,0.0,0.0,0.0,0.0,0.0,0.0,0.0,0.0,0.0,0.0,0.0,0.0,0.0,0.0,0.0,0.0,0.0,0.0,0.0,0.0,0.0,0.0,0.0,0.0,0.0,0.0,0.0,0.0,0.0,0.0,0.0,0.0,0.0,0.0,0.0,0.0,0.0,-1.9983,-2.187,-2.2836,0.0,-2.4017,-2.4188,-2.4221,-2.4354,-2.1618,-1.5796,0.0,0.0,0.0,0.0,0.0,0.0,0.0,0.0,0.0,0.0,0.0,0.0,0.0,0.0,0.0,0.0,0.0,0.0,0.0,0.0,0.0,0.0,0.0,0.0,0.0,0.0,0.0,0.0,0.0,0.0,0.0,0.0,0.0,0.0,0.0,0.0,0.0,0.0,0.0,0.0,0.0,0.0,0.0,0.0,0.0,0.0,0.0,0.0,0.0,0.0,0.0,0.0,0.0,0.0,0.0,0.0,0.0,0.0,0.0,0.0,0.0,0.0,0.0,0.0,0.0,0.0,0.0,0.0,0.0,0.0,0.0,0.0,0.0,0.0,0.0,0.0,0.0,0.0,0.0,0.0,0.0,0.0,0.0,0.0,0.0,0.0,0.0,0.0,0.0,0.0,0.0,0.0,0.0,0.0,0.0,0.0,0.0,0.0,0.0,0.0,0.0,0.0,0.0,-1.8598,-2.2825,0.0,-2.3635,-2.3865,-2.388,-2.3807,-2.223,-1.8597,0.0,0.0,0.0,0.0,0.0,0.0,0.0,0.0,0.0,0.0,0.0,0.0,0.0,0.0,0.0,0.0,0.0,0.0,0.0,0.0,0.0,0.0,0.0,0.0,0.0,0.0,0.0,0.0,0.0,0.0,0.0,0.0,0.0,0.0,0.0,0.0,0.0,0.0,0.0,0.0,0.0,0.0,0.0,0.0,0.0,0.0,0.0,0.0,0.0,0.0,0.0,0.0,0.0,0.0,0.0,0.0,0.0,0.0,0.0,0.0,0.0,0.0,0.0,0.0,0.0,0.0,0.0,0.0,0.0,0.0,0.0,0.0,0.0,0.0,0.0,0.0,0.0,0.0,0.0,0.0,0.0,0.0,0.0,0.0,0.0,0.0,0.0,0.0,0.0,0.0,0.0,0.0,0.0,0.0,0.0,0.0,0.0,0.0,0.0,0.0,0.0,0.0,0.0,-1.3498,-2.2429,-2.2521,-2.3101,-2.362,-2.3605,-2.2806,-1.9506,-1.2266,-1.1178,0.0,0.0,0.0,0.0,0.0,0.0,0.0,0.0,0.0,0.0,0.0,0.0,0.0,0.0,0.0,0.0,0.0,0.0,0.0,0.0,0.0,0.0,0.0,0.0,0.0,0.0,0.0,0.0,0.0,0.0,0.0,0.0,0.0,0.0,0.0,0.0,0.0,0.0,0.0,0.0,0.0,0.0,0.0,0.0,0.0,0.0,0.0,0.0,0.0,0.0,0.0,0.0,0.0,0.0,0.0,0.0,0.0,0.0,0.0,0.0,0.0,0.0,0.0,0.0,0.0,0.0,0.0,0.0,0.0,0.0,0.0,0.0,0.0,0.0,0.0,0.0,0.0,0.0,0.0,0.0,0.0,0.0,0.0,0.0,0.0,0.0,0.0,0.0,0.0,0.0,0.0,0.0,0.0,0.0,0.0,0.0,0.0,0.0,0.0,0.0,0.0,0.0,-1.717,-2.2627,-2.2415,-2.3101,-2.3325,-2.3022,-2.2799,-2.1097,-1.7391,-1.4646,0.0,0.0,0.0,0.0,0.0,0.0,0.0,0.0,0.0,0.0,0.0,0.0,0.0,0.0,0.0,0.0,0.0,0.0,0.0,0.0,0.0,0.0,0.0,0.0,0.0,0.0,0.0,0.0,0.0,0.0,0.0,0.0,0.0,0.0,0.0,0.0,0.0,0.0,0.0,0.0,0.0,0.0,0.0,0.0,0.0,0.0,0.0,0.0,0.0,0.0,0.0,0.0,0.0,0.0,0.0,0.0,0.0,0.0,0.0,0.0,0.0,0.0,0.0,0.0,0.0,0.0,0.0,0.0,0.0,0.0,0.0,0.0,0.0,0.0,0.0,0.0,0.0,0.0,0.0,0.0,0.0,0.0,0.0,0.0,0.0,0.0,0.0,0.0,0.0,0.0,0.0,0.0,0.0,0.0,0.0,0.0,0.0,0.0,0.0,0.0,0.0,0.0,-1.5745,-1.8272,-2.1894,-2.2705,-2.2929,-2.2633,-2.2105,-2.0737,-1.8272,-1.5565,0.0,0.0,0.0,0.0,0.0,0.0,0.0,0.0,0.0,0.0,0.0,0.0,0.0,0.0,0.0,0.0,0.0,0.0,0.0,0.0,0.0,0.0,0.0,0.0,0.0,0.0,0.0,0.0,0.0,0.0,0.0,0.0,0.0,0.0,0.0,0.0,0.0,0.0,0.0,0.0,0.0,0.0,0.0,0.0,0.0,0.0,0.0,0.0,0.0,0.0,0.0,0.0,0.0,0.0,0.0,0.0,0.0,0.0,0.0,0.0,0.0,0.0,0.0,0.0,0.0,0.0,0.0,0.0,0.0,0.0,0.0,0.0,0.0,0.0,0.0,0.0,0.0,0.0,0.0,0.0,0.0,0.0,0.0,0.0,0.0,0.0,0.0,0.0,0.0,0.0,0.0,0.0,0.0,0.0,0.0,0.0,0.0,0.0,0.0,0.0,0.0,0.0,0.0,-1.3445,-2.0853,-2.2218,-2.2369,-2.2158,-2.1571,-1.9989,-1.7115,0.0,0.0,0.0,0.0,0.0,0.0,0.0,0.0,0.0,0.0,0.0,0.0,0.0,0.0,0.0,0.0,0.0,0.0,0.0,0.0,0.0,0.0,0.0,0.0,0.0,0.0,0.0,0.0,0.0,0.0,0.0,0.0,0.0,0.0,0.0,0.0,0.0,0.0,0.0,0.0,0.0,0.0,0.0,0.0,0.0,0.0,0.0,0.0,0.0,0.0,0.0,0.0,0.0,0.0,0.0,0.0,0.0,0.0,0.0,0.0,0.0,0.0,0.0,0.0,0.0,0.0,0.0,0.0,0.0,0.0,0.0,0.0,0.0,0.0,0.0,0.0,0.0,0.0,0.0,0.0,0.0,0.0,0.0,0.0,0.0,0.0,0.0,0.0,0.0,0.0,0.0,0.0,0.0,0.0,0.0,0.0,0.0,0.0,0.0,0.0,0.0,0.0,0.0,0.0,0.0,-2.102,-2.1945,-2.1921,-2.2125,-2.1387,-1.9771,-1.7101,0.0,0.0,0.0,0.0,0.0,0.0,0.0,0.0,0.0,0.0,0.0,0.0,0.0,0.0]}]]]